     2              OBSERVATION DATA    G (GPS)             RINEX VERSION / TYPE
GPB2RIN v7.00 10-AUG-07 13:04                               PGM / RUN BY / DATE
                                                            MARKER NAME
                                                            OBSERVER / AGENCY
Trimble Real-Time                                           COMMENT
TRIMBLE                                                     REC # / TYPE / VERS
                                                            ANT # / TYPE
   -2671796.71   -4266093.49    3903784.25                  APPROX POSITION XYZ
        0.0000        0.0000        0.0000                  ANTENNA: DELTA H/E/N
     1     1                                                WAVELENGTH FACT L1/2
     7    C1    L1    L2    P2    D1    S1    S2            # / TYPES OF OBSERV
     1                                                      INTERVAL
  2007     3    30    18     3   26.600000                  TIME OF FIRST OBS
                                                            END OF HEADER
  7  3 30 18  3 30.0000000  0 11 24  7  6 29 10 16 18 21 22 26 30
  21406788.375      268372.441      196650.723    21406785.987       -1514.829
        48.500          33.500
  20420091.641      108138.961       76719.301    20420089.082        -666.890
        45.500          32.750
  20904267.852      291377.566      214069.301    20904265.750       -1671.426
        45.500          32.250
  22888355.584        -845.613       -4986.254    22888352.802         -44.268
        46.750          30.000
  24596032.961      586486.254      436406.941    24596030.760       -3712.031
        44.000          31.000
  23004930.467     -125359.207      -99233.977    23004927.964         746.997
        46.000          30.250
  21814284.262     -443129.770     -328015.434    21814280.991        2313.984
        44.250          30.500
  20928737.414     -132013.824     -103597.980    20928733.067         818.301
        48.000          34.000
  24125626.779     -637635.215     -471292.055    24125622.715        3369.971
        44.750          30.000
  22363434.480     -241755.438     -180612.313    22363432.594        1224.390
        46.000          30.000
  24948439.321      646603.402      484287.547    24948438.341       -3647.237
        38.000          20.000
  7  3 30 18  3 31.0000000  0 11 24  7  6 29 10 16 18 21 22 26 30
  21407076.903      269887.234      197831.078    21407074.146       -1514.946
        48.500          34.000
  20420218.775      108806.012       77239.082    20420215.560        -667.310
        45.000          33.000
  20904585.752      293049.211      215371.875    20904583.801       -1671.934
        45.000          32.000
  22888363.958        -801.176       -4951.629    22888361.435         -44.834
        47.000          30.500
  24596739.347      590198.246      439299.406    24596737.382       -3711.948
        43.250          30.750
  23004788.210     -126105.941      -99815.848    23004785.591         746.445
        46.000          30.750
  21813843.887     -445443.613     -329818.422    21813840.330        2313.584
        44.750          31.000
  20928581.391     -132832.148     -104235.633    20928577.566         818.223
        48.000          34.250
  24124985.468     -641005.051     -473917.898    24124981.660        3369.761
        45.000          30.500
  22363201.505     -242979.574     -181566.188    22363199.525        1223.779
        45.750          29.750
  24949133.667      650250.648      487129.531    24949132.373       -3647.256
        37.500          20.000
  7  3 30 18  3 32.0000000  0 11 24  7  6 29 10 16 18 21 22 26 30
  21407365.409      271402.176      199011.547    21407362.542       -1514.985
        48.750          34.500
  20420345.568      109473.531       77759.219    20420342.874        -667.622
        45.000          33.500
  20904904.175      294721.301      216674.801    20904902.211       -1672.227
        45.000          32.500
  22888372.345        -756.145       -4916.539    22888369.787         -45.254
        47.250          31.250
  24597445.376      593910.277      442191.891    24597443.480       -3711.978
        43.000          30.750
  23004646.333     -126852.117     -100397.285    23004643.630         745.884
        45.750          30.750
  21813403.710     -447757.094     -331621.141    21813400.051        2313.428
        45.000          31.500
  20928425.823     -133650.281     -104873.145    20928421.694         818.101
        47.750          34.250
  24124344.070     -644374.754     -476543.645    24124340.470        3369.692
        44.500          30.500
  22362968.640     -244203.102     -182519.594    22362966.735        1223.330
        45.500          29.750
  24949827.351      653897.727      489971.410    24949826.311       -3646.978
        37.750          20.000
  7  3 30 18  3 33.0000000  0 11 24  7  6 29 10 16 18 21 22 26 30
  21407653.396      272917.262      200192.137    21407650.773       -1515.190
        48.500          34.250
  20420473.103      110141.582       78279.777    20420470.256        -668.350
        45.500          33.250
  20905222.007      296393.887      217978.113    20905220.317       -1672.847
        45.000          32.500
  22888381.135        -710.441       -4880.938    22888378.673         -46.079
        47.000          31.000
  24598151.740      597622.359      445084.414    24598150.104       -3712.188
        43.000          31.000
  23004504.311     -127597.703     -100978.266    23004501.595         745.283
        46.250          30.500
  21812963.853     -450070.168     -333423.535    21812960.305        2312.847
        45.250          31.500
  20928270.189     -134468.195     -105510.480    20928266.081         817.773
        48.000          34.500
  24123702.365     -647744.297     -479169.262    24123699.002        3369.444
        45.500          30.500
  22362736.159     -245425.930     -183472.449    22362733.826        1222.471
        45.500          30.000
  24950521.101      657544.707      492813.207    24950520.013       -3647.017
        38.250          20.000
  7  3 30 18  3 34.0000000  0 11 24  7  6 29 10 16 18 21 22 26 30
  21407941.452      274432.574      201372.898    21407938.819       -1515.459
        48.750          33.250
  20420599.761      110810.176       78800.758    20420597.199        -668.862
        45.750          33.250
  20905540.617      298066.965      219281.816    20905538.720       -1673.359
        45.250          32.000
  22888389.719        -664.086       -4844.813    22888387.504         -46.597
        47.000          30.750
  24598858.144      601334.543      447977.027    24598856.520       -3712.178
        43.250          30.000
  23004362.527     -128342.609     -101558.711    23004359.956         744.541
        46.500          30.500
  21812523.833     -452382.801     -335225.586    21812520.028        2312.446
        45.250          30.500
  20928114.811     -135285.875     -106147.637    20928110.402         817.583
        48.000          34.500
  24123061.735     -651113.613     -481794.695    24123057.518        3369.155
        45.500          30.000
  22362503.645     -246648.043     -184424.738    22362501.174        1221.729
        46.000          30.000
  24951214.990      661191.602      495654.941    24951214.076       -3646.855
        37.750          20.500
  7  3 30 18  3 35.0000000  0 11 24  7  6 29 10 16 18 21 22 26 30
  21408230.024      275948.129      202553.859    21408227.239       -1515.610
        49.000          33.000
  20420726.952      111479.410       79322.238    20420724.599        -669.521
        45.000          33.250
  20905859.275      299740.609      220585.949    20905857.142       -1673.901
        45.250          32.000
  22888399.143        -616.988       -4808.109    22888396.447         -47.393
        47.000          30.500
  24599564.798      605046.914      450869.781    24599562.998       -3712.364
        42.250          29.500
  23004220.973     -129086.848     -102138.641    23004218.333         743.867
        46.000          30.500
  21812083.527     -454694.926     -337027.242    21812079.908        2311.841
        44.500          30.750
  20927959.098     -136103.207     -106784.512    20927954.596         817.275
        48.000          34.250
  24122420.908     -654482.664     -484419.930    24122416.882        3368.965
        45.250          30.500
  22362271.121     -247869.414     -185376.457    22362268.961        1220.947
        46.000          30.000
  24951909.686      664838.496      498496.684    24951907.945       -3646.807
        38.000          20.000
  7  3 30 18  3 36.0000000  0 11 24  7  6 29 10 16 18 21 22 26 30
  21408518.664      277463.867      203734.953    21408515.994       -1515.869
        49.000          33.500
  20420854.735      112149.148       79844.113    20420852.088        -670.146
        45.250          33.500
  20906178.096      301414.750      221890.477    20906175.507       -1674.370
        45.000          32.750
  22888408.005        -569.227       -4770.891    22888405.412         -48.110
        47.000          30.500
  24600270.834      608759.375      453762.605    24600269.214       -3712.368
        42.750          29.250
  23004079.890     -129830.441     -102718.066    23004076.614         743.262
        46.500          31.000
  21811643.219     -457006.641     -338828.574    21811640.187        2311.465
        45.000          31.250
  20927803.676     -136920.297     -107421.211    20927799.589         817.002
        47.500          34.250
  24121779.501     -657851.520     -487045.004    24121775.527        3368.784
        45.000          31.000
  22362038.520     -249090.086     -186327.629    22362036.510        1220.327
        46.250          30.250
  24952603.401      668485.336      501338.371    24952602.428       -3646.704
        38.000          20.000
  7  3 30 18  3 37.0000000  0 11 24  7  6 29 10 16 18 21 22 26 30
  21408806.847      278979.848      204916.234    21408804.407       -1516.001
        49.000          33.250
  20420982.269      112819.480       80366.449    20420979.356        -670.625
        45.750          33.000
  20906496.337      303089.453      223195.438    20906494.617       -1674.971
        45.250          32.250
  22888416.841        -520.762       -4733.133    22888414.950         -48.711
        47.250          30.500
  24600977.341      612471.996      456655.551    24600975.629       -3712.661
        43.000          29.250
  23003938.229     -130573.344     -103296.949    23003935.186         742.554
        46.000          31.250
  21811204.131     -459317.879     -340629.547    21811200.411        2311.001
        45.250          31.250
  20927648.088     -137737.102     -108057.680    20927644.061         816.694
        47.500          34.000
  24121138.286     -661220.156     -489669.922    24121134.701        3368.574
        44.500          30.750
  22361806.853     -250310.023     -187278.227    22361804.244        1219.658
        46.250          30.000
  24953297.280      672132.137      504180.023    24953296.115       -3646.787
        38.000          20.000
  7  3 30 18  3 38.0000000  0 11 24  7  6 29 10 16 18 21 22 26 30
  21409095.321      280496.098      206097.730    21409092.902       -1516.357
        48.750          33.000
  20421109.733      113490.434       80889.277    20421107.203        -671.230
        46.000          33.000
  20906815.264      304764.730      224500.844    20906812.962       -1675.449
        45.750          32.500
  22888426.282        -471.500       -4694.746    22888424.332         -49.717
        47.250          30.750
  24601683.988      616184.801      459548.641    24601682.192       -3712.856
        43.250          29.000
  23003797.130     -131315.547     -103875.297    23003794.111         741.772
        45.750          30.750
  21810764.416     -461628.613     -342430.121    21810760.397        2310.527
        45.000          31.500
  20927492.604     -138553.551     -108693.871    20927488.499         816.274
        47.250          33.750
  24120497.383     -664588.484     -492294.598    24120493.800        3368.281
        44.500          30.500
  22361574.487     -251529.152     -188228.195    22361572.545        1218.745
        46.500          30.000
  24953990.800      675778.922      507021.672    24953989.960       -3646.738
        37.750          20.000
  7  3 30 18  3 39.0000000  0 11 24  7  6 29 10 16 18 21 22 26 30
  21409383.826      282012.527      207279.359    21409381.443       -1516.441
        49.000          33.750
  20421237.525      114161.902       81412.492    20421235.352        -671.597
        45.750          33.250
  20907134.446      306440.512      225806.645    20907132.300       -1675.972
        45.500          32.000
  22888435.798        -421.645       -4655.902    22888433.610         -50.181
        47.500          31.000
  24602390.609      619897.633      462441.746    24602388.893       -3712.764
        43.500          30.750
  23003655.365     -132057.137     -104453.164    23003653.161         741.362
        45.750          30.500
  21810324.476     -463938.957     -344230.391    21810320.883        2310.171
        44.500          31.250
  20927337.862     -139369.793     -109329.906    20927333.358         816.079
        46.500          34.000
  24119856.625     -667956.652     -494919.141    24119852.872        3368.271
        44.750          30.500
  22361342.470     -252747.664     -189177.691    22361340.472        1218.257
        46.500          30.000
  24954685.478      679425.637      509863.246    24954684.225       -3646.763
        37.750          20.000
  7  3 30 18  3 40.0000000  0 11 24  7  6 29 10 16 18 21 22 26 30
  21409672.360      283529.043      208461.059    21409670.225       -1516.567
        49.000          34.500
  20421366.154      114833.824       81936.059    20421363.362        -672.227
        45.250          34.000
  20907452.868      308116.688      227112.754    20907450.799       -1676.392
        45.500          32.750
  22888445.759        -371.203       -4616.602    22888443.117         -50.762
        47.500          31.250
  24603097.164      623610.516      465334.902    24603095.658       -3712.866
        43.000          30.500
  23003514.069     -132798.203     -105030.621    23003512.319         740.811
        45.750          31.750
  21809884.393     -466248.941     -346030.383    21809881.292        2309.722
        44.750          31.500
  20927181.991     -140185.887     -109965.828    20927177.941         815.898
        46.500          34.750
  24119215.514     -671324.695     -497543.582    24119211.861        3368.003
        44.500          31.000
  22361110.918     -253965.555     -190126.703    22361108.152        1217.661
        46.500          31.500
  24955378.674      683072.176      512704.691    24955378.251       -3646.626
        37.500          20.000
  7  3 30 18  3 41.0000000  0 11 24  7  6 29 10 16 18 21 22 26 30
  21409960.901      285045.703      209642.859    21409958.402       -1516.645
        49.000          34.250
  20421493.594      115506.254       82460.027    20421491.025        -672.656
        45.000          33.500
  20907772.273      309793.336      228419.234    20907770.052       -1676.880
        45.500          32.500
  22888455.187        -320.113       -4576.789    22888452.915         -51.343
        47.250          31.000
  24603803.729      627323.426      468228.070    24603801.876       -3712.852
        42.750          29.500
  23003373.818     -133538.668     -105607.602    23003371.243         740.190
        45.500          31.000
  21809445.221     -468558.535     -347830.066    21809442.079        2309.370
        44.500          31.250
  20927026.302     -141001.781     -110601.590    20927022.543         815.869
        46.500          34.500
  24118574.386     -674692.590     -500167.918    24118571.103        3367.720
        44.000          30.000
  22360878.781     -255182.797     -191075.215    22360876.752        1216.948
        46.750          30.500
  24956073.302      686718.605      515546.063    24956072.037       -3646.436
        37.750          20.000
  7  3 30 18  3 42.0000000  0 11 24  7  6 29 10 16 18 21 22 26 30
  21410249.592      286562.531      210824.805    21410247.384       -1516.870
        49.000          34.250
  20421621.486      116179.195       82984.406    20421619.018        -673.232
        45.500          33.750
  20908091.165      311470.422      229726.055    20908089.087       -1677.266
        46.000          32.000
  22888465.636        -268.395       -4536.488    22888462.918         -51.963
        47.250          31.500
  24604510.317      631036.448      471121.293    24604508.565       -3712.852
        42.750          29.000
  23003233.421     -134278.531     -106184.113    23003230.596         739.658
        45.500          30.500
  21809005.766     -470867.758     -349629.457    21809002.258        2309.126
        44.750          31.500
  20926871.955     -141817.449     -111237.176    20926867.565         815.703
        47.000          34.250
  24117934.056     -678060.313     -502792.113    24117930.062        3367.617
        44.250          30.000
  22360647.121     -256399.371     -192023.191    22360645.103        1216.240
        47.000          30.000
  24956766.845      690364.879      518387.309    24956765.356       -3646.143
        38.250          20.000
  7  3 30 18  3 43.0000000  0 11 24  7  6 29 10 16 18 21 22 26 30
  21410538.817      288079.492      212006.852    21410536.036       -1516.904
        48.500          33.750
  20421750.077      116852.609       83509.141    20421747.167        -673.623
        45.000          33.500
  20908410.122      313148.039      231033.289    20908408.240       -1677.783
        45.750          32.000
  22888475.056        -216.031       -4495.684    22888472.996         -52.734
        46.750          31.000
  24605216.806      634749.465      474014.594    24605215.326       -3713.042
        42.750          28.500
  23003092.506     -135017.816     -106760.172    23003089.770         739.043
        45.250          30.250
  21808566.374     -473176.598     -351428.551    21808563.202        2308.691
        45.000          30.500
  20926716.458     -142632.926     -111872.609    20926712.211         815.381
        47.000          34.000
  24117293.513     -681427.910     -505416.215    24117289.540        3367.632
        44.500          30.000
  22360416.451     -257615.297     -192970.664    22360413.777        1215.664
        46.500          29.250
  24957460.148      694011.059      521228.480    24957459.410       -3646.172
        37.750          20.000
  7  3 30 18  3 44.0000000  0 11 24  7  6 29 10 16 18 21 22 26 30
  21410827.238      289596.605      213189.020    21410824.913       -1517.227
        48.750          33.750
  20421878.167      117526.512       84034.258    20421875.150        -674.038
        45.000          32.500
  20908730.017      314826.055      232340.832    20908728.056       -1678.433
        45.000          32.000
  22888485.028        -163.117       -4454.449    22888482.680         -53.247
        47.000          30.500
  24605923.489      638462.516      476907.867    24605921.451       -3713.071
        42.250          28.500
  23002951.757     -135756.500     -107335.773    23002949.311         738.354
        45.250          30.000
  21808126.905     -475485.078     -353227.359    21808123.775        2308.232
        45.250          30.500
  20926561.055     -143448.207     -112507.891    20926557.019         815.137
        47.250          33.500
  24116652.427     -684795.320     -508040.168    24116648.913        3367.339
        44.750          29.500
  22360185.212     -258830.586     -193917.641    22360182.403        1214.966
        46.500          29.500
  24958154.679      697657.121      524069.563    24958153.586       -3646.021
        37.500          20.000
  7  3 30 18  3 45.0000000  0 11 24  7  6 29 10 16 18 21 22 26 30
  21411115.645      291113.816      214371.266    21411113.236       -1517.271
        48.750          33.000
  20422006.046      118200.922       84559.777    20422003.954        -674.629
        45.500          32.750
  20909049.143      316504.477      233648.699    20909047.152       -1678.550
        45.000          31.750
  22888494.861        -109.590       -4412.738    22888492.548         -53.789
        46.750          30.000
  24606630.354      642175.613      479801.188    24606627.852       -3713.081
        42.000          28.500
  23002811.346     -136494.637     -107910.953    23002809.103         737.886
        45.500          30.000
  21807688.009     -477793.184     -355025.883    21807684.484        2308.022
        45.000          30.500
  20926406.133     -144263.309     -113143.039    20926401.943         815.059
        47.250          33.500
  24116011.552     -688162.621     -510664.035    24116008.098        3367.241
        44.500          29.000
  22359953.627     -260045.230     -194864.105    22359951.179        1214.355
        47.000          29.000
  24958848.171      701303.016      526910.523    24958847.134       -3645.820
        38.000          20.000
  7  3 30 18  3 46.0000000  0 11 24  7  6 29 10 16 18 21 22 26 30
  21411404.857      292631.090      215553.555    21411402.188       -1517.368
        48.500          32.750
  20422134.400      118875.695       85085.578    20422132.308        -675.024
        45.500          32.750
  20909368.854      318183.262      234956.840    20909366.777       -1679.063
        44.500          31.500
  22888505.803         -55.516       -4370.605    22888503.396         -54.399
        46.500          29.750
  24607337.136      645888.684      482694.488    24607334.709       -3713.140
        42.000          29.000
  23002671.021     -137232.270     -108485.730    23002668.607         737.324
        45.750          30.250
  21807248.814     -480101.008     -356824.184    21807245.387        2307.729
        44.750          30.250
  20926250.977     -145078.277     -113778.086    20926246.976         814.741
        47.250          33.000
  24115370.527     -691529.863     -513287.859    24115367.252        3367.124
        44.250          29.500
  22359722.870     -261259.309     -195810.141    22359720.442        1213.687
        47.000          29.500
  24959541.894      704948.715      529751.328    24959541.028       -3645.601
        37.500          20.000
  7  3 30 18  3 47.0000000  0 11 24  7  6 29 10 16 18 21 22 26 30
  21411693.199      294148.539      216735.980    21411691.307       -1517.554
        48.250          34.000
  20422263.495      119551.047       85611.816    20422260.598        -675.537
        45.000          32.750
  20909687.900      319862.602      236265.422    20909685.931       -1679.634
        44.250          32.250
  22888516.568          -0.805       -4327.977    22888513.675         -55.073
        46.750          30.500
  24608043.309      649601.844      485587.855    24608041.359       -3713.257
        41.500          28.750
  23002531.025     -137969.270     -109060.020    23002528.353         736.587
        45.750          30.250
  21806809.663     -482408.387     -358622.148    21806806.057        2307.075
        44.500          30.750
  20926095.974     -145893.031     -114412.965    20926091.700         814.531
        47.000          33.500
  24114729.959     -694896.910     -515911.527    24114726.308        3366.875
        44.500          30.000
  22359492.115     -262472.715     -196755.660    22359489.695        1213.081
        47.000          29.750
  24960235.399      708594.359      532592.070    24960234.848       -3645.854
        37.750          20.000
  7  3 30 18  3 48.0000000  0 11 24  7  6 29 10 16 18 21 22 26 30
  21411982.292      295666.273      217918.625    21411980.103       -1517.817
        48.000          33.750
  20422392.083      120227.020       86138.543    20422389.351        -676.182
        45.250          33.250
  20910008.061      321542.508      237574.426    20910005.796       -1680.098
        44.500          32.500
  22888526.355          54.664       -4284.762    22888524.285         -55.879
        47.000          30.500
  24608750.285      653315.164      488481.348    24608747.880       -3713.359
        42.250          28.250
  23002391.020     -138705.563     -109633.754    23002388.278         735.991
        46.000          30.250
  21806370.829     -484715.277     -360419.727    21806367.269        2306.724
        45.250          32.000
  20925941.347     -146707.449     -115047.578    20925936.856         814.292
        46.750          34.250
  24114089.391     -698263.664     -518534.973    24114085.497        3366.714
        44.500          30.250
  22359261.406     -263685.297     -197700.531    22359259.108        1212.280
        46.500          29.750
  24960929.227      712239.992      535432.801    24960928.833       -3645.645
        38.000          20.000
  7  3 30 18  3 49.0000000  0 11 24  7  6 29 10 16 18 21 22 26 30
  21412271.323      297184.109      219101.352    21412268.376       -1517.778
        48.000          34.500
  20422520.869      120903.426       86665.609    20422518.073        -676.509
        45.250          33.250
  20910327.646      323222.813      238883.754    20910325.377       -1680.425
        44.500          32.750
  22888537.467         110.703       -4241.090    22888534.435         -56.245
        46.500          30.500
  24609457.046      657028.512      491374.863    24609454.483       -3713.257
        42.500          28.250
  23002250.508     -139441.320     -110207.082    23002248.099         735.542
        46.250          30.000
  21805931.601     -487021.813     -362217.035    21805927.882        2306.343
        45.000          31.250
  20925785.647     -147521.711     -115682.063    20925781.903         814.268
        46.750          34.000
  24113448.838     -701630.309     -521158.328    24113445.215        3366.636
        45.000          29.500
  22359030.109     -264897.328     -198644.980    22359028.022        1211.772
        46.750          29.500
  24961623.557      715885.453      538273.418    24961622.210       -3645.317
        38.000          20.000
  7  3 30 18  3 50.0000000  0 11 24  7  6 29 10 16 18 21 22 26 30
  21412559.908      298701.875      220284.023    21412557.454       -1517.695
        48.250          34.250
  20422649.515      121580.133       87192.918    20422646.644        -676.753
        46.000          32.750
  20910647.218      324903.355      240193.266    20910645.280       -1680.664
        44.750          32.000
  22888547.719         167.184       -4197.086    22888545.430         -56.626
        46.750          29.500
  24610163.463      660741.691      494268.246    24610160.941       -3713.018
        43.500          27.750
  23002110.672     -140176.688     -110780.098    23002108.537         735.268
        46.250          30.250
  21805492.528     -489328.195     -364014.215    21805489.279        2306.392
        45.000          30.750
  20925631.521     -148335.965     -116316.551    20925627.002         814.336
        46.750          33.750
  24112807.952     -704997.020     -523781.738    24112804.267        3366.904
        45.250          30.000
  22358800.257     -266108.922     -199589.070    22358797.480        1211.440
        46.250          29.500
  24962317.026      719530.566      541113.758    24962316.033       -3644.873
        38.250          20.500
  7  3 30 18  3 51.0000000  0 11 24  7  6 29 10 16 18 21 22 26 30
  21412848.854      300219.570      221466.645    21412846.111       -1517.671
        48.500          33.750
  20422778.096      122257.121       87720.438    20422775.607        -677.324
        45.250          32.500
  20910967.156      326584.121      241502.957    20910965.196       -1680.723
        44.250          32.500
  22888558.534         224.055       -4152.766    22888556.072         -57.090
        46.250          30.250
  24610869.923      664454.703      497161.504    24610867.849       -3713.027
        43.000          27.500
  23001971.055     -140911.684     -111352.824    23001968.770         734.858
        46.000          30.500
  21805053.957     -491634.387     -365811.246    21805050.326        2306.079
        45.250          31.000
  20925476.394     -149150.238     -116951.043    20925472.195         814.258
        47.000          33.250
  24112167.737     -708363.770     -526405.176    24112163.560        3366.855
        44.750          29.750
  22358569.244     -267320.074     -200532.828    22358567.152        1210.884
        46.250          29.500
  24963010.743      723175.348      543953.844    24963009.843       -3644.615
        37.500          20.500
  7  3 30 18  3 52.0000000  0 11 24  7  6 29 10 16 18 21 22 26 30
  21413137.286      301737.117      222649.156    21413134.623       -1517.627
        48.750          33.000
  20422906.923      122934.301       88248.117    20422904.156        -677.368
        44.250          32.250
  20911287.639      328265.121      242812.828    20911285.146       -1681.191
        44.250          31.250
  22888569.208         281.293       -4108.160    22888566.816         -57.524
        46.500          29.500
  24611576.202      668167.469      500054.570    24611574.136       -3712.847
        42.500          27.500
  23001831.259     -141646.355     -111925.285    23001828.295         734.458
        45.750          29.750
  21804615.096     -493940.496     -367608.211    21804611.709        2305.908
        45.000          31.000
  20925321.333     -149964.574     -117585.594    20925317.128         814.214
        47.500          33.250
  24111526.533     -711730.656     -529028.727    24111523.100        3366.865
        44.500          29.000
  22358339.066     -268530.828     -201476.273    22358336.473        1210.474
        46.250          29.000
  24963704.280      726819.777      546793.652    24963703.119       -3644.307
        37.250          20.500
  7  3 30 18  3 53.0000000  0 11 24  7  6 29 10 16 18 21 22 26 30
  21413426.032      303254.727      223831.703    21413423.716       -1517.568
        49.000          33.000
  20423036.208      123611.902       88776.117    20423033.342        -677.803
        44.250          32.500
  20911607.061      329946.445      244122.941    20911604.553       -1681.499
        44.500          31.750
  22888580.944         339.043       -4063.164    22888578.002         -57.935
        47.000          29.250
  24612282.839      671880.184      502947.590    24612280.563       -3712.617
        42.250          26.750
  23001691.368     -142380.563     -112497.395    23001688.504         734.033
        45.750          30.250
  21804176.100     -496246.328     -369404.961    21804173.209        2305.742
        45.000          31.000
  20925166.209     -150778.828     -118220.078    20925161.894         814.229
        47.250          33.500
  24110885.977     -715097.496     -531652.230    24110882.323        3366.938
        44.750          29.000
  22358108.747     -269741.051     -202419.301    22358106.401        1210.049
        46.500          29.000
  24964397.660      730463.930      549633.250    24964396.700       -3643.984
        37.750          21.000
  7  3 30 18  3 54.0000000  0 11 24  7  6 29 10 16 18 21 22 26 30
  21413715.134      304772.199      225014.148    21413712.514       -1517.485
        49.000          33.500
  20423164.970      124289.746       89304.301    20423162.574        -678.081
        45.000          32.500
  20911927.210      331627.965      245433.215    20911924.766       -1681.582
        45.000          31.500
  22888591.701         397.168       -4017.875    22888589.310         -58.374
        46.500          30.000
  24612989.356      675592.730      505840.480    24612987.400       -3712.524
        42.750          27.500
  23001551.837     -143114.469     -113069.273    23001549.073         733.711
        45.000          30.000
  21803737.787     -498552.039     -371201.621    21803734.260        2305.601
        45.250          31.000
  20925011.830     -151593.133     -118854.602    20925007.350         814.248
        47.000          32.750
  24110245.188     -718464.449     -534275.832    24110241.411        3366.987
        45.000          29.250
  22357878.707     -270950.883     -203362.027    22357876.412        1209.541
        46.500          29.000
  24965091.355      734107.707      552472.551    24965090.081       -3643.491
        37.500          20.500
  7  3 30 18  3 55.0000000  0 11 24  7  6 29 10 16 18 21 22 26 30
  21414003.575      306289.762      226196.664    21414000.966       -1517.617
        49.000          33.500
  20423293.944      124967.977       89832.793    20423291.137        -678.452
        45.000          32.250
  20912247.190      333309.910      246743.816    20912244.801       -1682.148
        44.500          31.250
  22888602.586         455.852       -3972.148    22888600.535         -58.984
        47.250          29.000
  24613695.871      679305.219      508733.328    24613693.730       -3712.505
        43.000          28.000
  23001412.178     -143847.781     -113640.684    23001409.472         732.979
        45.250          30.000
  21803298.849     -500857.414     -372998.008    21803295.971        2305.283
        45.500          30.250
  20924856.614     -152407.297     -119489.016    20924852.340         814.067
        46.750          33.000
  24109604.529     -721831.293     -536899.336    24109600.657        3366.841
        44.500          28.500
  22357648.760     -272160.125     -204304.297    22357646.296        1208.945
        46.500          28.500
  24965784.470      737751.336      555311.742    24965783.590       -3643.594
        38.000          20.500
  7  3 30 18  3 56.0000000  0 11 24  7  6 29 10 16 18 21 22 26 30
  21414292.181      307807.379      227379.227    21414290.334       -1517.676
        48.750          33.250
  20423422.939      125646.656       90361.633    20423420.816        -678.989
        44.750          32.500
  20912567.631      334992.203      248054.691    20912564.933       -1682.539
        44.500          31.250
  22888613.846         515.043       -3926.023    22888611.809         -59.551
        47.000          29.000
  24614402.046      683017.691      511626.168    24614400.215       -3712.456
        43.500          28.250
  23001272.678     -144580.633     -114211.742    23001269.885         732.515
        45.000          29.500
  21802860.063     -503162.496     -374794.176    21802857.195        2304.863
        45.500          29.250
  20924701.527     -153221.344     -120123.336    20924697.443         813.872
        46.500          32.500
  24108963.886     -725198.070     -539522.793    24108959.977        3366.694
        44.250          28.750
  22357418.938     -273368.797     -205246.113    22357416.372        1208.262
        46.500          29.250
  24966478.101      741394.734      558150.738    24966476.957       -3643.423
        38.250          20.000
  7  3 30 18  3 57.0000000  0 11 24  7  6 29 10 16 18 21 22 26 30
  21414581.275      309325.129      228561.887    21414579.069       -1517.813
        48.000          32.500
  20423552.487      126325.828       90890.863    20423549.810        -679.375
        45.000          32.250
  20912887.312      336674.906      249365.887    20912885.214       -1682.861
        44.000          30.500
  22888625.407         574.859       -3879.418    22888623.110         -60.098
        47.250          28.500
  24615108.996      686730.191      514519.023    24615106.709       -3712.461
        43.250          28.000
  23001133.235     -145312.914     -114782.352    23001130.731         732.070
        45.000          30.000
  21802421.880     -505467.215     -376590.059    21802418.222        2304.473
        44.250          29.750
  20924546.676     -154035.199     -120757.516    20924542.389         813.730
        46.500          32.750
  24108323.493     -728564.715     -542146.148    24108319.054        3366.611
        43.750          29.000
  22357188.965     -274576.848     -206187.453    22357186.736        1207.656
        46.500          28.250
  24967170.923      745037.992      560989.633    24967170.097       -3643.286
        38.500          20.000
  7  3 30 18  3 58.0000000  0 11 24  7  6 29 10 16 18 21 22 26 30
  21414870.466      310843.020      229744.656    21414867.981       -1517.974
        47.750          33.000
  20423681.863      127005.449       91420.426    20423679.154        -679.844
        45.000          32.250
  20913207.941      338358.125      250677.484    20913205.345       -1683.394
        44.250          31.250
  22888636.936         635.297       -3832.324    22888634.629         -60.669
        46.750          28.000
  24615815.245      690442.746      517411.918    24615813.017       -3712.617
        42.500          28.500
  23000994.381     -146044.586     -115352.488    23000991.181         731.445
        44.750          30.500
  21801983.256     -507771.563     -378385.660    21801979.770        2304.131
        44.500          30.500
  20924391.880     -154848.867     -121391.539    20924387.650         813.599
        46.250          33.000
  24107682.673     -731931.215     -544769.402    24107678.513        3366.499
        44.250          29.000
  22356959.362     -275784.254     -207128.293    22356956.400        1207.095
        46.750          29.500
  24967863.904      748681.094      563828.414    24967863.312       -3643.047
        38.000          20.000
  7  3 30 18  3 59.0000000  0 11 24  7  6 29 10 16 18 21 22 26 30
  21415158.756      312360.910      230927.426    21415156.630       -1517.837
        47.750          33.250
  20423811.112      127685.504       91950.340    20423808.555        -680.303
        45.750          32.000
  20913528.376      340041.598      251989.285    20913525.954       -1683.540
        45.250          31.000
  22888648.475         696.230       -3784.844    22888646.036         -61.206
        46.750          29.000
  24616521.815      694155.211      520304.754    24616519.459       -3712.461
        43.000          29.500
  23000855.020     -146775.828     -115922.293    23000852.198         731.064
        44.500          30.500
  21801544.896     -510075.664     -380181.066    21801541.597        2303.970
        45.250          31.000
  20924237.445     -155662.465     -122025.512    20924232.767         813.560
        46.250          32.750
  24107041.918     -735297.668     -547392.617    24107038.069        3366.396
        45.000          29.000
  22356729.153     -276991.113     -208068.707    22356727.259        1206.680
        46.750          30.250
  24968557.318      752323.949      566666.992    24968556.694       -3642.754
        38.750          20.000
  7  3 30 18  4  0.0000000  0 11 24  7  6 29 10 16 18 21 22 26 30
  21415447.700      313878.777      232110.176    21415445.992       -1517.925
        48.000          33.000
  20423940.685      128365.793       92480.434    20423938.308        -680.376
        45.250          32.250
  20913848.438      341725.410      253301.344    20913845.973       -1684.077
        44.750          31.750
  22888660.772         757.586       -3737.031    22888657.713         -61.567
        46.500          29.500
  24617228.445      697867.543      523197.469    24617226.093       -3712.383
        43.000          29.500
  23000715.736     -147506.688     -116491.793    23000713.507         730.674
        45.250          30.500
  21801106.500     -512379.551     -381976.301    21801103.255        2303.696
        45.000          30.500
  20924082.650     -156476.031     -122659.461    20924078.076         813.550
        46.500          32.750
  24106400.946     -738664.168     -550015.863    24106397.483        3366.431
        45.000          29.000
  22356499.866     -278197.512     -209008.762    22356498.058        1206.104
        46.500          29.500
  24969250.453      755966.500      569505.332    24969249.804       -3642.334
        38.750          20.000
  7  3 30 18  4  1.0000000  0 11 24  7  6 29 10 16 18 21 22 26 30
  21415736.518      315396.652      233292.934    21415734.471       -1517.866
        48.250          33.000
  20424070.581      129046.500       93010.852    20424067.847        -680.933
        45.500          32.500
  20914169.026      343409.508      254613.629    20914166.761       -1684.121
        45.000          31.750
  22888672.499         819.434       -3688.832    22888669.364         -62.070
        47.500          30.000
  24617934.747      701579.777      526090.109    24617932.665       -3712.163
        43.250          28.750
  23000576.854     -148237.078     -117060.934    23000574.324         730.117
        45.000          30.750
  21800668.249     -514683.191     -383771.348    21800664.364        2303.555
        45.500          30.750
  20923927.396     -157289.547     -123293.371    20923923.096         813.545
        46.500          32.500
  24105760.738     -742030.645     -552639.082    24105756.923        3366.445
        45.250          28.750
  22356269.827     -279403.414     -209948.418    22356268.435        1205.610
        46.750          29.250
  24969944.220      759608.809      572343.492    24969942.812       -3642.300
        38.250          19.250
  7  3 30 18  4  2.0000000  0 11 24  7  6 29 10 16 18 21 22 26 30
  21416025.494      316914.551      234475.707    21416023.572       -1517.915
        48.500          33.000
  20424199.600      129727.531       93541.527    20424197.255        -681.138
        46.000          31.750
  20914489.585      345093.926      255926.160    20914487.512       -1684.429
        44.500          31.750
  22888684.420         881.781       -3640.258    22888681.798         -62.539
        47.000          30.000
  24618641.408      705291.977      528982.738    24618638.975       -3712.178
        43.000          27.250
  23000437.966     -148967.004     -117629.703    23000435.129         729.712
        45.000          30.500
  21800229.745     -516986.578     -385566.195    21800226.044        2303.311
        45.250          30.500
  20923772.989     -158102.973     -123927.207    20923768.442         813.467
        46.750          32.500
  24105119.638     -745397.094     -555262.289    24105115.835        3366.479
        45.500          29.250
  22356040.825     -280608.797     -210887.672    22356039.081        1205.132
        47.000          29.000
  24970636.416      763250.871      575181.457    24970635.810       -3641.909
        37.250          19.500
  7  3 30 18  4  3.0000000  0 11 24  7  6 29 10 16 18 21 22 26 30
  21416314.306      318432.500      235658.523    21416312.014       -1518.018
        48.750          33.000
  20424329.842      130409.016       94072.551    20424326.961        -681.797
        45.500          32.250
  20914810.111      346778.777      257239.016    20914807.961       -1685.132
        44.500          33.000
  22888695.679         944.676       -3591.254    22888693.386         -63.203
        47.250          29.750
  24619347.671      709004.113      531875.305    24619345.220       -3712.114
        42.750          28.000
  23000299.015     -149696.422     -118198.082    23000296.713         729.072
        45.500          30.250
  21799791.300     -519289.645     -387360.797    21799787.933        2302.925
        45.000          30.500
  20923617.766     -158916.266     -124560.949    20923613.579         813.193
        46.500          33.500
  24104479.169     -748763.453     -557885.426    24104475.359        3366.240
        45.000          29.500
  22355811.780     -281813.582     -211826.465    22355810.124        1204.507
        46.750          29.250
  24971329.675      766892.723      578019.266    24971328.934       -3641.855
        38.000          20.000
  7  3 30 18  4  4.0000000  0 11 24  7  6 29 10 16 18 21 22 26 30
  21416603.324      319950.598      236841.457    21416600.889       -1518.081
        48.750          32.750
  20424459.564      131090.973       94603.949    20424456.618        -682.231
        46.000          32.500
  20915131.047      348464.043      258552.211    20915128.702       -1685.405
        44.500          32.750
  22888707.734        1008.164       -3541.781    22888705.466         -63.696
        47.000          29.750
  24620054.044      712716.297      534767.918    24620051.397       -3712.055
        42.500          28.000
  23000160.943     -150425.258     -118766.008    23000157.818         728.613
        45.500          30.000
  21799353.004     -521592.336     -389155.102    21799349.666        2302.588
        44.750          30.000
  20923462.810     -159729.379     -125194.539    20923459.121         813.091
        47.000          33.750
  24103838.896     -752129.668     -560508.453    24103834.912        3366.147
        44.750          28.750
  22355582.989     -283017.742     -212764.781    22355580.546        1203.867
        47.000          29.250
  24972022.711      770534.434      580856.961    24972021.622       -3641.504
        38.250          20.000
  7  3 30 18  4  5.0000000  0 11 24  7  6 29 10 16 18 21 22 26 30
  21416892.179      321468.742      238024.422    21416889.832       -1518.145
        49.000          32.750
  20424588.763      131773.332       95135.656    20424586.750        -682.515
        45.750          32.750
  20915451.549      350149.652      259865.680    20915449.461       -1685.815
        44.750          32.000
  22888720.523        1072.188       -3491.895    22888717.614         -64.341
        47.000          29.750
  24620759.810      716428.445      537660.492    24620757.674       -3712.114
        42.500          28.000
  23000022.435     -151153.598     -119333.543    23000019.582         728.032
        46.000          30.250
  21798914.600     -523894.742     -390949.188    21798911.536        2302.207
        44.750          30.250
  20923308.507     -160542.375     -125828.043    20923304.196         812.886
        46.500          33.500
  24103198.150     -755495.855     -563131.457    24103194.352        3366.143
        44.500          29.500
  22355353.461     -284221.336     -213702.641    22355351.526        1203.203
        47.250          29.250
  24972715.659      774175.926      583694.461    24972714.649       -3641.314
        38.250          20.000
  7  3 30 18  4  6.0000000  0 11 24  7  6 29 10 16 18 21 22 26 30
  21417181.302      322986.871      239207.379    21417178.840       -1518.120
        49.000          33.250
  20424718.792      132456.078       95667.672    20424716.683        -682.974
        45.750          32.500
  20915772.706      351835.602      261179.402    20915770.325       -1686.206
        45.000          32.000
  22888732.352        1136.688       -3441.637    22888730.288         -64.775
        47.000          30.250
  24621466.597      720140.492      540552.992    24621464.602       -3712.026
        42.750          27.750
  22999883.691     -151881.492     -119900.738    22999880.808         727.700
        46.500          30.250
  21798476.953     -526196.934     -392743.094    21798473.437        2302.041
        45.250          30.000
  20923153.428     -161355.324     -126461.508    20923149.624         812.852
        46.500          33.000
  24102557.486     -758861.988     -565754.414    24102553.919        3366.040
        45.000          29.250
  22355124.409     -285424.430     -214640.113    22355122.357        1202.856
        46.750          29.000
  24973408.547      777817.156      586531.785    24973407.571       -3641.167
        38.500          20.000
  7  3 30 18  4  7.0000000  0 11 24  7  6 29 10 16 18 21 22 26 30
  21417470.129      324505.215      240390.508    21417467.653       -1518.418
        49.250          33.000
  20424848.696      133139.332       96200.074    20424846.564        -683.589
        45.500          32.250
  20916093.401      353522.051      262493.516    20916091.141       -1686.709
        45.250          31.750
  22888744.584        1201.863       -3390.855    22888742.557         -65.518
        46.750          30.000
  24622173.012      723852.645      543445.574    24622171.169       -3712.241
        43.250          27.250
  22999745.761     -152608.750     -120467.422    22999742.505         726.865
        46.250          30.000
  21798038.903     -528498.652     -394536.641    21798035.510        2301.465
        45.250          30.000
  20922999.350     -162168.012     -127094.773    20922994.786         812.539
        46.500          33.500
  24101917.332     -762227.922     -568377.207    24101913.352        3365.791
        44.500          29.250
  22354895.810     -286626.793     -215577.023    22354893.809        1201.987
        46.500          28.750
  24974101.757      781458.313      589369.023    24974100.561       -3641.128
        38.000          20.000
  7  3 30 18  4  8.0000000  0 11 24  7  6 29 10 16 18 21 22 26 30
  21417759.269      326023.750      241573.785    21417756.543       -1518.750
        49.250          32.750
  20424979.408      133823.160       96732.922    20424976.342        -684.092
        45.500          32.250
  20916414.734      355208.992      263808.020    20916412.595       -1687.217
        45.000          31.750
  22888757.299        1267.691       -3339.559    22888755.026         -66.147
        47.000          30.000
  24622879.445      727564.887      546338.230    24622877.599       -3712.314
        43.000          27.500
  22999606.845     -153335.363     -121033.613    22999604.098         726.191
        46.250          30.000
  21797601.243     -530799.973     -396329.879    21797597.612        2301.050
        45.250          30.500
  20922844.626     -162980.441     -127727.840    20922840.068         812.231
        46.750          33.000
  24101276.525     -765593.684     -570999.879    24101272.821        3365.698
        44.250          28.500
  22354666.853     -287828.457     -216513.379    22354664.967        1201.284
        47.000          29.000
  24974794.820      785099.414      592206.223    24974793.640       -3640.962
        38.500          20.000
  7  3 30 18  4  9.0000000  0 11 24  7  6 29 10 16 18 21 22 26 30
  21418048.473      327542.438      242757.172    21418045.823       -1518.721
        49.250          33.250
  20425109.399      134507.480       97266.152    20425106.968        -684.438
        45.750          32.500
  20916735.557      356896.422      265122.891    20916733.740       -1687.617
        45.250          32.000
  22888769.464        1334.180       -3287.750    22888767.535         -66.709
        47.500          29.500
  24623586.015      731277.191      549230.934    24623583.789       -3712.285
        43.250          28.000
  22999468.564     -154061.375     -121599.348    22999466.293         725.742
        46.250          29.500
  21797163.095     -533100.867     -398122.773    21797159.409        2300.718
        45.000          30.250
  20922689.915     -163792.660     -128360.738    20922685.638         812.134
        46.750          33.500
  24100636.365     -768959.242     -573622.387    24100632.560        3365.566
        44.500          28.750
  22354438.326     -289029.473     -217449.238    22354436.173        1200.703
        47.000          29.500
  24975487.480      788740.406      595043.363    24975486.684       -3640.810
        38.750          20.500
  7  3 30 18  4 10.0000000  0 11 24  7  6 29 10 16 18 21 22 26 30
  21418337.088      329061.281      243940.684    21418334.813       -1518.931
        49.500          33.250
  20425239.722      135192.352       97799.820    20425237.148        -685.156
        46.000          32.000
  20917056.364      358584.289      266438.117    20917054.379       -1687.993
        45.500          31.500
  22888782.848        1401.324       -3235.422    22888780.172         -67.393
        47.500          29.250
  24624292.651      734989.594      552123.723    24624290.469       -3712.393
        43.250          27.500
  22999330.321     -154786.766     -122164.582    22999327.645         725.039
        46.250          29.000
  21796725.284     -535401.340     -399915.355    21796722.249        2300.254
        44.750          30.000
  20922535.833     -164604.664     -128993.469    20922530.995         811.948
        47.000          33.500
  24099995.552     -772324.648     -576244.777    24099992.331        3365.425
        45.000          28.250
  22354210.085     -290229.785     -218384.555    22354207.887        1199.951
        47.000          29.750
  24976180.459      792381.270      597880.406    24976179.810       -3640.820
        39.000          20.500
  7  3 30 18  4 11.0000000  0 11 24  7  6 29 10 16 18 21 22 26 30
  21418626.102      330580.270      245124.309    21418623.570       -1519.014
        49.250          33.500
  20425370.221      135877.684       98333.840    20425367.580        -685.552
        45.750          31.500
  20917377.971      360272.648      267753.715    20917376.119       -1688.594
        45.000          31.250
  22888795.634        1469.063       -3182.645    22888793.225         -68.057
        47.500          29.500
  24624998.905      738702.012      555016.508    24624997.092       -3712.495
        43.500          27.000
  22999192.290     -155511.605     -122729.395    22999189.781         724.531
        46.000          30.000
  21796287.395     -537701.516     -401707.699    21796284.207        2300.039
        45.000          30.250
  20922380.504     -165416.473     -129626.051    20922376.541         811.704
        47.250          33.000
  24099355.779     -775689.875     -578867.031    24099351.736        3365.234
        45.000          28.500
  22353981.615     -291429.477     -219319.383    22353979.626        1199.409
        47.250          29.500
  24976873.376      796022.056      600717.332    24976872.728       -3640.620
        38.500          21.000
  7  3 30 18  4 12.0000000  0 11 24  7  6 29 10 16 18 21 22 26 30
  21418915.282      332099.355      246308.020    21418913.017       -1519.155
        49.000          32.500
  20425500.949      136563.473       98868.227    20425497.984        -686.011
        46.000          32.500
  20917699.509      361961.418      269069.645    20917697.522       -1688.940
        44.750          31.000
  22888808.441        1537.371       -3129.422    22888806.242         -68.564
        47.250          28.750
  24625705.168      742414.410      557909.285    24625703.691       -3712.329
        43.250          28.000
  22999054.803     -156235.898     -123293.781    22999052.022         724.067
        46.000          29.250
  21795849.728     -540001.289     -403499.723    21795846.614        2299.551
        45.750          30.750
  20922226.518     -166228.137     -130258.512    20922222.382         811.626
        47.750          33.000
  24098715.094     -779055.012     -581489.211    24098711.302        3365.117
        45.000          28.000
  22353754.033     -292628.566     -220253.738    22353751.431        1198.823
        46.750          29.500
  24977565.627      799662.555      603554.129    24977565.022       -3640.381
        38.250          21.000
  7  3 30 18  4 13.0000000  0 11 24  7  6 29 10 16 18 21 22 26 30
  21419204.330      333618.559      247491.809    21419201.829       -1519.141
        48.750          33.500
  20425631.208      137249.734       99402.977    20425628.467        -686.470
        46.000          32.500
  20918020.890      363650.664      270385.938    20918018.902       -1689.463
        45.000          32.000
  22888821.634        1606.309       -3075.703    22888819.441         -69.136
        47.500          29.250
  24626411.488      746126.883      560802.113    24626409.957       -3712.349
        43.250          28.000
  22998916.890     -156959.586     -123857.695    22998914.490         723.491
        45.750          30.000
  21795412.073     -542300.703     -405291.477    21795409.218        2299.351
        45.250          30.250
  20922072.076     -167039.559     -130890.793    20922067.811         811.421
        47.250          33.000
  24098074.699     -782419.980     -584111.266    24098071.060        3364.902
        45.250          29.000
  22353525.941     -293827.012     -221187.598    22353523.525        1198.164
        47.000          29.500
  24978257.682      803302.992      606390.816    24978258.125       -3640.259
        38.750          21.000
  7  3 30 18  4 14.0000000  0 11 24  7  6 29 10 16 18 21 22 26 30
  21419493.491      335137.789      248675.625    21419491.077       -1519.326
        49.000          33.500
  20425761.995      137936.363       99938.008    20425759.132        -686.768
        46.000          32.500
  20918342.076      365340.160      271702.422    20918340.299       -1689.673
        45.000          32.250
  22888835.190        1675.715       -3021.617    22888832.442         -69.707
        48.000          29.500
  24627117.910      749839.234      563694.840    24627116.456       -3712.354
        43.250          27.500
  22998779.189     -157682.855     -124421.281    22998776.823         723.042
        46.250          30.750
  21794974.811     -544599.891     -407083.055    21794971.341        2299.043
        45.500          31.000
  20921917.649     -167850.965     -131523.059    20921913.743         811.294
        47.500          33.250
  24097433.977     -785784.980     -586733.344    24097430.886        3364.986
        45.250          29.500
  22353297.848     -295024.934     -222121.039    22353295.571        1197.612
        47.000          30.250
  24978951.559      806943.145      609227.297    24978950.809       -3640.029
        39.250          20.500
  7  3 30 18  4 15.0000000  0 11 24  7  6 29 10 16 18 21 22 26 30
  21419782.603      336657.168      249859.555    21419780.098       -1519.580
        48.500          33.250
  20425892.695      138623.516      100473.441    20425890.296        -687.456
        45.750          33.000
  20918664.060      367030.152      273019.297    20918661.895       -1690.234
        45.500          32.000
  22888848.254        1745.766       -2967.031    22888845.811         -70.425
        48.250          29.250
  24627824.625      753551.664      566587.637    24627822.616       -3712.539
        43.250          27.500
  22998641.968     -158405.504     -124984.391    22998639.677         722.158
        46.500          31.250
  21794537.686     -546898.668     -408874.309    21794534.364        2298.540
        45.000          31.000
  20921763.262     -168662.133     -132155.137    20921759.246         810.981
        47.750          33.500
  24096794.684     -789149.750     -589355.242    24096791.032        3364.639
        45.250          29.000
  22353069.890     -296222.219     -223053.988    22353067.761        1196.880
        47.000          30.000
  24979644.270      810583.176      612063.691    24979643.250       -3639.892
        39.000          20.000
  7  3 30 18  4 16.0000000  0 11 24  7  6 29 10 16 18 21 22 26 30
  21420071.655      338176.711      251043.613    21420069.235       -1519.561
        48.500          33.250
  20426023.772      139311.168      101009.273    20426021.114        -687.817
        45.750          32.500
  20918985.635      368720.656      274336.570    20918983.599       -1690.630
        45.750          31.750
  22888861.951        1816.461       -2911.941    22888859.276         -70.908
        48.000          30.000
  24628530.843      757264.172      569480.492    24628529.368       -3712.334
        43.000          27.750
  22998504.404     -159127.555     -125547.031    22998501.904         721.855
        46.500          30.000
  21794100.410     -549197.031     -410665.246    21794096.674        2298.242
        45.500          31.000
  20921608.987     -169473.086     -132787.051    20921604.288         810.991
        47.750          33.750
  24096153.812     -792514.375     -591977.027    24096150.481        3364.580
        45.750          29.000
  22352842.443     -297418.793     -223986.387    22352839.818        1196.372
        47.000          29.750
  24980336.729      814223.121      614899.996    24980335.898       -3639.678
        39.250          20.500
  7  3 30 18  4 17.0000000  0 11 24  7  6 29 10 16 18 21 22 26 30
  21420360.962      339696.273      252227.684    21420358.114       -1519.614
        48.750          33.250
  20426154.449      139999.203      101545.398    20426151.559        -688.193
        46.250          32.750
  20919307.439      370411.453      275654.070    20919305.225       -1691.016
        45.500          32.000
  22888875.369        1887.672       -2856.461    22888873.162         -71.445
        47.750          30.000
  24629237.238      760976.594      572373.289    24629235.636       -3712.500
        43.250          28.250
  22998367.100     -159849.133     -126109.301    22998364.567         721.314
        46.750          30.500
  21793662.890     -551495.145     -412455.980    21793659.305        2297.983
        45.750          30.500
  20921454.434     -170283.965     -133418.906    20921450.473         810.859
        47.750          33.500
  24095513.507     -795878.984     -594598.797    24095509.733        3364.639
        45.500          29.250
  22352614.799     -298614.875     -224918.398    22352612.435        1195.869
        46.750          30.000
  24981028.967      817862.844      617736.137    24981028.766       -3639.600
        39.000          21.000
  7  3 30 18  4 18.0000000  0 11 24  7  6 29 10 16 18 21 22 26 30
  21420649.703      341215.832      253411.750    21420647.761       -1519.609
        48.500          33.500
  20426285.796      140687.590      102081.809    20426282.899        -688.545
        45.750          33.500
  20919629.489      372102.582      276971.840    20919627.401       -1691.274
        46.000          32.000
  22888888.689        1959.348       -2800.609    22888886.441         -71.953
        47.750          29.750
  24629943.666      764688.918      575266.012    24629941.879       -3712.393
        43.000          28.500
  22998230.173     -160570.266     -126671.223    22998227.550         720.923
        46.750          30.750
  21793225.580     -553793.023     -414246.535    21793221.745        2297.759
        45.250          31.250
  20921300.736     -171094.777     -134050.711    20921296.147         810.767
        48.000          33.500
  24094873.378     -799243.559     -597220.539    24094870.211        3364.658
        45.500          29.500
  22352387.076     -299810.418     -225849.988    22352384.706        1195.293
        46.750          30.000
  24981721.603      821502.254      620572.031    24981720.984       -3639.243
        39.000          21.000
  7  3 30 18  4 19.0000000  0 11 24  7  6 29 10 16 18 21 22 26 30
  21420938.924      342735.418      254595.848    21420936.665       -1519.624
        48.750          34.000
  20426416.428      141376.379      102618.535    20426413.791        -688.975
        45.750          33.500
  20919951.134      373794.051      278289.859    20919949.240       -1691.768
        46.000          32.500
  22888902.547        2031.551       -2744.348    22888900.072         -72.554
        48.000          30.000
  24630650.428      768401.180      578158.672    24630648.240       -3712.334
        43.250          28.000
  22998093.040     -161290.895     -127232.758    22998090.230         720.322
        46.750          31.000
  21792788.276     -556090.633     -416036.883    21792784.470        2297.427
        45.250          31.000
  20921146.216     -171905.504     -134682.445    20921141.835         810.601
        48.000          34.250
  24094233.101     -802608.090     -599842.254    24094229.791        3364.512
        45.250          29.500
  22352159.891     -301005.453     -226781.188    22352156.982        1194.668
        46.750          29.500
  24982414.326      825141.461      623407.766    24982413.439       -3639.082
        38.500          21.000
  7  3 30 18  4 20.0000000  0 11 24  7  6 29 10 16 18 21 22 26 30
  21421228.501      344255.066      255779.988    21421225.914       -1519.663
        48.750          33.500
  20426547.887      142065.551      103155.539    20426545.142        -689.419
        45.750          33.500
  20920272.934      375485.887      279608.164    20920271.130       -1692.031
        45.500          32.750
  22888916.497        2104.293       -2687.668    22888914.512         -73.047
        47.250          29.500
  24631356.664      772113.395      581051.297    24631354.842       -3712.197
        43.250          28.250
  22997955.832     -162011.051     -127793.918    22997953.367         719.839
        47.000          31.250
  21792350.976     -558387.938     -417826.992    21792347.347        2297.212
        45.000          31.000
  20920991.746     -172716.102     -135314.086    20920987.815         810.513
        47.500          34.250
  24093592.756     -805972.551     -602463.906    24093589.395        3364.370
        45.500          29.750
  22351932.640     -302199.875     -227711.902    22351930.004        1194.072
        46.750          30.500
  24983106.481      828780.402      626243.297    24983106.193       -3638.794
        38.750          21.000
  7  3 30 18  4 21.0000000  0 11 24  7  6 29 10 16 18 21 22 26 30
  21421517.883      345774.805      256964.195    21421514.940       -1519.736
        48.500          34.000
  20426678.742      142755.160      103692.898    20426676.623        -689.800
        46.000          33.500
  20920595.164      377178.121      280926.789    20920592.598       -1692.500
        46.000          32.500
  22888930.376        2177.609       -2630.547    22888928.044         -73.608
        47.500          29.250
  24632062.835      775825.625      583943.945    24632061.301       -3712.109
        43.250          27.750
  22997819.082     -162730.664     -128354.652    22997816.339         719.409
        46.750          31.000
  21791913.995     -560684.910     -419616.840    21791910.271        2296.807
        45.250          31.500
  20920837.377     -173526.570     -135945.621    20920833.412         810.381
        47.750          34.000
  24092952.773     -809336.891     -605085.469    24092949.392        3364.189
        45.500          30.500
  22351705.021     -303393.723     -228642.180    22351702.795        1193.618
        46.000          31.250
  24983798.825      832419.188      629078.691    24983798.376       -3638.701
        39.000          21.000
  7  3 30 18  4 22.0000000  0 11 24  7  6 29 10 16 18 21 22 26 30
  21421806.588      347294.668      258148.508    21421804.561       -1519.883
        48.250          33.500
  20426810.514      143445.277      104230.648    20426807.610        -690.361
        46.000          32.750
  20920916.962      378870.809      282245.770    20920914.842       -1692.827
        45.500          32.000
  22888944.260        2251.516       -2572.953    22888941.888         -74.243
        47.250          29.250
  24632769.658      779537.875      586836.609    24632767.789       -3712.246
        42.500          28.000
  22997682.042     -163449.695     -128914.941    22997679.512         718.682
        46.500          30.750
  21791476.790     -562981.512     -421406.398    21791473.228        2296.367
        45.500          31.000
  20920683.555     -174336.836     -136576.992    20920679.450         810.137
        47.750          33.500
  24092312.002     -812701.121     -607706.938    24092308.987        3364.150
        45.500          29.250
  22351477.803     -304586.926     -229571.949    22351475.662        1192.871
        46.000          30.500
  24984491.000      836057.844      631914.000    24984490.789       -3638.589
        39.250          21.250
  7  3 30 18  4 23.0000000  0 11 24  7  6 29 10 16 18 21 22 26 30
  21422095.825      348814.625      259332.891    21422093.723       -1519.956
        48.500          32.750
  20426942.076      144135.793      104768.723    20426939.005        -690.571
        46.250          32.750
  20921239.533      380563.875      283565.043    20921237.146       -1693.169
        45.750          31.500
  22888958.634        2325.977       -2514.930    22888956.393         -74.678
        47.000          29.000
  24633476.229      783250.117      589729.266    24633474.355       -3712.222
        43.000          28.250
  22997545.171     -164168.207     -129474.809    22997542.426         718.345
        46.500          30.250
  21791040.071     -565277.797     -423195.707    21791036.613        2296.147
        45.250          31.000
  20920529.424     -175146.969     -137208.258    20920524.913         810.103
        47.500          33.500
  24091672.559     -816065.246     -610328.328    24091668.820        3364.146
        45.000          29.000
  22351251.223     -305779.543     -230501.258    22351248.959        1192.368
        46.250          30.000
  24985183.872      839696.285      634749.148    24985183.132       -3638.164
        39.250          21.500
  7  3 30 18  4 24.0000000  0 11 24  7  6 29 10 16 18 21 22 26 30
  21422385.285      350334.539      260517.246    21422382.991       -1519.868
        48.250          33.000
  20427073.630      144826.656      105307.055    20427070.546        -691.079
        45.750          32.500
  20921561.744      382257.234      284884.547    20921559.437       -1693.491
        46.000          32.000
  22888973.310        2400.887       -2456.551    22888970.921         -75.083
        47.000          29.250
  24634181.949      786962.211      592621.793    24634180.662       -3712.007
        42.250          28.250
  22997408.271     -164886.297     -130034.367    22997406.062         717.886
        46.250          29.750
  21790603.186     -567573.875     -424984.855    21790599.577        2295.942
        45.250          30.500
  20920375.287     -175957.066     -137839.504    20920370.905         810.063
        47.250          33.250
  24091032.318     -819429.398     -612949.746    24091029.061        3364.248
        45.500          29.000
  22351024.630     -306971.668     -231430.184    22351021.967        1191.846
        46.500          29.500
  24985876.231      843334.469      637584.094    24985875.454       -3638.012
        39.000          21.000
  7  3 30 18  4 25.0000000  0 11 24  7  6 29 10 16 18 21 22 26 30
  21422674.428      351854.301      261701.473    21422672.184       -1519.678
        48.750          33.250
  20427204.871      145517.746      105845.566    20427201.864        -691.182
        45.750          32.750
  20921884.309      383950.766      286204.176    20921881.824       -1693.599
        45.750          31.750
  22888987.232        2476.133       -2397.918    22888984.885         -75.371
        47.250          29.750
  24634888.142      790674.094      595514.160    24634887.082       -3711.758
        43.000          28.000
  22997271.826     -165604.074     -130593.676    22997269.391         717.666
        46.250          29.500
  21790166.234     -569869.840     -426773.922    21790162.631        2295.967
        46.000          31.000
  20920221.007     -176767.242     -138470.809    20920216.882         810.244
        47.500          33.500
  24090391.671     -822793.637     -615571.230    24090388.692        3364.282
        46.000          29.000
  22350797.923     -308163.430     -232358.828    22350795.357        1191.548
        46.500          29.500
  24986568.657      846972.234      640418.707    24986567.651       -3637.627
        39.000          21.000
  7  3 30 18  4 26.0000000  0 11 24  7  6 29 10 16 18 21 22 26 30
  21422963.575      353374.008      262885.656    21422961.583       -1519.780
        49.000          32.750
  20427335.992      146209.086      106384.273    20427333.925        -691.572
        46.250          33.000
  20922205.965      385644.535      287523.992    20922204.037       -1693.960
        45.750          31.750
  22889001.616        2551.777       -2338.977    22888999.313         -75.957
        47.250          29.500
  24635595.093      794385.801      598406.398    24635593.297       -3711.733
        43.000          28.000
  22997135.174     -166321.488     -131152.707    22997132.870         717.144
        46.000          29.500
  21789730.014     -572165.648     -428562.867    21789726.038        2295.679
        45.750          31.250
  20920066.449     -177577.453     -139102.141    20920062.497         810.151
        47.500          33.500
  24089752.022     -826157.996     -618192.809    24089748.559        3364.321
        46.000          29.500
  22350570.904     -309354.762     -233287.137    22350568.560        1191.064
        46.750          29.750
  24987261.003      850609.629      643253.035    24987260.096       -3637.500
        38.500          21.000
  7  3 30 18  4 27.0000000  0 11 24  7  6 29 10 16 18 21 22 26 30
  21423252.730      354893.805      264069.910    21423250.789       -1519.907
        48.750          32.750
  20427467.656      146900.891      106923.344    20427465.166        -692.148
        45.500          32.500
  20922528.548      387338.727      288844.145    20922526.801       -1694.521
        45.750          31.250
  22889016.287        2628.000       -2279.586    22889013.634         -76.553
        46.750          30.000
  24636300.805      798097.523      601298.645    24636299.471       -3711.826
        43.000          26.750
  22996998.978     -167038.363     -131711.297    22996996.326         716.553
        46.000          30.250
  21789292.858     -574461.117     -430351.547    21789289.076        2295.220
        45.750          30.500
  20919911.929     -178387.488     -139733.344    20919908.310         809.873
        47.000          33.250
  24089111.197     -829522.207     -620814.254    24089108.096        3363.970
        45.000          29.000
  22350344.045     -310545.496     -234214.988    22350341.963        1190.273
        47.000          30.000
  24987952.838      854246.867      646087.238    24987952.293       -3637.285
        38.500          21.000
  7  3 30 18  4 28.0000000  0 11 24  7  6 29 10 16 18 21 22 26 30
  21423541.911      356413.797      265254.320    21423539.795       -1520.117
        48.750          33.000
  20427599.793      147593.242      107462.840    20427596.723        -692.651
        45.500          32.750
  20922850.762      389033.441      290164.699    20922849.055       -1695.015
        45.500          31.500
  22889031.077        2704.906       -2219.668    22889028.415         -77.222
        47.000          29.250
  24637007.726      801809.316      604190.941    24637005.875       -3711.924
        43.250          27.000
  22996863.008     -167754.570     -132269.387    22996860.223         715.835
        46.250          30.000
  21788855.643     -576756.129     -432139.871    21788851.879        2294.800
        45.750          31.500
  20919758.229     -179197.270     -140364.348    20919754.609         809.648
        47.000          33.500
  24088471.959     -832886.195     -623435.555    24088468.272        3363.823
        45.000          29.250
  22350117.369     -311735.508     -235142.277    22350115.630        1189.658
        47.000          29.750
  24988645.117      857884.031      648921.387    24988644.146       -3637.280
        39.250          21.000
  7  3 30 18  4 29.0000000  0 11 24  7  6 29 10 16 18 21 22 26 30
  21423830.710      357933.883      266438.805    21423829.159       -1519.995
        48.750          33.000
  20427731.424      148286.051      108002.676    20427728.490        -692.856
        45.500          33.000
  20923173.600      390728.512      291485.527    20923171.687       -1695.269
        46.000          31.500
  22889045.719        2782.367       -2159.305    22889043.141         -77.686
        47.000          29.750
  24637713.701      805521.113      607083.250    24637712.199       -3711.699
        43.500          27.750
  22996726.682     -168470.277     -132827.082    22996723.996         715.561
        46.250          30.000
  21788418.970     -579050.832     -433927.949    21788415.428        2294.556
        46.000          30.500
  20919604.565     -180006.898     -140995.234    20919600.309         809.727
        46.750          33.500
  24087831.488     -836250.102     -626056.789    24087828.117        3363.926
        45.500          29.250
  22349890.997     -312924.945     -236069.113    22349889.325        1189.287
        47.000          29.500
  24989336.745      861521.004      651755.395    24989336.441       -3636.870
        38.750          21.000
  7  3 30 18  4 30.0000000  0 11 24  7  6 29 10 16 18 21 22 26 30
  21424120.293      359453.980      267623.289    21424118.340       -1520.112
        48.500          33.250
  20427863.506      148979.207      108542.797    20427860.999        -693.364
        45.250          32.750
  20923496.447      392423.973      292806.664    20923493.918       -1695.713
        46.000          31.500
  22889060.316        2860.328       -2098.551    22889058.191         -78.247
        47.000          29.750
  24638420.632      809232.820      609975.484    24638418.306       -3711.694
        43.500          27.500
  22996590.708     -169185.508     -133384.406    22996587.965         714.971
        46.500          30.000
  21787982.996     -581345.277     -435715.828    21787979.192        2294.233
        45.500          30.750
  20919450.721     -180816.449     -141626.055    20919446.302         809.438
        46.500          33.750
  24087191.267     -839613.980     -628677.984    24087187.782        3363.706
        45.500          30.000
  22349665.029     -314113.836     -236995.520    22349663.324        1188.618
        46.750          30.000
  24990029.089      865157.746      654589.203    24990028.093       -3636.704
        39.250          21.000
  7  3 30 18  4 31.0000000  0 11 24  7  6 29 10 16 18 21 22 26 30
  21424409.753      360974.215      268807.883    21424407.466       -1520.161
        48.750          32.750
  20427995.594      149672.883      109083.320    20427993.244        -693.828
        44.750          32.750
  20923818.874      394119.813      294128.098    20923816.704       -1696.074
        46.000          31.500
  22889075.762        2938.914       -2037.313    22889072.727         -78.794
        47.250          29.500
  24639126.571      812944.566      612867.750    24639124.714       -3711.753
        43.750          27.250
  22996454.448     -169900.164     -133941.285    22996452.013         714.385
        46.250          29.500
  21787545.637     -583639.363     -437503.434    21787542.857        2293.936
        45.750          31.000
  20919296.632     -181625.824     -142256.734    20919292.326         809.380
        47.000          33.500
  24086551.179     -842977.742     -631299.090    24086547.513        3363.750
        45.250          30.000
  22349439.321     -315302.086     -237921.426    22349437.218        1188.057
        46.500          29.500
  24990721.115      868794.324      657422.887    24990720.423       -3636.436
        38.750          21.000
  7  3 30 18  4 32.0000000  0 11 24  7  6 29 10 16 18 21 22 26 30
  21424699.004      362494.355      269992.406    21424696.900       -1520.185
        48.250          33.250
  20428127.700      150366.797      109624.039    20428124.981        -694.038
        45.000          33.500
  20924141.724      395815.926      295449.738    20924139.798       -1696.304
        46.000          31.500
  22889090.575        3017.898       -1975.766    22889087.839         -79.248
        46.750          29.750
  24639833.185      816656.129      615759.875    24639830.911       -3711.490
        43.750          27.500
  22996318.626     -170614.453     -134497.883    22996315.959         713.945
        46.250          30.500
  21787109.425     -585933.270     -439290.883    21787106.017        2293.740
        45.500          30.750
  20919142.732     -182435.234     -142887.449    20919138.380         809.351
        47.250          34.000
  24085910.992     -846341.520     -633920.215    24085907.323        3363.711
        45.500          30.250
  22349212.890     -316489.902     -238846.996    22349210.744        1187.441
        46.250          30.250
  24991412.667      872430.602      660256.320    24991412.407       -3636.196
        38.750          21.000
  7  3 30 18  4 33.0000000  0 11 24  7  6 29 10 16 18 21 22 26 30
  21424988.444      364014.445      271176.883    21424986.618       -1520.044
        48.250          33.750
  20428259.925      151061.027      110164.992    20428256.775        -694.380
        45.500          34.500
  20924464.428      397512.273      296771.559    20924462.338       -1696.392
        46.000          32.250
  22889105.693        3097.293       -1913.906    22889102.638         -79.658
        47.000          30.750
  24640539.215      820367.547      618651.883    24640537.114       -3711.338
        43.500          29.000
  22996183.115     -171328.379     -135054.195    22996180.237         713.818
        46.000          31.750
  21786672.968     -588227.012     -441078.219    21786669.803        2293.691
        45.750          31.500
  20918988.957     -183244.629     -143518.148    20918984.101         809.424
        47.250          34.500
  24085270.740     -849705.379     -636541.410    24085267.376        3363.882
        45.250          30.750
  22348987.038     -317677.305     -239772.242    22348985.200        1187.148
        46.000          31.000
  24992104.437      876066.488      663089.488    24992104.421       -3635.796
        39.000          21.250
  7  3 30 18  4 34.0000000  0 11 24  7  6 29 10 16 18 21 22 26 30
  21425277.840      365534.438      272361.285    21425275.527       -1519.961
        48.250          34.500
  20428391.661      151755.488      110706.129    20428389.089        -694.668
        46.000          34.500
  20924787.450      399208.813      298093.535    20924785.186       -1696.607
        46.000          32.250
  22889120.308        3177.066       -1851.754    22889117.863         -79.985
        46.750          30.750
  24641245.732      824078.746      621543.727    24641243.508       -3711.094
        43.750          28.750
  22996047.179     -172041.945     -135610.223    22996044.783         713.364
        46.000          31.750
  21786236.189     -590520.625     -442865.453    21786233.189        2293.540
        45.750          32.000
  20918834.866     -184054.078     -144148.895    20918830.415         809.424
        47.250          34.500
  24084630.502     -853069.320     -639162.660    24084627.524        3363.955
        45.250          30.750
  22348761.583     -318864.270     -240697.156    22348759.043        1186.699
        46.000          30.500
  24992796.398      879702.004      665922.355    24992795.831       -3635.366
        39.250          21.500
  7  3 30 18  4 35.0000000  0 11 24  7  6 29 10 16 18 21 22 26 30
  21425567.334      367054.391      273545.676    21425564.566       -1520.059
        48.500          33.250
  20428523.667      152450.289      111247.531    20428521.120        -695.122
        46.250          33.250
  20925109.939      400905.660      299415.754    20925108.212       -1697.119
        46.500          31.500
  22889135.843        3257.289       -1789.234    22889133.263         -80.596
        46.500          29.250
  24641951.937      827789.832      624435.484    24641949.840       -3711.211
        43.250          27.750
  22995911.259     -172755.078     -136165.906    22995908.541         712.783
        46.250          30.250
  21785799.897     -592813.988     -444652.484    21785796.835        2293.086
        45.750          31.250
  20918680.412     -184863.488     -144779.602    20918675.995         809.233
        47.000          33.250
  24083990.540     -856433.273     -641783.914    24083986.865        3363.799
        45.750          28.750
  22348535.128     -320050.754     -241621.688    22348532.953        1186.025
        46.000          29.000
  24993488.990      883337.238      668755.023    24993488.156       -3635.132
        39.500          21.500
  7  3 30 18  4 36.0000000  0 11 24  7  6 29 10 16 18 21 22 26 30
  21425856.532      368574.590      274730.246    21425853.742       -1520.283
        48.500          32.750
  20428656.544      153145.688      111789.402    20428653.466        -695.762
        45.750          33.000
  20925433.014      402603.055      300738.406    20925431.150       -1697.656
        46.250          31.750
  22889151.570        3338.230       -1726.164    22889148.845         -81.250
        46.500          29.500
  24642657.820      831501.063      627327.352    24642655.655       -3711.314
        43.500          27.500
  22995775.579     -173467.555     -136721.078    22995772.983         712.202
        46.000          31.000
  21785363.898     -595106.875     -446439.145    21785360.229        2292.578
        46.000          31.000
  20918526.846     -185672.578     -145410.059    20918522.142         808.936
        46.750          33.250
  24083350.303     -859796.980     -644404.984    24083346.713        3363.594
        45.000          29.000
  22348309.915     -321236.457     -242545.617    22348307.997        1185.356
        46.250          29.500
  24994179.704      886972.445      671587.633    24994179.795       -3635.151
        38.750          21.750
  7  3 30 18  4 37.0000000  0 11 24  7  6 29 10 16 18 21 22 26 30
  21426146.089      370094.992      275914.977    21426143.249       -1520.508
        48.250          33.500
  20428788.670      153841.629      112331.699    20428785.992        -696.206
        46.000          33.000
  20925756.542      404300.965      302061.457    20925754.427       -1698.149
        46.000          31.250
  22889166.636        3419.887       -1662.531    22889163.956         -81.919
        46.250          29.000
  24643364.098      835212.410      630219.305    24643361.870       -3711.362
        43.750          27.500
  22995640.422     -174179.355     -137275.727    22995637.366         711.548
        46.000          30.500
  21784927.457     -597399.336     -448225.480    21784924.214        2292.241
        45.750          30.500
  20918372.757     -186481.430     -146040.328    20918367.994         808.896
        46.750          33.000
  24082710.250     -863160.445     -647025.855    24082707.106        3363.369
        44.750          28.000
  22348084.472     -322421.465     -243468.996    22348081.676        1184.653
        46.250          29.250
  24994872.089      890607.633      674420.223    24994871.245       -3635.269
        38.250          21.750
  7  3 30 18  4 38.0000000  0 11 24  7  6 29 10 16 18 21 22 26 30
  21426434.800      371615.367      277099.684    21426432.833       -1520.332
        48.750          32.750
  20428921.295      154537.895      112874.242    20428918.084        -696.333
        46.000          33.000
  20926080.070      405999.160      303384.715    20926077.615       -1698.296
        45.750          30.750
  22889182.506        3501.961       -1598.578    22889179.640         -82.295
        47.000          29.000
  24644070.313      838923.625      633111.168    24644067.981       -3711.108
        43.500          27.500
  22995505.067     -174890.746     -137830.055    22995502.088         711.245
        46.250          30.500
  21784491.608     -599691.602     -450011.664    21784487.857        2292.192
        45.500          30.750
  20918218.870     -187290.223     -146670.551    20918214.155         808.726
        47.250          32.750
  24082070.318     -866523.961     -649646.770    24082066.936        3363.535
        45.000          28.250
  22347859.016     -323606.020     -244392.023    22347856.582        1184.336
        46.500          29.500
  24995563.717      894242.465      677252.563    24995563.125       -3634.761
        39.000          21.250
  7  3 30 18  4 39.0000000  0 11 24  7  6 29 10 16 18 21 22 26 30
  21426724.114      373135.703      278284.355    21426721.712       -1520.361
        49.000          33.500
  20429054.118      155234.504      113417.059    20429050.898        -696.836
        46.500          33.000
  20926402.750      407697.652      304708.215    20926400.559       -1698.613
        46.250          31.250
  22889198.289        3584.469       -1534.289    22889195.496         -82.788
        47.250          30.000
  24644776.640      842634.711      636002.910    24644774.374       -3710.977
        44.000          27.250
  22995369.598     -175601.707     -138384.055    22995367.263         710.664
        46.500          30.750
  21784055.147     -601983.648     -451797.672    21784051.707        2291.929
        46.000          30.500
  20918064.858     -188099.008     -147300.781    20918060.082         808.667
        47.500          33.000
  24081430.330     -869887.461     -652267.688    24081426.778        3363.491
        45.250          29.500
  22347633.591     -324790.059     -245314.652    22347631.307        1183.711
        46.750          29.750
  24996255.650      897876.969      680084.633    24996254.942       -3634.316
        39.000          21.250
  7  3 30 18  4 40.0000000  0 11 24  7  6 29 10 16 18 21 22 26 30
  21427013.846      374656.051      279469.039    21427011.015       -1520.459
        49.250          33.000
  20429186.704      155931.445      113960.125    20429183.749        -697.104
        46.500          33.000
  20926726.336      409396.465      306031.965    20926723.869       -1699.102
        45.750          31.500
  22889214.071        3667.488       -1469.602    22889211.306         -83.276
        47.250          29.250
  24645483.260      846345.711      638894.602    24645480.931       -3710.987
        43.250          27.250
  22995234.724     -176312.270     -138937.742    22995231.726         710.303
        46.250          30.000
  21783619.283     -604275.434     -453583.484    21783615.333        2291.597
        46.000          31.000
  20917911.178     -188907.723     -147930.953    20917906.707         808.599
        47.750          33.250
  24080790.015     -873250.953     -654888.594    24080786.485        3363.432
        45.500          28.500
  22347408.851     -325973.609     -246236.895    22347405.866        1183.237
        47.250          29.000
  24996946.012      901511.277      682916.551    24996946.395       -3634.209
        39.500          21.000
  7  3 30 18  4 41.0000000  0 11 24  7  6 29 10 16 18 21 22 26 30
  21427302.911      376176.504      280653.816    21427300.319       -1520.571
        49.250          32.250
  20429319.220      156628.887      114503.582    20429316.418        -697.671
        46.500          32.750
  20927049.983      411095.656      307356.004    20927046.957       -1699.551
        45.750          31.500
  22889229.738        3751.094       -1404.453    22889227.319         -84.058
        47.000          29.000
  24646189.184      850056.699      641786.277    24646186.824       -3711.025
        43.000          26.500
  22995099.401     -177022.254     -139490.980    22995096.602         709.722
        45.750          29.250
  21783183.035     -606566.875     -455369.012    21783179.686        2291.240
        45.000          31.000
  20917756.971     -189716.270     -148560.992    20917752.730         808.286
        47.500          33.000
  24080149.841     -876614.328     -657509.395    24080146.471        3363.276
        45.000          28.750
  22347183.489     -327156.516     -247158.645    22347180.974        1182.529
        46.500          29.000
  24997638.217      905145.406      685748.336    24997638.043       -3634.155
        39.000          21.000
  7  3 30 18  4 42.0000000  0 11 24  7  6 29 10 16 18 21 22 26 30
  21427592.026      377697.105      281838.699    21427589.539       -1520.688
        49.000          32.500
  20429451.566      157326.820      115047.422    20429449.031        -698.164
        46.750          33.250
  20927373.164      412795.301      308680.402    20927371.077       -1699.731
        45.750          31.000
  22889246.676        3835.305       -1338.840    22889243.267         -84.517
        47.250          29.000
  24646895.422      853767.758      644678.012    24646892.989       -3711.147
        43.250          26.500
  22994964.510     -177731.625     -140043.746    22994961.728         709.150
        45.500          29.000
  21782747.232     -608857.949     -457154.270    21782743.750        2290.962
        45.500          31.000
  20917603.127     -190524.637     -149190.887    20917598.647         808.257
        48.000          33.000
  24079510.337     -879977.535     -660130.078    24079506.452        3363.232
        44.750          27.750
  22346958.449     -328338.793     -248079.910    22346955.639        1182.065
        46.500          27.750
  24998329.774      908779.383      688580.004    24998329.596       -3633.823
        39.500          20.500
  7  3 30 18  4 43.0000000  0 11 24  7  6 29 10 16 18 21 22 26 30
  21427881.835      379217.848      283023.691    21427878.990       -1520.733
        49.000          33.000
  20429585.025      158025.227      115591.641    20429582.224        -698.643
        46.000          32.750
  20927696.241      414495.469      310005.203    20927694.365       -1700.381
        45.500          31.250
  22889262.218        3920.168       -1272.711    22889259.402         -85.068
        47.750          29.500
  24647601.465      857478.855      647569.770    24647599.073       -3711.064
        43.500          26.500
  22994829.192     -178440.434     -140596.059    22994826.535         708.603
        45.500          30.000
  21782311.158     -611148.605     -458939.203    21782307.719        2290.464
        45.750          30.500
  20917449.476     -191332.777     -149820.605    20917445.301         808.096
        47.500          33.250
  24078870.468     -883340.563     -662750.613    24078866.783        3362.910
        45.250          29.250
  22346733.475     -329520.379     -249000.629    22346731.285        1181.289
        46.500          29.000
  24999021.193      912413.266      691411.582    24999020.658       -3633.843
        39.250          21.000
  7  3 30 18  4 44.0000000  0 11 24  7  6 29 10 16 18 21 22 26 30
  21428171.188      380738.742      284208.797    21428168.580       -1520.903
        49.000          33.250
  20429717.806      158724.148      116136.254    20429715.134        -699.116
        46.250          32.750
  20928019.446      416196.078      311330.355    20928017.912       -1700.850
        45.750          31.500
  22889278.220        4005.648       -1206.102    22889275.550         -85.708
        47.500          29.500
  24648307.742      861190.016      650461.586    24648305.534       -3711.089
        43.500          27.250
  22994694.708     -179148.629     -141147.902    22994692.119         707.900
        45.500          30.500
  21781875.735     -613438.879     -460723.836    21781871.804        2289.985
        45.250          31.000
  20917295.579     -192140.703     -150450.156    20917291.369         807.876
        47.750          33.750
  24078230.374     -886703.441     -665371.043    24078226.813        3362.695
        45.250          29.000
  22346508.764     -330701.297     -249920.824    22346506.150        1180.605
        47.000          29.750
  24999713.240      916047.035      694243.086    24999712.185       -3633.740
        39.250          21.250
  7  3 30 18  4 45.0000000  0 11 24  7  6 29 10 16 18 21 22 26 30
  21428460.101      382259.656      285393.918    21428458.011       -1520.908
        49.000          33.250
  20429850.518      159423.453      116681.160    20429847.952        -699.580
        46.000          33.250
  20928342.943      417897.023      312655.766    20928341.870       -1701.143
        45.750          31.750
  22889294.777        4091.633       -1139.102    22889291.999         -86.211
        48.000          30.000
  24649013.535      864901.102      653353.336    24649011.545       -3710.952
        42.500          27.250
  22994559.903     -179856.355     -141699.375    22994557.095         707.515
        45.250          29.750
  21781439.445     -615728.895     -462508.258    21781436.159        2289.746
        45.000          30.500
  20917142.021     -192948.559     -151079.656    20917137.368         807.856
        47.500          33.750
  24077590.885     -890066.313     -667991.453    24077586.975        3362.773
        45.250          29.000
  22346284.444     -331881.707     -250840.625    22346281.557        1180.083
        47.250          30.000
  25000404.628      919680.523      697074.359    25000404.327       -3633.359
        39.250          21.250
  7  3 30 18  4 46.0000000  0 11 24  7  6 29 10 16 18 21 22 26 30
  21428749.757      383780.496      286578.992    21428747.344       -1520.845
        48.750          33.000
  20429983.998      160123.031      117226.281    20429981.535        -699.839
        46.000          33.500
  20928666.931      419598.195      313981.359    20928664.613       -1701.313
        45.500          31.750
  22889310.952        4178.039       -1071.777    22889308.347         -86.665
        47.750          30.000
  24649720.580      868612.012      656244.953    24649717.399       -3710.884
        43.000          26.250
  22994424.955     -180563.719     -142250.559    22994422.473         707.109
        45.250          30.000
  21781003.928     -618018.766     -464292.574    21781000.189        2289.741
        45.000          31.000
  20916988.420     -193756.418     -151709.152    20916983.736         807.754
        47.250          33.750
  24076950.333     -893429.219     -670611.895    24076946.998        3362.823
        45.000          29.000
  22346059.826     -333061.656     -251760.063    22346056.424        1179.604
        47.000          28.750
  25001096.026      923313.672      699905.375    25001095.706       -3633.042
        39.250          21.250
  7  3 30 18  4 47.0000000  0 11 24  7  6 29 10 16 18 21 22 26 30
  21429039.127      385301.375      287764.098    21429036.873       -1520.942
        48.750          33.000
  20430117.223      160822.996      117771.715    20430113.849        -700.190
        46.250          33.250
  20928991.328      421299.727      315307.223    20928988.846       -1701.684
        45.750          31.750
  22889327.277        4264.945       -1004.059    22889324.698         -87.178
        48.000          29.500
  24650425.867      872322.859      659136.520    24650423.358       -3710.879
        43.000          26.000
  22994290.674     -181270.594     -142801.375    22994288.359         706.543
        45.500          30.500
  21780568.288     -620308.336     -466076.656    21780564.684        2289.419
        45.500          30.500
  20916834.465     -194564.180     -152338.578    20916830.279         807.661
        47.000          33.750
  24076310.417     -896792.098     -673232.320    24076306.901        3362.964
        45.750          28.500
  22345835.224     -334241.070     -252679.090    22345832.900        1179.136
        47.250          29.500
  25001786.862      926946.586      702736.211    25001786.429       -3632.764
        39.500          21.500
  7  3 30 18  4 48.0000000  0 11 24  7  6 29 10 16 18 21 22 26 30
  21429328.566      386822.215      288949.168    21429326.382       -1520.933
        48.500          33.000
  20430250.529      161523.313      118317.414    20430247.792        -700.557
        46.000          33.250
  20929314.872      423001.551      316633.313    20929312.599       -1702.095
        45.750          32.250
  22889344.152        4352.297        -935.980    22889341.564         -87.627
        47.250          29.250
  24651132.326      876033.582      662027.992    24651129.148       -3710.762
        43.250          26.750
  22994156.277     -181977.059     -143351.867    22994153.387         706.191
        45.500          30.000
  21780132.418     -622597.703     -467860.574    21780129.104        2289.199
        45.000          30.750
  20916680.532     -195371.930     -152967.988    20916676.569         807.651
        46.500          34.000
  24075670.436     -900154.945     -675852.711    24075667.071        3362.720
        45.750          28.750
  22345611.062     -335420.012     -253597.742    22345608.076        1178.545
        46.500          29.250
  25002478.099      930579.223      705566.859    25002477.962       -3632.515
        39.500          21.750
  7  3 30 18  4 49.0000000  0 11 24  7  6 29 10 16 18 21 22 26 30
  21429618.038      388343.094      290134.266    21429615.829       -1520.894
        48.750          33.250
  20430383.804      162223.984      118863.387    20430380.939        -700.850
        46.000          33.250
  20929638.850      424703.691      317959.656    20929636.725       -1702.300
        45.250          31.750
  22889361.163        4440.148        -867.523    22889358.396         -88.125
        47.250          29.500
  24651838.641      879744.199      664919.383    24651835.500       -3710.566
        43.250          26.250
  22994022.013     -182683.027     -143901.980    22994019.132         705.674
        45.250          30.500
  21779697.220     -624886.793     -469644.273    21779693.603        2289.048
        45.250          31.250
  20916526.609     -196179.590     -153597.336    20916522.761         807.715
        46.750          33.750
  24075030.981     -903517.781     -678473.105    24075027.414        3362.842
        46.000          29.000
  22345386.586     -336598.430     -254515.988    22345384.137        1178.120
        47.000          29.000
  25003169.235      934211.617      708397.297    25003169.125       -3632.300
        39.500          21.750
  7  3 30 18  4 50.0000000  0 11 24  7  6 29 10 16 18 21 22 26 30
  21429907.423      389863.957      291319.352    21429904.870       -1520.903
        49.000          33.250
  20430517.252      162925.016      119409.637    20430514.204        -701.138
        46.000          33.250
  20929963.053      426406.172      319286.262    20929960.589       -1702.656
        44.750          32.500
  22889377.843        4528.477        -798.699    22889374.746         -88.594
        47.250          29.000
  24652544.454      883454.781      667810.742    24652541.752       -3710.498
        43.250          26.000
  22993887.547     -183388.578     -144451.766    22993884.616         705.327
        45.500          30.250
  21779261.730     -627175.664     -471427.813    21779257.752        2288.755
        45.250          31.250
  20916373.224     -196987.184     -154226.633    20916369.145         807.563
        46.750          34.000
  24074390.789     -906880.602     -681093.484    24074387.122        3362.735
        44.750          28.750
  22345162.295     -337776.297     -255433.809    22345159.527        1177.583
        46.750          29.500
  25003860.319      937843.675      711227.492    25003860.245       -3632.012
        39.750          22.000
  7  3 30 18  4 51.0000000  0 11 24  7  6 29 10 16 18 21 22 26 30
  21430196.953      391384.879      292504.484    21430193.934       -1520.957
        49.500          32.750
  20430651.270      163626.457      119956.211    20430647.933        -701.743
        46.250          33.000
  20930287.154      428109.000      320613.141    20930284.391       -1703.130
        44.500          31.750
  22889395.108        4617.363        -729.445    22889392.217         -89.243
        47.250          29.000
  24653250.880      887165.277      670702.031    24653247.954       -3710.395
        43.000          26.500
  22993753.856     -184093.625     -145001.145    22993750.844         704.673
        45.750          29.250
  21778826.190     -629464.211     -473211.086    21778822.025        2288.369
        45.500          31.000
  20916219.462     -197794.641     -154855.828    20916215.275         807.373
        47.000          34.000
  24073750.705     -910243.348     -683713.809    24073746.910        3362.637
        45.000          29.000
  22344938.509     -338953.617     -256351.207    22344935.829        1176.904
        46.500          29.000
  25004551.243      941475.613      714057.523    25004551.566       -3631.694
        39.500          21.750
  7  3 30 18  4 52.0000000  0 11 24  7  6 29 10 16 18 21 22 26 30
  21430486.390      392905.852      293689.660    21430484.242       -1520.820
        49.000          32.500
  20430784.773      164328.285      120503.090    20430781.800        -701.831
        46.000          33.250
  20930611.379      429812.199      321940.313    20930608.573       -1703.198
        45.000          31.500
  22889411.951        4706.762        -659.781    22889409.083         -89.570
        47.500          28.750
  24653956.594      890875.738      673593.305    24653954.265       -3710.288
        43.500          25.000
  22993619.743     -184798.172     -145550.145    22993616.765         704.419
        45.500          30.000
  21778390.307     -631752.496     -474994.172    21778386.875        2288.306
        45.750          30.250
  20916065.643     -198602.020     -155484.949    20916061.764         807.417
        47.000          33.250
  24073111.248     -913606.039     -686334.078    24073107.645        3362.915
        45.500          28.750
  22344714.189     -340130.375     -257268.160    22344711.630        1176.636
        46.750          28.250
  25005242.331      945107.309      716887.398    25005242.187       -3631.470
        40.000          21.750
  7  3 30 18  4 53.0000000  0 11 24  7  6 29 10 16 18 21 22 26 30
  21430775.702      394426.672      294874.715    21430773.498       -1520.733
        49.250          32.000
  20430918.107      165030.352      121050.156    20430915.088        -702.134
        46.250          33.000
  20930935.397      431515.559      323267.594    20930932.925       -1703.525
        45.000          31.000
  22889428.947        4796.504        -589.852    22889426.242         -90.000
        47.500          28.250
  24654662.939      894585.949      676484.387    24654659.979       -3710.132
        43.000          25.000
  22993485.513     -185502.422     -146098.906    22993483.084         704.146
        45.500          29.750
  21777954.852     -634040.652     -476777.148    21777951.500        2288.086
        45.500          30.500
  20915912.375     -199409.469     -156114.133    20915907.762         807.480
        47.000          33.000
  24072471.047     -916968.832     -688954.426    24072467.718        3362.905
        45.750          28.500
  22344490.338     -341306.797     -258184.852    22344488.225        1176.348
        47.000          28.250
  25005933.327      948738.563      719716.949    25005933.547       -3631.152
        39.750          21.500
  7  3 30 18  4 54.0000000  0 11 24  7  6 29 10 16 18 21 22 26 30
  21431064.942      395947.520      296059.793    21431062.743       -1520.815
        48.750          32.000
  20431051.702      165732.730      121597.473    20431048.826        -702.554
        45.750          32.000
  20931259.462      433219.219      324595.121    20931256.978       -1703.877
        45.500          31.250
  22889445.993        4886.742        -519.539    22889443.110         -90.464
        47.500          28.000
  24655368.074      898296.090      679375.406    24655365.644       -3710.229
        42.500          25.000
  22993351.996     -186206.207     -146647.309    22993348.485         703.535
        46.000          30.000
  21777519.322     -636328.566     -478559.941    21777515.913        2287.749
        45.500          30.250
  20915758.578     -200216.875     -156743.273    20915754.352         807.422
        47.250          33.000
  24071831.266     -920331.625     -691574.777    24071827.690        3362.720
        45.500          28.000
  22344266.841     -342482.637     -259101.094    22344263.976        1175.610
        47.000          28.250
  25006624.674      952369.543      722546.277    25006624.281       -3630.850
        39.750          21.500
  7  3 30 18  4 55.0000000  0 11 24  7  6 29 10 16 18 21 22 26 30
  21431354.483      397468.402      297244.895    21431352.097       -1520.908
        49.000          31.500
  20431185.383      166435.543      122145.113    20431182.512        -703.052
        46.000          32.000
  20931583.853      434923.270      325922.953    20931581.160       -1704.268
        45.750          30.500
  22889463.270        4977.520        -448.805    22889460.183         -91.050
        47.000          28.250
  24656074.285      902006.137      682266.352    24656071.691       -3710.025
        43.000          23.000
  22993217.830     -186909.523     -147195.348    22993215.151         703.081
        46.500          29.500
  21777084.248     -638616.207     -480342.520    21777080.805        2287.529
        46.000          30.000
  20915605.073     -201024.133     -157372.309    20915601.035         807.168
        46.750          32.500
  24071191.442     -923694.332     -694195.063    24071187.639        3362.671
        45.500          28.250
  22344042.908     -343657.949     -260016.914    22344040.311        1175.010
        46.500          27.000
  25007315.420      956000.332      725375.469    25007315.171       -3630.820
        39.500          21.250
  7  3 30 18  4 56.0000000  0 11 24  7  6 29 10 16 18 21 22 26 30
  21431643.716      398989.348      298430.051    21431641.653       -1521.025
        49.250          31.750
  20431319.421      167138.781      122693.086    20431316.704        -703.521
        46.000          32.250
  20931907.990      436627.691      327251.070    20931905.846       -1704.600
        45.250          30.500
  22889480.786        5068.863        -377.633    22889478.140         -91.611
        47.000          28.000
  24656780.882      905716.176      685157.289    24656777.904       -3709.941
        43.250          24.000
  22993084.011     -187612.309     -147742.980    22993081.277         702.593
        46.750          29.500
  21776649.033     -640903.523     -482124.840    21776645.542        2287.109
        45.500          29.500
  20915451.540     -201831.309     -158001.277    20915447.011         807.183
        46.500          33.000
  24070551.083     -927056.984     -696815.316    24070547.819        3362.573
        45.500          29.000
  22343819.613     -344832.711     -260932.320    22343816.770        1174.487
        46.750          28.000
  25008006.106      959630.875      728204.457    25008006.349       -3630.420
        39.500          21.250
  7  3 30 18  4 57.0000000  0 11 24  7  6 29 10 16 18 21 22 26 30
  21431933.119      400510.375      299615.266    21431931.357       -1521.069
        49.000          32.000
  20431453.440      167842.441      123241.395    20431450.230        -703.843
        46.000          32.250
  20932232.598      438332.523      328579.516    20932230.320       -1705.068
        45.500          30.750
  22889498.357        5160.730        -306.047    22889495.600         -92.104
        47.000          28.500
  24657486.693      909426.184      688048.199    24657484.000       -3709.873
        43.000          25.000
  22992950.506     -188314.570     -148290.203    22992947.817         702.031
        46.750          28.750
  21776213.871     -643190.512     -483906.910    21776210.575        2286.753
        45.750          29.750
  20915298.002     -202638.328     -158630.133    20915293.691         807.021
        46.500          33.000
  24069911.759     -930419.520     -699435.477    24069907.551        3362.524
        45.750          29.000
  22343596.269     -346006.852     -261847.238    22343593.184        1173.872
        46.000          28.500
  25008697.412      963261.266      731033.320    25008697.160       -3630.356
        40.000          21.500
  7  3 30 18  4 58.0000000  0 11 24  7  6 29 10 16 18 21 22 26 30
  21432222.748      402031.336      300800.430    21432220.475       -1520.967
        48.750          32.500
  20431586.946      168546.406      123789.938    20431584.412        -703.999
        45.500          32.750
  20932557.064      440037.559      329908.109    20932554.531       -1705.288
        45.500          31.250
  22889515.636        5253.023        -234.137    22889513.376         -92.568
        46.750          29.250
  24658192.446      913136.047      690938.992    24658189.610       -3709.834
        43.000          25.000
  22992817.059     -189016.449     -148837.121    22992813.935         701.621
        46.500          30.000
  21775778.575     -645477.336     -485688.852    21775775.050        2286.572
        45.750          30.500
  20915144.613     -203445.348     -159258.977    20915140.168         806.948
        46.750          33.250
  24069271.922     -933782.117     -702055.691    24069267.963        3362.588
        46.000          28.000
  22343372.505     -347180.523     -262761.785    22343369.762        1173.413
        46.250          29.000
  25009388.282      966891.313      733861.918    25009387.655       -3629.951
        40.250          21.750
  7  3 30 18  4 59.0000000  0 11 24  7  6 29 10 16 18 21 22 26 30
  21432512.074      403552.332      301985.613    21432510.160       -1521.006
        48.500          32.750
  20431721.025      169250.785      124338.797    20431718.369        -704.639
        46.000          33.250
  20932881.557      441742.973      331236.992    20932879.588       -1705.718
        45.500          31.500
  22889533.130        5345.859        -161.797    22889530.469         -93.071
        46.750          29.250
  24658898.658      916845.887      693829.773    24658895.772       -3709.819
        43.000          26.500
  22992683.283     -189717.820     -149383.648    22992680.297         701.123
        46.250          30.750
  21775343.425     -647763.855     -487470.563    21775339.779        2286.270
        45.750          31.250
  20914990.871     -204252.246     -159887.734    20914987.104         806.816
        47.250          33.750
  24068631.641     -937144.637     -704675.840    24068628.148        3362.558
        45.750          28.750
  22343149.618     -348353.645     -263675.902    22343146.634        1172.837
        46.250          29.000
  25010078.445      970521.125      736690.324    25010078.478       -3629.741
        40.000          21.750
  7  3 30 18  5  0.0000000  0 11 24  7  6 29 10 16 18 21 22 26 30
  21432801.470      405073.359      303170.828    21432799.430       -1521.016
        48.500          32.500
  20431855.052      169955.488      124887.918    20431852.392        -704.927
        46.000          33.250
  20933205.777      443448.711      332566.145    20933204.271       -1705.864
        45.500          31.500
  22889551.178        5439.176         -89.078    22889548.647         -93.589
        47.250          29.250
  24659604.423      920555.609      696720.461    24659601.905       -3709.624
        43.000          25.500
  22992550.453     -190418.754     -149929.832    22992547.094         700.688
        46.500          30.000
  21774908.454     -650050.160     -489252.098    21774905.253        2286.226
        45.500          31.250
  20914836.892     -205059.094     -160516.453    20914833.287         806.729
        47.750          34.000
  24067992.022     -940507.152     -707295.973    24067988.269        3362.568
        45.500          29.000
  22342926.196     -349526.223     -264589.602    22342923.718        1172.202
        46.250          29.000
  25010770.059      974150.648      739518.508    25010769.097       -3629.263
        39.500          21.750
  7  3 30 18  5  1.0000000  0 11 24  7  6 29 10 16 18 21 22 26 30
  21433091.014      406594.379      304356.035    21433088.983       -1521.143
        48.500          33.000
  20431989.533      170660.566      125437.324    20431986.869        -705.288
        46.000          33.500
  20933530.594      445154.773      333895.543    20933528.290       -1706.250
        45.500          30.500
  22889569.324        5532.969         -15.992    22889565.911         -94.053
        47.250          29.750
  24660310.663      924265.207      699611.059    24660307.800       -3709.570
        43.250          26.750
  22992417.036     -191119.238     -150475.668    22992414.228         700.205
        46.500          29.750
  21774473.498     -652336.188     -491033.414    21774469.927        2285.874
        45.500          31.000
  20914683.405     -205865.875     -161145.113    20914679.447         806.724
        47.500          34.000
  24067352.149     -943869.629     -709916.086    24067348.428        3362.437
        45.750          29.000
  22342703.328     -350698.297     -265502.906    22342700.675        1171.714
        46.250          29.250
  25011460.916      977779.938      742346.508    25011459.942       -3629.092
        39.500          21.750
  7  3 30 18  5  2.0000000  0 11 24  7  6 29 10 16 18 21 22 26 30
  21433380.236      408115.430      305541.262    21433378.337       -1521.074
        48.500          33.750
  20432123.901      171366.031      125987.031    20432121.159        -705.767
        46.250          33.750
  20933855.279      446861.188      335225.215    20933852.958       -1706.489
        45.500          31.250
  22889587.310        5627.289          57.496    22889584.363         -94.546
        47.500          29.000
  24661016.402      927974.766      702501.621    24661013.791       -3709.536
        43.500          27.000
  22992283.570     -191819.227     -151021.117    22992280.863         699.668
        47.000          30.500
  21774038.634     -654621.945     -492814.531    21774035.135        2285.625
        45.500          31.500
  20914530.124     -206672.574     -161773.711    20914526.078         806.611
        47.250          34.000
  24066711.801     -947232.078     -712536.168    24066708.774        3362.412
        46.000          29.000
  22342480.287     -351869.871     -266415.836    22342477.498        1171.265
        46.250          29.750
  25012150.738      981408.980      745174.332    25012149.996       -3628.906
        39.750          21.750
  7  3 30 18  5  3.0000000  0 11 24  7  6 29 10 16 18 21 22 26 30
  21433669.773      409636.426      306726.453    21433667.590       -1520.957
        48.750          32.500
  20432257.822      172071.785      126536.980    20432255.268        -705.879
        46.500          33.250
  20934179.900      448567.844      336555.074    20934177.607       -1706.685
        45.750          31.000
  22889604.982        5722.020         131.316    22889602.198         -94.941
        47.250          29.250
  24661722.411      931684.156      705392.059    24661719.500       -3709.331
        43.500          27.000
  22992150.408     -192518.844     -151566.273    22992147.879         699.443
        46.750          30.250
  21773604.429     -656907.539     -494595.508    21773600.084        2285.562
        45.500          31.250
  20914376.973     -207479.258     -162402.297    20914372.634         806.670
        47.000          33.500
  24066072.007     -950594.551     -715156.277    24066068.854        3362.500
        45.750          28.500
  22342257.165     -353040.938     -267328.359    22342254.628        1170.840
        46.250          28.500
  25012841.429      985037.695      748001.895    25012841.342       -3628.486
        39.500          21.750
  7  3 30 18  5  4.0000000  0 11 24  7  6 29 10 16 18 21 22 26 30
  21433959.773      411157.375      307911.609    21433957.594       -1520.938
        48.500          32.000
  20432391.751      172777.859      127087.168    20432389.197        -706.294
        46.500          32.750
  20934505.414      450274.777      337885.160    20934502.914       -1707.109
        45.750          31.500
  22889623.311        5817.234         205.512    22889620.713         -95.430
        47.250          29.000
  24662428.170      935393.410      708282.398    24662425.555       -3709.141
        43.500          26.500
  22992017.089     -193218.059     -152111.109    22992014.845         698.911
        46.500          29.500
  21773168.920     -659192.895     -496376.301    21773165.315        2285.259
        45.500          31.000
  20914223.331     -208285.910     -163030.859    20914219.149         806.582
        47.250          33.500
  24065432.322     -953957.055     -717776.398    24065428.836        3362.417
        45.750          28.500
  22342034.632     -354211.523     -268240.504    22342032.544        1170.322
        46.500          28.500
  25013531.760      988666.051      750829.180    25013531.344       -3628.125
        39.500          21.500
  7  3 30 18  5  5.0000000  0 11 24  7  6 29 10 16 18 21 22 26 30
  21434248.716      412678.457      309096.867    21434247.220       -1521.245
        48.000          32.000
  20432526.696      173484.441      127637.758    20432523.601        -706.831
        46.500          32.250
  20934830.343      451982.137      339215.570    20934827.838       -1707.578
        46.000          31.500
  22889641.371        5913.008         280.145    22889638.798         -96.118
        47.000          29.000
  24663133.872      939102.684      711172.742    24663131.580       -3709.307
        43.500          26.000
  22991884.055     -193916.676     -152655.484    22991881.459         698.286
        46.250          30.250
  21772734.016     -661477.895     -498156.820    21772730.129        2284.731
        46.000          31.000
  20914069.805     -209092.387     -163659.277    20914065.463         806.313
        47.250          32.750
  24064792.509     -957319.414     -720396.422    24064788.765        3362.173
        46.000          28.750
  22341812.126     -355381.492     -269152.168    22341810.055        1169.556
        46.250          29.250
  25014222.348      992294.293      753656.375    25014222.016       -3628.135
        39.500          21.000
  7  3 30 18  5  6.0000000  0 11 24  7  6 29 10 16 18 21 22 26 30
  21434537.835      414199.727      310282.270    21434536.335       -1521.226
        48.250          33.000
  20432661.806      174191.559      128188.750    20432658.247        -707.324
        46.500          33.000
  20935154.813      453690.008      340546.375    20935152.489       -1708.018
        46.250          31.750
  22889659.979        6009.480         355.320    22889656.752         -96.724
        47.000          30.000
  24663839.683      942812.082      714063.172    24663837.711       -3709.360
        42.500          26.250
  22991751.204     -194614.664     -153199.375    22991749.028         697.676
        46.250          30.750
  21772299.102     -663762.465     -499937.012    21772295.813        2284.414
        46.000          31.750
  20913916.642     -209898.598     -164287.500    20913911.982         806.084
        47.750          33.500
  24064153.020     -960681.543     -723016.270    24064148.878        3362.021
        46.000          29.500
  22341589.713     -356550.734     -270063.270    22341587.276        1168.989
        46.250          29.250
  25014912.330      995922.504      756483.535    25014912.152       -3628.154
        39.500          21.250
  7  3 30 18  5  7.0000000  0 11 24  7  6 29 10 16 18 21 22 26 30
  21434828.202      415721.188      311467.813    21434825.894       -1521.460
        48.500          33.500
  20432796.192      174899.207      128740.156    20432792.850        -707.935
        46.250          33.250
  20935480.200      455398.395      341877.582    20935477.611       -1708.525
        46.250          32.000
  22889678.162        6106.602         430.988    22889675.162         -97.354
        47.000          29.500
  24664545.367      946521.563      716953.672    24664543.625       -3709.233
        42.000          27.000
  22991618.813     -195312.039     -153742.789    22991616.109         697.202
        46.000          30.750
  21771864.638     -666046.598     -501716.859    21771861.134        2284.058
        46.250          32.250
  20913763.479     -210704.590     -164915.547    20913758.683         805.942
        47.500          34.250
  24063512.618     -964043.508     -725635.980    24063509.499        3361.934
        46.500          28.500
  22341367.201     -357719.309     -270973.844    22341364.825        1168.301
        46.250          29.500
  25015603.081      999550.551      759310.590    25015602.915       -3627.905
        39.500          21.250
  7  3 30 18  5  8.0000000  0 11 24  7  6 29 10 16 18 21 22 26 30
  21435117.268      417242.496      312653.250    21435115.273       -1521.059
        48.500          33.500
  20432930.412      175607.078      129291.746    20432927.812        -707.905
        46.500          33.250
  20935805.076      457106.930      343208.906    20935802.753       -1708.560
        46.000          32.000
  22889696.863        6204.059         506.930    22889693.486         -97.466
        47.000          30.250
  24665251.243      950230.793      719843.969    24665249.550       -3709.106
        42.250          26.250
  22991486.312     -196009.074     -154285.938    22991483.506         696.982
        46.000          30.500
  21771429.665     -668330.633     -503496.625    21771426.168        2284.004
        46.000          32.000
  20913609.472     -211510.664     -165543.656    20913605.764         806.230
        47.250          34.000
  24062873.275     -967405.566     -728255.766    24062869.354        3362.153
        46.500          29.500
  22341144.988     -358887.512     -271884.129    22341142.767        1168.008
        46.500          29.250
  25016293.275     1003178.238      762137.375    25016293.183       -3627.534
        39.250          21.000
  7  3 30 18  5  9.0000000  0 11 24  7  6 29 10 16 18 21 22 26 30
  21435406.671      418763.645      313838.555    21435404.600       -1521.108
        48.500          33.250
  20433064.976      176315.129      129843.473    20433062.381        -708.315
        45.750          33.250
  20936130.059      458815.629      344540.352    20936127.746       -1708.833
        45.500          31.500
  22889715.523        6301.875         583.145    22889712.080         -98.037
        47.250          30.250
  24665956.820      953939.734      722734.051    24665954.916       -3708.780
        42.000          26.500
  22991353.454     -196705.863     -154828.891    22991351.112         696.572
        46.250          29.750
  21770995.725     -670614.598     -505276.340    21770991.878        2283.809
        45.750          32.000
  20913456.596     -212316.848     -166171.852    20913452.067         806.245
        47.500          33.500
  24062233.226     -970767.785     -730875.672    24062229.703        3362.197
        46.500          29.750
  22340922.662     -360055.359     -272794.148    22340920.299        1167.686
        46.500          29.500
  25016983.048     1006805.453      764963.766    25016983.340       -3627.041
        39.000          21.000
  7  3 30 18  5 10.0000000  0 11 24  7  6 29 10 16 18 21 22 26 30
  21435696.205      420284.855      315023.918    21435693.915       -1521.206
        48.750          32.750
  20433200.288      177023.594      130395.523    20433197.461        -708.784
        46.500          33.250
  20936455.535      460524.672      345872.074    20936453.488       -1709.351
        45.750          31.500
  22889734.098        6400.199         659.762    22889730.784         -98.643
        47.500          28.750
  24666662.643      957648.668      725624.125    24666660.932       -3708.906
        42.500          27.000
  22991221.070     -197402.137     -155371.441    22991218.140         695.977
        46.250          29.750
  21770560.589     -672898.242     -507055.805    21770557.259        2283.335
        45.750          31.500
  20913303.201     -213122.883     -166799.930    20913298.372         805.947
        48.000          33.500
  24061593.562     -974129.910     -733495.508    24061589.783        3361.992
        46.500          29.000
  22340700.646     -361222.641     -273703.707    22340698.172        1166.895
        46.500          29.250
  25017673.354     1010432.469      767789.996    25017673.519       -3627.085
        39.500          21.000
  7  3 30 18  5 11.0000000  0 11 24  7  6 29 10 16 18 21 22 26 30
  21435985.976      421806.277      316209.445    21435983.678       -1521.646
        49.000          33.500
  20433335.331      177732.613      130948.004    20433332.318        -709.316
        46.500          33.250
  20936780.529      462234.242      347204.207    20936778.468       -1709.912
        45.750          31.500
  22889753.093        6499.219         736.918    22889749.746         -99.551
        47.500          29.750
  24667368.538      961357.695      728514.285    24667366.850       -3709.214
        42.000          27.000
  22991088.698     -198097.750     -155913.473    22991085.566         695.146
        46.500          30.000
  21770126.344     -675181.492     -508834.961    21770122.609        2282.920
        46.500          31.750
  20913149.258     -213928.672     -167427.820    20913145.464         805.562
        47.750          33.500
  24060953.760     -977491.844     -736115.191    24060950.001        3361.782
        46.250          29.250
  22340478.513     -362389.195     -274612.711    22340476.173        1166.060
        46.500          29.500
  25018363.692     1014059.379      770616.156    25018363.702       -3626.978
        39.500          20.500
  7  3 30 18  5 12.0000000  0 11 24  7  6 29 10 16 18 21 22 26 30
  21436275.812      423327.863      317395.090    21436273.311       -1521.699
        49.000          34.000
  20433470.173      178442.211      131500.934    20433467.546        -709.888
        46.500          33.250
  20937106.309      463944.348      348536.754    20937103.974       -1710.303
        45.750          31.000
  22889771.916        6598.902         814.590    22889768.679        -100.063
        47.500          31.250
  24668074.021      965066.820      731404.500    24668072.646       -3709.141
        42.500          26.750
  22990956.476     -198792.746     -156455.035    22990953.768         694.751
        46.000          30.500
  21769691.498     -677464.234     -510613.723    21769688.482        2282.534
        46.000          32.000
  20912996.091     -214734.230     -168055.527    20912992.122         805.464
        48.000          34.000
  24060314.157     -980853.543     -738734.695    24060310.369        3361.670
        46.000          29.500
  22340256.627     -363555.031     -275521.156    22340254.233        1165.479
        46.250          30.250
  25019053.817     1017686.273      773442.293    25019053.735       -3626.777
        39.000          20.500
  7  3 30 18  5 13.0000000  0 11 24  7  6 29 10 16 18 21 22 26 30
  21436565.006      424849.590      318580.852    21436562.890       -1521.733
        48.750          34.250
  20433605.450      179152.266      132054.223    20433602.381        -710.278
        46.750          34.000
  20937431.701      465654.871      349869.625    20937429.480       -1710.703
        45.500          31.500
  22889791.056        6699.188         892.734    22889788.142        -100.596
        47.500          30.500
  24668780.329      968775.969      734294.738    24668778.395       -3709.106
        42.000          27.000
  22990824.233     -199487.145     -156996.129    22990821.355         694.155
        46.250          30.500
  21769257.149     -679746.676     -512392.242    21769254.116        2282.280
        46.250          31.500
  20912842.620     -215539.574     -168683.070    20912838.605         805.386
        48.000          34.250
  24059674.579     -984215.102     -741354.094    24059671.030        3361.567
        45.750          29.500
  22340034.735     -364720.246     -276429.121    22340032.790        1164.990
        46.000          29.750
  25019744.057     1021312.961      776268.285    25019743.867       -3626.553
        39.500          20.500
  7  3 30 18  5 14.0000000  0 11 24  7  6 29 10 16 18 21 22 26 30
  21436854.660      426371.473      319766.734    21436852.300       -1521.948
        48.500          32.750
  20433740.694      179862.848      132607.926    20433737.442        -710.796
        47.000          33.000
  20937757.034      467365.836      351202.844    20937754.965       -1711.226
        45.500          31.000
  22889809.900        6800.102         971.371    22889807.385        -101.211
        47.500          30.250
  24669486.337      972485.160      737185.023    24669484.310       -3709.253
        41.750          26.250
  22990692.382     -200180.957     -157536.758    22990689.688         693.525
        46.500          29.500
  21768823.179     -682028.676     -514170.418    21768819.699        2281.738
        46.250          31.000
  20912689.845     -216344.715     -169310.453    20912685.419         805.083
        47.500          33.750
  24059034.937     -987576.484     -743973.355    24059031.058        3361.284
        46.000          29.500
  22339813.691     -365884.793     -277336.551    22339811.025        1164.253
        46.000          29.000
  25020434.340     1024939.570      779094.195    25020434.269       -3626.592
        39.250          20.500
  7  3 30 18  5 15.0000000  0 11 24  7  6 29 10 16 18 21 22 26 30
  21437144.500      427893.469      320952.699    21437142.070       -1521.943
        49.000          33.500
  20433876.041      180573.863      133161.957    20433873.045        -711.186
        47.000          33.500
  20938083.080      469077.262      352536.430    20938080.859       -1711.538
        45.500          31.500
  22889829.362        6901.621        1050.480    22889826.498        -101.768
        47.250          31.000
  24670192.026      976194.367      740075.309    24670189.821       -3709.170
        42.000          26.250
  22990560.119     -200874.203     -158076.945    22990557.613         692.983
        46.500          30.000
  21768389.447     -684310.332     -515948.336    21768385.757        2281.494
        46.000          32.000
  20912536.467     -217149.672     -169937.691    20912532.338         804.927
        48.000          34.000
  24058395.233     -990937.758     -746592.523    24058391.801        3361.181
        46.250          29.250
  22339591.833     -367048.691     -278243.484    22339589.700        1163.716
        46.250          29.500
  25021124.380     1028565.988      781919.961    25021124.592       -3626.377
        39.750          20.500
  7  3 30 18  5 16.0000000  0 11 24  7  6 29 10 16 18 21 22 26 30
  21437433.499      429415.492      322138.695    21437431.704       -1522.041
        48.750          34.000
  20434011.400      181285.297      133716.324    20434008.394        -711.631
        46.500          33.500
  20938408.949      470789.039      353870.277    20938406.562       -1711.914
        45.750          32.000
  22889848.485        7003.664        1129.996    22889845.846        -102.300
        47.000          30.500
  24670897.945      979903.539      742965.563    24670895.939       -3709.116
        42.000          26.750
  22990428.603     -201566.969     -158616.773    22990426.040         692.534
        46.000          30.000
  21767954.858     -686591.727     -517726.047    21767951.524        2281.245
        46.250          32.000
  20912383.308     -217954.527     -170564.852    20912379.184         804.795
        47.250          34.000
  24057755.552     -994298.977     -749211.656    24057751.802        3361.201
        46.000          29.750
  22339370.317     -368212.059     -279150.004    22339368.068        1163.135
        46.500          29.000
  25021814.241     1032192.184      784745.555    25021814.311       -3626.128
        39.500          20.500
  7  3 30 18  5 17.0000000  0 11 24  7  6 29 10 16 18 21 22 26 30
  21437723.451      430937.570      323324.730    21437721.185       -1522.241
        48.750          33.500
  20434146.573      181997.121      134270.988    20434144.050        -712.114
        47.000          33.500
  20938734.462      472501.152      355204.391    20938732.246       -1712.324
        46.000          31.250
  22889868.177        7106.207        1209.895    22889865.577        -102.808
        46.750          30.000
  24671603.948      983612.648      745855.773    24671601.589       -3709.136
        42.000          25.250
  22990296.959     -202259.242     -159156.203    22990294.242         691.943
        46.000          29.000
  21767520.879     -688872.820     -519503.520    21767517.470        2280.830
        46.000          31.500
  20912230.319     -218759.297     -171191.945    20912225.840         804.565
        46.500          33.500
  24057115.842     -997660.148     -751830.742    24057112.169        3361.181
        46.500          29.750
  22339149.433     -369374.855     -280056.078    22339147.152        1162.471
        46.500          28.500
  25022504.402     1035818.152      787570.980    25022504.092       -3625.888
        39.250          20.500
  7  3 30 18  5 18.0000000  0 11 24  7  6 29 10 16 18 21 22 26 30
  21438012.930      432459.723      324510.832    21438011.127       -1522.275
        48.500          33.500
  20434281.970      182709.359      134825.980    20434279.410        -712.397
        47.250          33.750
  20939060.282      474213.680      356538.824    20939057.901       -1712.734
        45.500          31.000
  22889887.917        7209.336        1290.250    22889885.544        -103.379
        46.750          29.500
  24672309.533      987321.719      748745.949    24672307.554       -3709.033
        41.000          25.750
  22990164.966     -202950.984     -159695.219    22990162.299         691.372
        45.750          30.000
  21767086.522     -691153.605     -521280.754    21767083.337        2280.557
        46.000          31.500
  20912077.064     -219563.910     -171818.914    20912072.980         804.595
        46.500          33.750
  24056476.297    -1001021.172     -754449.730    24056472.499        3361.055
        47.000          30.000
  22338927.788     -370537.031     -280961.668    22338925.391        1161.851
        46.250          28.500
  25023194.354     1039443.938      790396.266    25023194.241       -3625.684
        39.000          20.000
  7  3 30 18  5 19.0000000  0 11 24  7  6 29 10 16 18 21 22 26 30
  21438302.754      433981.934      325696.965    21438300.670       -1522.275
        49.000          32.750
  20434418.070      183422.051      135381.328    20434415.115        -712.759
        47.000          33.000
  20939386.298      475926.582      357873.551    20939384.030       -1712.905
        45.500          31.000
  22889907.667        7312.988        1371.020    22889905.138        -103.848
        46.750          30.000
  24673015.127      991030.738      751636.094    24673013.564       -3709.077
        41.000          24.750
  22990033.980     -203642.227     -160233.848    22990030.891         690.962
        45.750          29.250
  21766652.813     -693434.051     -523057.727    21766648.915        2280.332
        46.000          30.750
  20911923.578     -220368.410     -172445.793    20911919.693         804.482
        46.750          33.500
  24055836.829    -1004382.137     -757068.656    24055833.121        3360.962
        46.500          29.250
  22338707.100     -371698.648     -281866.828    22338704.821        1161.265
        46.250          28.000
  25023884.567     1043069.516      793221.402    25023883.832       -3625.415
        39.250          20.000
  7  3 30 18  5 20.0000000  0 11 24  7  6 29 10 16 18 21 22 26 30
  21438592.509      435504.160      326883.109    21438590.345       -1522.236
        49.000          33.500
  20434553.618      184135.078      135936.934    20434550.867        -713.208
        46.750          33.500
  20939711.885      477639.801      359208.527    20939709.990       -1713.335
        45.750          31.000
  22889927.637        7417.156        1452.188    22889924.534        -104.497
        47.000          30.000
  24673721.106      994739.711      754526.207    24673718.919       -3708.818
        41.250          25.500
  22989902.153     -204332.992     -160772.113    22989899.419         690.483
        46.000          30.500
  21766218.993     -695714.266     -524834.516    21766215.591        2279.951
        45.500          31.500
  20911771.108     -221172.844     -173072.633    20911766.487         804.492
        47.000          34.250
  24055197.358    -1007743.063     -759687.559    24055193.392        3360.898
        46.750          29.500
  22338486.171     -372859.750     -282771.582    22338483.694        1160.884
        46.750          29.500
  25024574.172     1046694.848      796046.336    25024573.694       -3625.308
        39.250          20.000
  7  3 30 18  5 21.0000000  0 11 24  7  6 29 10 16 18 21 22 26 30
  21438882.287      437026.453      328069.305    21438879.956       -1522.290
        48.750          34.250
  20434689.367      184848.543      136492.871    20434686.288        -713.726
        46.500          34.000
  20940038.452      479353.395      360543.797    20940036.005       -1713.745
        45.500          31.250
  22889947.565        7521.848        1533.770    22889945.005        -104.937
        46.750          29.500
  24674426.937      998448.602      757416.246    24674425.097       -3708.882
        41.000          26.000
  22989770.903     -205023.266     -161309.988    22989768.082         689.976
        46.250          30.000
  21765784.834     -697994.172     -526611.063    21765781.995        2279.771
        45.250          31.750
  20911617.800     -221977.137     -173699.355    20911613.771         804.302
        47.000          34.500
  24054557.577    -1011103.926     -762306.410    24054554.034        3360.815
        47.000          29.500
  22338265.651     -374020.254     -283675.879    22338262.772        1160.347
        46.750          29.750
  25025264.305     1050319.965      798871.078    25025263.676       -3625.049
        39.500          19.500
  7  3 30 18  5 22.0000000  0 11 24  7  6 29 10 16 18 21 22 26 30
  21439172.317      438548.813      329255.555    21439169.756       -1522.412
        49.000          33.750
  20434825.359      185562.414      137049.133    20434822.266        -714.063
        47.000          34.000
  20940364.564      481067.340      361879.344    20940361.894       -1714.151
        45.750          31.250
  22889967.391        7627.090        1615.777    22889965.020        -105.464
        47.000          29.750
  24675132.557     1002157.496      760306.273    24675130.868       -3708.979
        41.000          26.500
  22989639.440     -205713.031     -161847.473    22989636.842         689.531
        46.500          30.250
  21765350.834     -700273.789     -528387.398    21765348.037        2279.409
        45.750          32.500
  20911464.666     -222781.324     -174325.996    20911460.509         804.121
        47.250          34.500
  24053917.985    -1014464.719     -764925.199    24053914.355        3360.732
        47.250          30.250
  22338044.533     -375180.215     -284579.746    22338042.079        1159.663
        47.000          29.500
  25025954.567     1053944.809      801695.625    25025953.625       -3624.658
        39.500          20.000
  7  3 30 18  5 23.0000000  0 11 24  7  6 29 10 16 18 21 22 26 30
  21439461.619      440071.180      330441.824    21439459.131       -1522.295
        49.000          34.000
  20434960.634      186276.652      137605.680    20434958.331        -714.360
        47.250          33.500
  20940691.459      482781.656      363215.172    20940688.361       -1714.404
        46.000          31.250
  22889988.085        7732.867        1698.203    22889984.912        -105.967
        47.250          29.500
  24675838.464     1005866.305      763196.246    24675836.529       -3708.706
        41.000          26.500
  22989508.049     -206402.301     -162384.566    22989505.586         689.053
        46.250          29.750
  21764917.410     -702553.125     -530163.504    21764913.873        2279.360
        46.000          31.750
  20911311.638     -223585.414     -174952.563    20911307.432         804.116
        47.500          34.000
  24053278.525    -1017825.469     -767543.969    24053275.151        3360.752
        46.750          29.000
  22337823.830     -376339.602     -285483.160    22337821.697        1159.155
        47.000          29.250
  25026643.883     1057569.504      804520.047    25026643.473       -3624.570
        39.500          20.000
  7  3 30 18  5 24.0000000  0 11 24  7  6 29 10 16 18 21 22 26 30
  21439751.017      441593.355      331627.930    21439748.919       -1522.080
        49.000          33.250
  20435097.598      186991.094      138162.395    20435093.969        -714.546
        47.000          33.250
  20941016.463      484496.078      364551.074    20941014.792       -1714.556
        46.000          31.250
  22890007.545        7838.906        1780.824    22890005.353        -106.226
        47.000          30.000
  24676544.242     1009574.793      766085.977    24676542.344       -3708.311
        41.750          25.500
  22989376.970     -207091.344     -162921.477    22989374.372         688.911
        46.250          29.750
  21764483.974     -704832.410     -531939.570    21764480.443        2279.277
        45.750          30.750
  20911158.801     -224389.656     -175579.238    20911154.555         804.414
        47.500          33.500
  24052639.001    -1021186.375     -770162.855    24052635.344        3360.972
        46.250          29.250
  22337603.552     -377498.680     -286386.332    22337601.092        1158.921
        47.000          28.750
  25027333.310     1061193.648      807344.047    25027333.006       -3624.063
        39.250          20.000
  7  3 30 18  5 25.0000000  0 11 24  7  6 29 10 16 18 21 22 26 30
  21440040.834      443115.371      332813.930    21440038.379       -1522.124
        49.000          33.000
  20435233.230      187705.707      138719.234    20435230.038        -714.858
        46.500          32.750
  20941343.250      486210.648      365887.102    20941341.367       -1714.624
        45.750          31.250
  22890027.959        7945.273        1863.699    22890025.047        -106.680
        47.000          29.000
  24677249.696     1013283.055      768975.535    24677247.921       -3708.193
        41.750          25.500
  22989246.310     -207780.070     -163458.156    22989243.412         688.472
        46.000          30.000
  21764050.348     -707111.609     -533715.563    21764046.697        2279.141
        45.750          31.000
  20911005.857     -225193.961     -176205.969    20911001.326         804.292
        47.500          33.500
  24051999.217    -1024547.418     -772781.844    24051995.942        3360.981
        46.500          29.250
  22337382.787     -378657.398     -287289.234    22337380.369        1158.359
        47.000          28.750
  25028022.773     1064817.406      810167.758    25028022.776       -3623.721
        39.000          19.500
  7  3 30 18  5 26.0000000  0 11 24  7  6 29 10 16 18 21 22 26 30
  21440330.354      444637.375      333999.902    21440328.218       -1521.914
        49.000          32.750
  20435368.680      188420.680      139276.352    20435366.253        -715.093
        47.000          33.250
  20941669.959      487925.539      367223.383    20941666.979       -1715.127
        45.500          31.750
  22890047.842        8052.105        1946.949    22890045.228        -106.997
        47.250          29.250
  24677955.668     1016991.188      771864.984    24677953.151       -3708.056
        41.000          24.000
  22989115.286     -208468.379     -163994.500    22989112.521         688.203
        46.500          29.500
  21763616.622     -709390.547     -535491.352    21763613.152        2278.809
        45.500          30.750
  20910852.637     -225998.262     -176832.699    20910848.338         804.385
        48.000          33.500
  24051359.733    -1027908.484     -775400.855    24051356.395        3361.055
        45.750          29.000
  22337162.440     -379815.645     -288191.762    22337159.605        1158.042
        46.750          29.000
  25028712.481     1068440.906      812991.254    25028711.958       -3623.579
        39.250          19.500
  7  3 30 18  5 27.0000000  0 11 24  7  6 29 10 16 18 21 22 26 30
  21440620.001      446159.387      335185.875    21440617.666       -1521.953
        49.000          33.000
  20435505.172      189135.973      139833.719    20435502.413        -715.327
        47.000          33.500
  20941996.795      489640.723      368559.883    20941993.306       -1715.400
        45.750          31.500
  22890068.882        8159.418        2030.566    22890066.086        -107.510
        47.500          29.000
  24678661.143     1020699.211      774754.352    24678659.432       -3707.939
        41.250          25.500
  22988984.670     -209156.273     -164530.527    22988981.663         687.817
        46.500          29.250
  21763182.950     -711669.289     -537266.996    21763179.791        2278.711
        45.500          31.250
  20910699.474     -226802.480     -177459.367    20910695.358         804.297
        47.500          33.500
  24050720.198    -1031269.520     -778019.840    24050716.730        3361.050
        46.000          28.750
  22336942.094     -380973.332     -289093.859    22336939.285        1157.534
        47.250          29.250
  25029402.114     1072064.016      815814.438    25029401.690       -3622.930
        39.500          19.500
  7  3 30 18  5 28.0000000  0 11 24  7  6 29 10 16 18 21 22 26 30
  21440909.826      447681.301      336371.785    21440907.452       -1521.880
        48.250          33.000
  20435640.892      189851.555      140391.313    20435638.363        -715.806
        47.250          33.500
  20942323.043      491356.133      369896.566    20942319.898       -1715.640
        46.500          31.000
  22890089.181        8267.133        2114.496    22890086.808        -107.998
        47.250          29.500
  24679366.668     1024407.070      777643.590    24679364.384       -3707.793
        41.500          26.000
  22988853.390     -209843.766     -165066.234    22988851.093         687.368
        46.000          29.500
  21762749.012     -713947.848     -539042.508    21762746.155        2278.457
        45.500          32.000
  20910546.396     -227606.734     -178086.059    20910542.175         804.199
        47.500          34.000
  24050080.742    -1034630.609     -780638.871    24050076.907        3361.118
        46.000          29.000
  22336721.754     -382130.609     -289995.637    22336719.241        1156.982
        47.000          29.500
  25030091.247     1075686.844      818637.426    25030090.965       -3622.661
        39.500          20.000
  7  3 30 18  5 29.0000000  0 11 24  7  6 29 10 16 18 21 22 26 30
  21441199.405      449203.141      337557.633    21441197.156       -1521.729
        48.250          33.000
  20435777.780      190567.410      140949.121    20435774.542        -716.050
        47.250          33.500
  20942648.991      493071.793      371233.445    20942646.486       -1715.801
        46.250          31.250
  22890109.476        8375.250        2198.750    22890107.143        -108.325
        47.000          29.500
  24680072.113     1028114.754      780532.691    24680070.206       -3707.520
        41.000          27.250
  22988723.148     -210530.883     -165601.652    22988720.426         686.953
        46.000          29.500
  21762315.753     -716226.242     -540817.883    21762312.174        2278.364
        45.750          31.500
  20910393.418     -228411.012     -178712.766    20910389.470         804.394
        47.500          34.000
  24049440.868    -1037991.762     -783257.953    24049436.971        3361.196
        46.000          30.000
  22336501.976     -383287.445     -290897.070    22336499.033        1156.689
        46.500          29.500
  25030780.409     1079309.340      821460.125    25030780.295       -3622.295
        39.500          19.500
  7  3 30 18  5 30.0000000  0 11 24  7  6 29 10 16 18 21 22 26 30
  21441488.988      450724.918      338743.434    21441486.548       -1521.816
        48.500          33.000
  20435914.099      191283.543      141507.152    20435911.244        -716.230
        47.500          33.250
  20942975.432      494787.672      372570.488    20942972.917       -1716.089
        46.250          31.750
  22890129.713        8483.781        2283.320    22890127.516        -108.804
        47.250          29.750
  24680777.453     1031822.266      783421.652    24680776.050       -3707.603
        41.750          26.250
  22988592.520     -211217.641     -166136.793    22988589.504         686.509
        46.250          29.500
  21761882.189     -718504.449     -542593.105    21761878.530        2278.071
        45.500          31.750
  20910240.345     -229215.273     -179339.465    20910236.496         804.248
        47.250          34.000
  24048801.709    -1041352.984     -785877.078    24048797.741        3361.211
        46.500          30.000
  22336281.474     -384443.836     -291798.148    22336279.457        1156.152
        46.250          29.750
  25031470.144     1082931.453      824282.555    25031469.807       -3621.997
        39.500          19.500
  7  3 30 18  5 31.0000000  0 11 24  7  6 29 10 16 18 21 22 26 30
  21441778.444      452246.535      339929.105    21441776.035       -1521.582
        48.500          33.750
  20436050.284      191999.902      142065.352    20436047.654        -716.509
        47.000          33.500
  20943302.257      496503.742      373907.680    20943300.011       -1716.167
        46.250          31.500
  22890150.947        8592.648        2368.145    22890148.829        -109.048
        46.750          30.000
  24681483.040     1035529.523      786310.418    24681481.091       -3707.241
        41.750          26.000
  22988461.812     -211904.105     -166671.699    22988458.850         686.284
        46.500          29.500
  21761448.823     -720782.590     -544368.281    21761445.442        2278.140
        45.750          31.750
  20910087.403     -230019.652     -179966.254    20910082.977         804.365
        47.000          33.750
  24048162.065    -1044714.316     -788496.297    24048158.057        3361.362
        46.500          30.000
  22336061.499     -385599.832     -292698.926    22336059.208        1155.713
        46.250          29.750
  25032159.039     1086553.141      827104.652    25032158.750       -3621.426
        39.250          20.000
  7  3 30 18  5 32.0000000  0 11 24  7  6 29 10 16 18 21 22 26 30
  21442067.815      453768.188      341114.813    21442065.729       -1521.729
        48.500          33.500
  20436186.497      192716.629      142623.836    20436183.812        -716.968
        46.750          33.250
  20943629.053      498220.129      375245.125    20943626.421       -1716.602
        46.250          32.000
  22890171.999        8702.020        2453.371    22890169.218        -109.619
        46.750          30.250
  24682188.128     1039236.672      789199.102    24682186.614       -3706.973
        41.000          27.000
  22988331.524     -212590.074     -167206.223    22988328.158         685.625
        46.250          30.500
  21761014.898     -723060.434     -546143.223    21761011.635        2277.661
        45.750          32.000
  20909934.023     -230823.922     -180592.961    20909930.321         804.126
        47.250          34.250
  24047522.163    -1048075.598     -791115.477    24047518.463        3361.187
        46.500          29.250
  22335841.893     -386755.301     -293599.293    22335839.359        1155.127
        46.000          30.500
  25032848.349     1090174.605      829926.582    25032847.864       -3621.353
        39.250          20.000
  7  3 30 18  5 33.0000000  0 11 24  7  6 29 10 16 18 21 22 26 30
  21442357.456      455289.934      342300.582    21442355.137       -1521.748
        48.750          33.500
  20436322.917      193433.809      143182.676    20436320.435        -717.437
        47.000          33.500
  20943955.526      499936.934      376582.895    20943952.701       -1717.007
        46.500          31.750
  22890192.762        8811.961        2539.039    22890189.882        -110.225
        46.500          30.250
  24682894.302     1042943.855      792087.816    24682892.072       -3707.188
        41.500          26.750
  22988200.476     -213275.523     -167740.340    22988198.100         685.229
        46.000          30.750
  21760582.174     -725337.961     -547917.922    21760578.382        2277.466
        45.500          32.000
  20909781.181     -231628.066     -181219.574    20909777.023         804.077
        47.500          34.500
  24046882.920    -1051436.777     -793734.582    24046878.676        3361.133
        46.000          29.500
  22335621.955     -387910.176     -294499.191    22335619.699        1154.619
        46.000          29.750
  25033537.294     1093795.910      832748.359    25033537.119       -3621.309
        39.000          20.500
  7  3 30 18  5 34.0000000  0 11 24  7  6 29 10 16 18 21 22 26 30
  21442647.085      456811.738      343486.402    21442644.861       -1521.865
        48.750          33.500
  20436459.621      194151.398      143741.840    20436456.992        -717.725
        47.000          33.500
  20944282.702      501654.105      377920.945    20944279.750       -1717.363
        46.500          31.750
  22890213.579        8922.449        2625.129    22890211.004        -110.806
        46.250          30.500
  24683599.341     1046650.984      794976.484    24683597.477       -3707.300
        40.750          27.000
  22988070.014     -213960.469     -168274.063    22988067.567         684.712
        46.250          30.250
  21760148.181     -727615.141     -549692.348    21760145.049        2276.929
        45.500          32.250
  20909627.991     -232432.066     -181846.063    20909623.971         803.877
        47.500          34.250
  24046243.080    -1054797.879     -796353.629    24046238.846        3361.035
        46.500          29.250
  22335402.735     -389064.469     -295398.641    22335400.083        1153.999
        46.250          30.250
  25034226.327     1097416.941      835569.914    25034226.337       -3620.796
        39.250          21.000
  7  3 30 18  5 35.0000000  0 11 24  7  6 29 10 16 18 21 22 26 30
  21442936.458      458333.680      344672.332    21442934.582       -1521.982
        48.500          33.500
  20436596.422      194869.508      144301.406    20436593.376        -718.403
        47.000          33.500
  20944609.041      503371.738      379259.355    20944606.313       -1717.895
        46.750          32.000
  22890235.060        9033.551        2711.707    22890232.528        -111.401
        46.500          30.500
  24684305.241     1050358.152      797865.180    24684303.240       -3707.192
        41.500          27.250
  22987940.385     -214644.801     -168807.305    22987937.301         684.116
        46.250          30.000
  21759714.599     -729892.012     -551466.527    21759711.525        2276.738
        45.500          32.500
  20909475.528     -233235.883     -182472.414    20909470.803         803.701
        47.500          34.250
  24045603.873    -1058158.820     -798972.539    24045599.438        3360.903
        46.500          29.000
  22335182.947     -390218.102     -296297.578    22335179.800        1153.325
        45.750          29.250
  25034915.936     1101037.848      838391.387    25034915.265       -3620.776
        38.750          21.000
  7  3 30 18  5 36.0000000  0 11 24  7  6 29 10 16 18 21 22 26 30
  21443226.236      459855.652      345858.293    21443223.943       -1522.036
        48.750          33.500
  20436733.011      195587.980      144861.258    20436730.438        -718.696
        47.000          33.500
  20944935.670      505089.668      380598.000    20944933.484       -1718.145
        46.500          31.500
  22890256.124        9145.160        2798.672    22890253.164        -111.841
        46.750          30.000
  24685010.637     1054065.223      800753.809    24685008.539       -3707.061
        41.500          26.750
  22987810.225     -215328.672     -169340.195    22987807.122         683.618
        46.500          30.000
  21759282.017     -732168.547     -553240.445    21759278.392        2276.372
        45.500          32.250
  20909322.405     -234039.594     -183098.680    20909317.847         803.618
        47.250          33.750
  24044963.688    -1061519.730     -801591.430    24044960.102        3360.894
        47.000          29.500
  22334963.266     -391371.180     -297196.086    22334961.006        1152.729
        45.750          29.250
  25035604.640     1104658.551      841212.715    25035604.557       -3620.562
        39.000          21.000
  7  3 30 18  5 37.0000000  0 11 24  7  6 29 10 16 18 21 22 26 30
  21443515.849      461377.715      347044.313    21443513.387       -1522.129
        49.000          33.500
  20436869.945      196306.922      145421.465    20436867.390        -719.229
        47.000          33.250
  20945262.773      506808.051      381937.004    20945260.232       -1718.608
        46.000          32.000
  22890277.966        9257.367        2886.105    22890274.548        -112.529
        46.500          30.000
  24685715.958     1057772.328      803642.461    24685713.949       -3707.080
        42.000          28.000
  22987679.819     -216011.992     -169872.656    22987676.694         682.964
        46.750          30.000
  21758848.932     -734444.758     -555014.117    21758845.382        2276.055
        45.500          32.250
  20909169.261     -234843.172     -183724.844    20909165.109         803.442
        47.000          34.000
  24044324.203    -1064880.504     -804210.211    24044320.442        3360.678
        47.000          29.750
  22334744.352     -392523.648     -298094.117    22334741.994        1152.109
        45.750          29.750
  25036293.637     1108279.027      844033.848    25036292.754       -3620.420
        39.250          20.500
  7  3 30 18  5 38.0000000  0 11 24  7  6 29 10 16 18 21 22 26 30
  21443805.226      462899.910      348230.434    21443803.241       -1522.227
        49.000          33.500
  20437006.953      197026.313      145982.023    20437003.865        -719.639
        47.250          33.500
  20945589.543      508526.871      383276.340    20945587.265       -1719.082
        46.000          32.500
  22890298.878        9370.160        2974.000    22890296.184        -113.135
        47.000          31.250
  24686421.667     1061479.453      806531.125    24686419.529       -3707.261
        42.000          28.000
  22987550.182     -216694.754     -170404.680    22987547.145         682.539
        46.250          30.000
  21758415.615     -736720.602     -556787.508    21758412.225        2275.684
        45.500          32.000
  20909016.942     -235646.547     -184350.859    20909012.238         803.325
        47.250          34.000
  24043685.190    -1068241.137     -806828.875    24043680.991        3360.615
        46.500          29.250
  22334524.864     -393675.492     -298991.656    22334522.743        1151.533
        46.000          29.500
  25036982.969     1111899.379      846854.898    25036982.374       -3620.273
        39.250          20.000
  7  3 30 18  5 39.0000000  0 11 24  7  6 29 10 16 18 21 22 26 30
  21444095.010      464422.258      349416.676    21444093.231       -1522.432
        48.500          33.750
  20437143.918      197746.223      146542.992    20437140.643        -720.127
        47.250          33.750
  20945917.209      510246.133      384616.027    20945914.942       -1719.521
        45.750          32.000
  22890320.888        9483.598        3062.398    22890318.170        -113.770
        47.000          30.250
  24687126.919     1065186.613      809419.816    24687125.006       -3707.075
        42.000          27.500
  22987419.691     -217376.906     -170936.230    22987417.486         681.855
        46.000          30.500
  21757982.110     -738996.043     -558560.586    21757979.265        2275.190
        46.000          32.000
  20908863.731     -236449.707     -184976.703    20908859.785         803.022
        47.250          34.250
  24043045.494    -1071601.613     -809447.426    24043041.284        3360.371
        46.750          29.500
  22334306.030     -394826.652     -299888.664    22334303.780        1150.903
        46.000          30.250
  25037671.290     1115519.582      849675.836    25037671.450       -3620.146
        39.500          20.000
  7  3 30 18  5 40.0000000  0 11 24  7  6 29 10 16 18 21 22 26 30
  21444384.944      465944.535      350602.859    21444382.793       -1522.114
        48.250          33.500
  20437280.829      198466.492      147104.242    20437278.017        -720.395
        47.000          33.500
  20946244.079      511965.680      385955.938    20946241.892       -1719.590
        45.750          31.750
  22890342.444        9597.477        3151.133    22890339.744        -114.019
        47.500          30.750
  24687832.198     1068893.613      812308.379    24687830.329       -3706.753
        41.750          27.500
  22987290.656     -218058.660     -171467.480    22987287.824         681.587
        46.000          30.750
  21757550.160     -741271.285     -560333.500    21757546.483        2275.239
        45.500          32.000
  20908711.184     -237252.879     -185602.551    20908706.453         803.291
        47.500          34.000
  24042406.029    -1074962.086     -812065.977    24042402.220        3360.498
        47.000          30.000
  22334087.327     -395977.352     -300785.320    22334084.778        1150.562
        46.500          30.750
  25038359.709     1119139.512      852496.547    25038360.275       -3619.697
        39.500          20.000
  7  3 30 18  5 41.0000000  0 11 24  7  6 29 10 16 18 21 22 26 30
  21444674.346      467466.680      351788.945    21444672.330       -1522.036
        48.000          33.500
  20437417.955      199186.902      147665.605    20437415.202        -720.469
        47.250          33.500
  20946571.513      513685.391      387295.969    20946569.361       -1719.751
        46.000          32.000
  22890364.272        9711.672        3240.121    22890361.242        -114.351
        47.500          30.000
  24688537.899     1072600.363      815196.750    24688535.950       -3706.504
        42.250          28.250
  22987160.660     -218740.125     -171998.488    22987157.998         681.377
        46.250          30.250
  21757116.816     -743546.461     -562106.355    21757113.467        2275.122
        45.500          32.000
  20908558.150     -238056.137     -186228.461    20908553.710         803.267
        46.750          33.750
  24041766.545    -1078322.730     -814684.660    24041762.454        3360.693
        47.000          29.750
  22333868.278     -397127.699     -301681.695    22333865.785        1150.269
        46.500          29.500
  25039048.631     1122758.945      855316.879    25039048.990       -3619.365
        39.750          20.500
  7  3 30 18  5 42.0000000  0 11 24  7  6 29 10 16 18 21 22 26 30
  21444964.068      468988.691      352974.926    21444961.857       -1521.924
        48.000          33.250
  20437554.911      199907.574      148227.168    20437552.082        -720.796
        47.250          33.750
  20946898.450      515405.281      388636.145    20946896.693       -1719.990
        45.750          31.500
  22890386.332        9826.242        3329.395    22890382.674        -114.731
        47.500          29.250
  24689242.876     1076306.906      818084.965    24689241.621       -3706.401
        42.500          27.500
  22987030.827     -219421.246     -172529.230    22987028.243         680.884
        46.000          29.500
  21756683.884     -745821.496     -563879.105    21756680.595        2274.990
        46.000          32.500
  20908405.325     -238859.438     -186854.410    20908400.783         803.325
        46.750          33.500
  24041127.078    -1081683.457     -817303.406    24041123.128        3360.781
        47.000          30.250
  22333649.608     -398277.621     -302577.738    22333646.821        1149.722
        46.250          29.750
  25039737.994     1126377.984      858136.902    25039737.662       -3618.828
        39.500          20.000
  7  3 30 18  5 43.0000000  0 11 24  7  6 29 10 16 18 21 22 26 30
  21445254.217      470510.664      354160.879    21445251.754       -1522.002
        48.250          33.500
  20437692.620      200628.559      148788.961    20437689.405        -721.333
        47.250          33.750
  20947226.520      517125.449      389976.535    20947223.581       -1720.313
        46.250          31.500
  22890407.602        9941.230        3418.996    22890404.413        -115.205
        47.000          30.000
  24689948.162     1080013.297      820973.059    24689946.676       -3706.230
        42.250          28.250
  22986901.302     -220102.004     -173059.688    22986898.587         680.508
        46.250          29.250
  21756251.077     -748096.313     -565651.691    21756247.372        2274.756
        46.000          32.000
  20908252.722     -239662.762     -187480.379    20908248.119         803.286
        46.500          33.500
  24040487.503    -1085044.230     -819922.191    24040483.588        3360.718
        46.500          30.250
  22333430.417     -399427.121     -303473.449    22333428.406        1149.277
        46.500          29.000
  25040426.357     1129996.750      860956.723    25040426.733       -3618.647
        39.250          20.500
  7  3 30 18  5 44.0000000  0 11 24  7  6 29 10 16 18 21 22 26 30
  21445543.847      472032.617      355346.816    21445540.892       -1522.026
        48.500          33.500
  20437829.454      201349.859      149351.020    20437826.554        -721.470
        46.500          33.250
  20947554.112      518845.902      391317.145    20947551.250       -1720.654
        46.500          31.750
  22890430.169       10056.691        3508.965    22890426.806        -115.732
        46.500          30.000
  24690654.080     1083719.570      823861.059    24690651.746       -3706.230
        42.500          27.500
  22986772.017     -220782.309     -173589.789    22986769.400         680.063
        46.000          30.250
  21755817.746     -750370.918     -567424.105    21755814.525        2274.355
        46.000          32.500
  20908099.364     -240465.996     -188106.273    20908095.065         803.135
        47.000          33.750
  24039848.177    -1088404.988     -822540.957    24039844.059        3360.678
        46.250          30.250
  22333211.853     -400576.074     -304368.730    22333209.512        1148.701
        46.500          29.750
  25041114.568     1133615.176      863776.266    25041114.888       -3618.389
        39.500          20.500
  7  3 30 18  5 45.0000000  0 11 24  7  6 29 10 16 18 21 22 26 30
  21445832.968      473554.648      356532.813    21445830.727       -1522.036
        48.500          33.250
  20437967.053      202071.590      149913.410    20437964.178        -721.997
        46.500          33.750
  20947881.146      520566.719      392658.039    20947879.154       -1720.932
        46.500          31.750
  22890451.845       10172.652        3599.324    22890448.615        -116.162
        46.500          30.000
  24691359.194     1087425.793      826749.020    24691357.059       -3706.240
        43.000          27.000
  22986642.439     -221462.102     -174119.500    22986639.688         679.526
        46.000          30.500
  21755385.097     -752645.219     -569196.289    21755381.746        2274.204
        46.250          31.750
  20907946.907     -241269.148     -188732.102    20907942.426         803.091
        46.500          33.500
  24039208.626    -1091765.691     -825159.688    24039204.496        3360.766
        46.500          30.750
  22332993.260     -401724.473     -305263.594    22332991.417        1148.125
        46.500          29.500
  25041803.304     1137233.402      866595.645    25041803.430       -3618.091
        39.500          20.000
  7  3 30 18  5 46.0000000  0 11 24  7  6 29 10 16 18 21 22 26 30
  21446122.488      475076.688      357718.813    21446120.517       -1522.114
        48.250          33.500
  20438104.781      202793.707      150476.090    20438101.498        -722.261
        46.500          33.750
  20948209.281      522287.918      393999.230    20948206.078       -1721.391
        46.750          32.250
  22890474.017       10289.160        3690.105    22890470.861        -116.792
        46.750          29.750
  24692063.837     1091131.992      829636.969    24692062.137       -3706.226
        42.750          27.000
  22986513.330     -222141.379     -174648.805    22986510.896         678.960
        46.250          30.000
  21754952.391     -754919.234     -570968.254    21754949.469        2273.862
        46.750          31.500
  20907793.919     -242072.172     -189357.840    20907789.418         802.910
        46.500          33.500
  24038569.083    -1095126.285     -827778.328    24038565.407        3360.513
        46.500          31.000
  22332774.887     -402872.277     -306157.988    22332772.881        1147.441
        46.750          29.750
  25042491.467     1140851.410      869414.867    25042492.165       -3618.008
        39.500          20.500
  7  3 30 18  5 47.0000000  0 11 24  7  6 29 10 16 18 21 22 26 30
  21446412.477      476598.801      358904.875    21446410.509       -1522.119
        48.500          33.500
  20438241.330      203516.270      151039.121    20438238.917        -722.700
        46.750          34.000
  20948536.308      524009.465      395340.699    20948533.388       -1721.626
        46.000          32.000
  22890496.356       10406.219        3781.313    22890493.366        -117.310
        46.750          30.250
  24692769.774     1094838.082      832524.828    24692767.466       -3706.220
        42.000          26.750
  22986384.425     -222820.188     -175177.750    22986381.389         678.584
        46.000          30.750
  21754519.630     -757192.945     -572739.980    21754516.438        2273.735
        46.500          32.000
  20907640.968     -242875.078     -189983.488    20907636.869         802.866
        46.500          34.000
  24037929.376    -1098486.832     -830396.941    24037925.703        3360.674
        46.500          30.250
  22332556.603     -404019.523     -307051.949    22332554.235        1146.997
        46.500          30.000
  25043180.034     1144469.199      872233.926    25043180.684       -3617.632
        39.500          20.500
  7  3 30 18  5 48.0000000  0 11 24  7  6 29 10 16 18 21 22 26 30
  21446701.963      478120.895      360090.918    21446700.214       -1522.085
        48.250          33.750
  20438379.273      204239.137      151602.398    20438376.587        -723.149
        47.000          33.750
  20948863.745      525731.281      396682.367    20948861.720       -1721.831
        45.500          32.500
  22890518.427       10523.699        3872.859    22890515.706        -117.666
        46.500          30.750
  24693474.608     1098544.094      835412.625    24693472.907       -3706.011
        41.500          27.000
  22986255.112     -223498.563     -175706.359    22986252.600         678.188
        46.000          30.500
  21754086.938     -759466.434     -574511.531    21754083.572        2273.525
        46.750          32.000
  20907488.158     -243677.977     -190609.125    20907484.114         802.866
        46.500          34.000
  24037290.004    -1101847.383     -833015.551    24037286.155        3360.728
        46.500          31.000
  22332338.392     -405166.293     -307945.539    22332335.990        1146.641
        46.500          30.500
  25043868.561     1148086.660      875052.703    25043869.102       -3617.271
        39.000          20.000
  7  3 30 18  5 49.0000000  0 11 24  7  6 29 10 16 18 21 22 26 30
  21446991.838      479642.867      361276.867    21446989.702       -1521.982
        48.000          34.000
  20438516.975      204962.273      152165.879    20438514.343        -723.359
        47.000          34.500
  20949191.411      527453.340      398024.230    20949189.325       -1722.144
        45.500          32.250
  22890541.528       10641.598        3964.734    22890538.230        -118.091
        46.750          30.250
  24694179.413     1102249.883      838300.250    24694178.022       -3705.752
        41.500          27.500
  22986125.976     -224176.582     -176234.684    22986123.448         677.803
        46.000          30.500
  21753654.756     -761739.766     -576282.957    21753651.358        2273.296
        46.500          32.000
  20907335.665     -244480.883     -191234.766    20907331.030         802.974
        46.000          33.750
  24036650.023    -1105207.996     -835634.207    24036646.644        3360.708
        46.750          30.750
  22332120.307     -406312.641     -308838.801    22332118.055        1146.128
        46.750          30.500
  25044556.758     1151703.777      877871.234    25044557.597       -3616.899
        39.500          20.000
  7  3 30 18  5 50.0000000  0 11 24  7  6 29 10 16 18 21 22 26 30
  21447281.430      481164.801      362462.797    21447279.283       -1521.865
        48.250          33.500
  20438654.598      205685.688      152729.582    20438651.696        -723.506
        47.250          34.500
  20949519.360      529175.660      399366.297    20949516.892       -1722.290
        46.000          32.250
  22890563.709       10759.898        4056.902    22890560.400        -118.379
        46.500          30.500
  24694885.166     1105955.500      841187.750    24694882.596       -3705.439
        42.000          27.250
  22985997.017     -224854.230     -176762.719    22985994.172         677.485
        46.250          30.500
  21753221.890     -764012.918     -578054.246    21753218.658        2273.013
        46.000          32.000
  20907182.740     -245283.781     -191860.398    20907178.435         802.925
        46.500          34.000
  24036010.742    -1108568.645     -838252.895    24036006.908        3360.669
        46.500          31.000
  22331902.255     -407458.539     -309731.695    22331899.910        1145.693
        46.750          31.000
  25045245.222     1155320.555      880689.488    25045245.500       -3616.557
        39.500          20.000
  7  3 30 18  5 51.0000000  0 11 24  7  6 29 10 16 18 21 22 26 30
  21447571.167      482686.598      363648.609    21447568.738       -1521.768
        48.500          33.750
  20438792.455      206409.344      153293.461    20438789.137        -723.804
        47.500          34.000
  20949846.578      530898.188      400708.531    20949844.571       -1722.690
        46.500          32.250
  22890586.205       10878.570        4149.375    22890583.264        -118.877
        46.750          30.500
  24695590.277     1109660.910      844075.074    24695587.944       -3705.264
        41.750          27.000
  22985868.094     -225531.527     -177290.492    22985865.511         677.144
        46.250          30.250
  21752789.280     -766285.965     -579825.453    21752786.103        2272.974
        46.000          33.000
  20907029.865     -246086.762     -192486.102    20907025.601         802.910
        46.750          34.000
  24035370.914    -1111929.395     -840871.660    24035367.352        3360.708
        46.500          31.500
  22331684.443     -408604.016     -310624.285    22331681.999        1145.234
        46.500          30.500
  25045933.135     1158936.945      883507.453    25045933.849       -3616.411
        39.500          19.500
  7  3 30 18  5 52.0000000  0 11 24  7  6 29 10 16 18 21 22 26 30
  21447860.551      484208.473      364834.488    21447858.487       -1521.909
        48.500          34.500
  20438930.038      207133.414      153857.672    20438927.079        -724.331
        47.000          34.000
  20950175.090      532621.066      402051.027    20950172.686       -1723.032
        46.250          32.500
  22890609.314       10997.777        4242.266    22890605.604        -119.531
        47.000          30.000
  24696294.957     1113366.293      846962.375    24696293.036       -3705.444
        41.750          27.750
  22985740.022     -226208.328     -177817.867    22985736.790         676.519
        46.250          30.000
  21752357.253     -768558.684     -581596.398    21752354.041        2272.515
        46.250          32.250
  20906876.926     -246889.625     -193111.703    20906872.679         802.744
        46.500          33.750
  24034731.830    -1115290.094     -843490.375    24034728.045        3360.620
        46.500          31.000
  22331465.998     -409748.938     -311516.430    22331463.800        1144.551
        46.750          30.250
  25046621.465     1162553.082      886325.211    25046622.178       -3616.069
        39.250          20.000
  7  3 30 18  5 53.0000000  0 11 24  7  6 29 10 16 18 21 22 26 30
  21448150.038      485730.371      366020.379    21448148.289       -1521.938
        48.500          34.000
  20439068.238      207857.887      154422.191    20439064.952        -724.678
        47.250          33.500
  20950503.084      534344.285      403393.797    20950500.430       -1723.291
        46.000          32.250
  22890631.975       11117.500        4335.555    22890628.364        -120.000
        47.000          30.250
  24697000.005     1117071.594      849849.625    24696998.310       -3705.298
        41.750          28.000
  22985611.181     -226884.633     -178344.863    22985608.231         676.001
        45.750          30.500
  21751924.762     -770831.129     -583367.137    21751920.830        2272.261
        46.250          32.500
  20906724.328     -247692.391     -193737.242    20906720.374         802.720
        46.500          33.750
  24034092.185    -1118650.703     -846109.031    24034088.250        3360.601
        46.750          31.000
  22331248.845     -410893.270     -312408.117    22331246.471        1143.960
        47.000          30.000
  25047310.211     1166168.988      889142.793    25047310.133       -3615.693
        38.750          20.500
  7  3 30 18  5 54.0000000  0 11 24  7  6 29 10 16 18 21 22 26 30
  21448439.986      487252.227      367206.234    21448437.392       -1521.831
        48.250          33.500
  20439206.125      208582.633      154986.930    20439203.063        -724.932
        46.750          34.000
  20950831.153      536067.766      404736.762    20950828.391       -1723.452
        46.000          32.250
  22890654.958       11237.648        4429.180    22890651.540        -120.308
        46.750          31.000
  24697705.078     1120776.727      852736.730    24697703.003       -3705.049
        41.750          26.750
  22985481.605     -227560.574     -178871.570    22985479.542         675.786
        45.500          30.500
  21751492.170     -773103.402     -585137.738    21751488.706        2272.285
        46.000          32.250
  20906571.272     -248495.133     -194362.750    20906567.215         802.739
        46.250          34.000
  24033452.969    -1122011.367     -848727.727    24033449.113        3360.762
        46.500          31.000
  22331031.158     -412037.168     -313299.473    22331028.536        1143.633
        47.000          30.500
  25047997.984     1169784.570      891960.121    25047998.635       -3615.308
        38.750          21.000
  7  3 30 18  5 55.0000000  0 11 24  7  6 29 10 16 18 21 22 26 30
  21448729.400      488773.984      368392.023    21448726.998       -1521.743
        48.250          33.500
  20439343.952      209307.699      155551.914    20439340.849        -725.215
        46.500          34.250
  20951159.047      537791.465      406079.902    20951156.576       -1723.823
        46.000          32.250
  22890677.782       11358.215        4523.133    22890674.530        -120.835
        46.250          30.500
  24698409.949     1124481.691      855623.719    24698408.504       -3704.868
        42.000          28.000
  22985353.711     -228236.109     -179397.961    22985350.664         675.298
        45.750          30.500
  21751059.684     -775375.457     -586908.168    21751056.086        2272.031
        45.500          32.500
  20906418.740     -249297.883     -194988.273    20906414.486         802.729
        45.750          33.750
  24032813.546    -1125372.086     -851346.477    24032809.489        3360.757
        46.500          30.750
  22330813.530     -413180.594     -314190.453    22330810.796        1143.198
        46.500          30.500
  25048685.366     1173399.828      894777.203    25048685.881       -3615.063
        39.000          20.500
  7  3 30 18  5 56.0000000  0 11 24  7  6 29 10 16 18 21 22 26 30
  21449018.888      490295.695      369577.773    21449016.416       -1521.694
        48.250          34.000
  20439482.585      210033.063      156117.129    20439478.849        -725.552
        47.000          34.250
  20951486.907      539515.438      407423.262    20951484.697       -1724.126
        46.500          32.000
  22890700.663       11479.195        4617.398    22890697.679        -121.230
        46.500          30.750
  24699115.449     1128186.496      858510.570    24699113.449       -3704.648
        42.250          27.000
  22985225.478     -228911.266     -179924.059    22985222.409         674.863
        45.750          31.000
  21750627.226     -777647.355     -588678.477    21750624.132        2271.704
        45.750          32.250
  20906265.998     -250100.652     -195613.809    20906262.064         802.729
        45.750          34.000
  24032173.902    -1128732.828     -853965.223    24032169.566        3360.732
        46.750          30.750
  22330595.966     -414323.566     -315081.078    22330593.337        1142.671
        46.500          30.500
  25049373.655     1177014.715      897593.996    25049374.072       -3614.771
        39.000          21.000
  7  3 30 18  5 57.0000000  0 11 24  7  6 29 10 16 18 21 22 26 30
  21449308.481      491817.457      370763.563    21449306.720       -1521.899
        48.500          34.000
  20439620.303      210758.852      156682.688    20439617.169        -726.162
        46.750          34.500
  20951815.059      541239.781      408766.910    20951812.332       -1724.649
        46.250          32.000
  22890723.917       11600.719        4712.086    22890720.156        -121.919
        46.250          30.500
  24699820.920     1131891.258      861397.395    24699818.255       -3704.951
        42.500          26.500
  22985096.791     -229585.934     -180449.770    22985093.635         674.253
        45.750          30.500
  21750194.654     -779918.957     -590448.559    21750192.120        2271.411
        45.500          32.250
  20906113.081     -250903.285     -196239.234    20906108.902         802.437
        46.000          34.000
  24031534.454    -1132093.504     -856583.938    24031530.439        3360.522
        46.500          30.750
  22330378.274     -415465.977     -315971.277    22330376.166        1141.982
        46.500          30.750
  25050061.390     1180629.402      900410.617    25050061.848       -3614.648
        38.750          21.000
  7  3 30 18  5 58.0000000  0 11 24  7  6 29 10 16 18 21 22 26 30
  21449597.806      493339.387      371949.484    21449595.583       -1522.012
        48.250          34.000
  20439758.567      211485.117      157248.609    20439755.105        -726.343
        46.750          34.500
  20952143.446      542964.598      410110.922    20952141.140       -1725.000
        46.500          32.000
  22890746.634       11722.895        4807.281    22890743.964        -122.402
        46.500          31.500
  24700525.474     1135596.082      864284.262    24700523.051       -3704.766
        43.000          27.250
  22984968.696     -230260.008     -180975.023    22984966.187         673.857
        46.000          29.500
  21749762.910     -782190.133     -592218.309    21749759.465        2271.011
        45.750          32.500
  20905960.262     -251705.699     -196864.496    20905956.313         802.275
        46.000          33.750
  24030894.613    -1135454.000     -859202.504    24030890.611        3360.435
        46.500          30.000
  22330160.935     -416607.695     -316860.922    22330158.624        1141.387
        46.750          30.500
  25050749.425     1184244.004      903227.176    25050749.669       -3614.536
        39.000          21.000
  7  3 30 18  5 59.0000000  0 11 24  7  6 29 10 16 18 21 22 26 30
  21449887.600      494861.414      373135.473    21449885.653       -1522.061
        48.250          34.250
  20439896.508      212211.863      157814.895    20439893.405        -726.958
        46.500          34.500
  20952471.693      544689.836      411455.250    20952469.727       -1725.371
        46.500          32.500
  22890770.422       11845.641        4902.926    22890767.161        -122.979
        46.750          31.000
  24701229.895     1139300.871      867171.117    24701228.265       -3704.771
        42.750          27.250
  22984839.715     -230933.512     -181499.832    22984837.276         673.354
        46.000          29.750
  21749330.957     -784460.992     -593987.809    21749327.618        2270.732
        46.250          32.500
  20905808.028     -252507.957     -197489.641    20905803.377         802.236
        46.000          34.000
  24030255.162    -1138814.363     -861820.969    24030251.337        3360.239
        46.500          30.500
  22329944.309     -417748.805     -317750.102    22329941.537        1140.835
        46.750          30.500
  25051436.802     1187858.375      906043.566    25051437.471       -3614.302
        39.500          20.500
  7  3 30 18  6  0.0000000  0 11 24  7  6 29 10 16 18 21 22 26 30
  21450177.211      496383.563      374321.566    21450174.960       -1522.231
        48.250          34.000
  20440034.876      212939.059      158381.543    20440032.036        -727.529
        47.000          34.000
  20952800.120      546415.492      412799.922    20952797.467       -1725.962
        46.500          31.500
  22890793.914       11969.016        4999.070    22890791.102        -123.813
        47.000          31.000
  24701935.227     1143005.719      870058.012    24701932.827       -3704.980
        43.250          27.000
  22984711.787     -231606.438     -182024.199    22984709.678         672.646
        45.500          30.000
  21748898.877     -786731.469     -595757.012    21748895.333        2270.186
        46.250          32.750
  20905655.622     -253310.051     -198114.648    20905651.080         801.924
        46.500          34.250
  24029615.926    -1142174.605     -864439.340    24029611.943        3360.029
        46.500          30.500
  22329726.599     -418889.258     -318638.770    22329724.576        1140.093
        46.500          30.250
  25052124.228     1191472.617      908859.871    25052125.026       -3614.287
        39.500          20.500
  7  3 30 18  6  1.0000000  0 11 24  7  6 29 10 16 18 21 22 26 30
  21450466.921      497905.922      375507.816    21450465.056       -1522.422
        48.000          34.500
  20440173.171      213666.844      158948.641    20440170.545        -727.949
        47.000          34.500
  20953128.919      548141.672      414144.988    20953125.730       -1726.367
        46.250          32.750
  22890817.421       12093.063        5095.727    22890814.587        -124.390
        47.250          31.000
  24702640.317     1146710.652      872944.977    24702637.949       -3704.927
        42.750          26.500
  22984584.402     -232278.707     -182548.043    22984581.550         672.017
        45.750          30.750
  21748466.996     -789001.500     -597525.871    21748463.136        2269.834
        46.500          33.250
  20905502.799     -254111.848     -198739.434    20905498.502         801.733
        46.250          34.500
  24028976.445    -1145534.598     -867057.512    24028972.481        3359.912
        46.500          30.500
  22329509.621     -420028.980     -319526.867    22329507.475        1139.414
        46.250          30.500
  25052812.718     1195086.773      911676.090    25052813.062       -3613.965
        39.500          20.500
  7  3 30 18  6  2.0000000  0 11 24  7  6 29 10 16 18 21 22 26 30
  21450757.021      499428.441      376694.184    21450754.632       -1522.554
        48.250          34.500
  20440311.917      214395.137      159516.145    20440309.196        -728.530
        47.250          34.500
  20953456.549      549868.340      415490.449    20953454.148       -1726.890
        45.750          32.500
  22890841.377       12217.758        5192.895    22890838.110        -125.000
        47.000          31.000
  24703345.753     1150415.648      875831.988    24703342.648       -3705.005
        42.500          26.750
  22984456.743     -232950.371     -183071.422    22984454.004         671.353
        46.000          30.500
  21748035.414     -791271.121     -599294.406    21748031.621        2269.419
        46.500          33.000
  20905350.587     -254913.449     -199364.055    20905345.965         801.543
        46.750          34.000
  24028337.357    -1148894.434     -869675.563    24028333.329        3359.746
        46.750          30.750
  22329293.140     -421168.023     -320414.434    22329290.480        1138.701
        46.000          30.750
  25053500.258     1198700.836      914492.227    25053500.645       -3614.160
        39.750          20.500
  7  3 30 18  6  3.0000000  0 11 24  7  6 29 10 16 18 21 22 26 30
  21451046.405      500951.063      377880.645    21451044.535       -1522.720
        48.250          34.000
  20440451.054      215123.902      160084.020    20440447.702        -729.048
        47.500          35.000
  20953785.641      551595.422      416836.223    20953782.799       -1727.329
        46.000          32.500
  22890865.250       12343.043        5290.520    22890861.803        -125.596
        47.000          31.000
  24704050.561     1154120.668      878719.016    24704048.009       -3705.156
        42.000          26.500
  22984329.295     -233621.480     -183594.363    22984326.171         670.791
        46.250          30.250
  21747603.175     -793540.422     -601062.699    21747599.958        2269.175
        46.000          32.750
  20905197.979     -255714.867     -199988.535    20905193.660         801.343
        46.500          34.500
  24027697.448    -1152254.121     -872293.492    24027693.921        3359.653
        46.500          30.000
  22329076.599     -422306.453     -321301.523    22329074.296        1138.101
        46.500          30.250
  25054188.671     1202314.695      917308.203    25054188.688       -3613.794
        39.500          20.500
  7  3 30 18  6  4.0000000  0 11 24  7  6 29 10 16 18 21 22 26 30
  21451336.404      502473.801      379067.191    21451334.214       -1522.725
        48.000          34.250
  20440589.556      215853.141      160652.258    20440586.370        -729.355
        47.000          35.250
  20954114.891      553322.926      418182.332    20954112.385       -1727.563
        46.000          32.750
  22890889.183       12468.930        5388.609    22890885.880        -126.025
        47.000          31.500
  24704755.169     1157825.645      881606.008    24704752.933       -3704.863
        42.000          26.500
  22984201.153     -234292.020     -184116.863    22984198.153         670.356
        46.000          30.000
  21747171.620     -795809.316     -602830.656    21747168.021        2268.857
        46.000          33.000
  20905045.480     -256516.102     -200612.879    20905040.978         801.260
        46.750          34.500
  24027058.500    -1155613.676     -874911.332    24027055.123        3359.653
        46.250          30.500
  22328859.954     -423444.258     -322188.117    22328857.709        1137.544
        46.750          30.000
  25054875.781     1205928.414      920124.094    25054875.994       -3613.433
        39.500          20.500
  7  3 30 18  6  5.0000000  0 11 24  7  6 29 10 16 18 21 22 26 30
  21451625.880      503996.422      380253.652    21451623.747       -1522.525
        48.500          34.000
  20440728.727      216582.617      161220.676    20440725.152        -729.688
        46.750          35.000
  20954443.248      555050.637      419528.598    20954441.186       -1727.808
        46.500          33.000
  22890913.160       12595.195        5487.004    22890909.694        -126.436
        46.750          31.500
  24705460.307     1161530.465      884492.867    24705457.700       -3704.814
        41.750          25.250
  22984073.651     -234962.211     -184639.090    22984070.974         669.966
        46.000          29.750
  21746739.216     -798078.070     -604598.516    21746736.323        2268.687
        46.000          33.250
  20904892.479     -257317.422     -201237.277    20904888.401         801.362
        46.750          34.500
  24026419.274    -1158973.305     -877529.223    24026415.382        3359.604
        46.750          30.500
  22328643.468     -424581.656     -323074.402    22328641.386        1137.202
        46.750          30.500
  25055563.561     1209541.750      922939.672    25055563.487       -3613.091
        39.500          20.000
  7  3 30 18  6  6.0000000  0 11 24  7  6 29 10 16 18 21 22 26 30
  21451915.789      505518.957      381440.035    21451913.916       -1522.485
        48.500          34.000
  20440867.655      217312.340      161789.297    20440864.354        -729.907
        47.000          35.000
  20954771.988      556778.574      420875.043    20954769.814       -1728.003
        46.500          32.500
  22890937.262       12721.852        5585.691    22890933.638        -126.880
        46.750          30.750
  24706165.310     1165235.043      887379.551    24706162.834       -3704.507
        42.000          25.500
  22983946.231     -235632.102     -185161.078    22983943.431         669.775
        45.500          30.000
  21746308.474     -800346.695     -606366.273    21746304.576        2268.501
        46.250          33.250
  20904740.083     -258118.742     -201861.688    20904735.976         801.382
        46.750          34.500
  24025780.011    -1162333.039     -880147.191    24025776.502        3359.717
        47.000          30.000
  22328427.156     -425718.617     -323960.348    22328424.508        1136.724
        47.000          29.750
  25056251.186     1213154.691      925754.934    25056251.293       -3612.690
        39.500          20.000
  7  3 30 18  6  7.0000000  0 11 24  7  6 29 10 16 18 21 22 26 30
  21452205.545      507041.398      382626.359    21452203.479       -1522.432
        48.250          33.750
  20441005.832      218042.316      162358.109    20441002.681        -730.151
        47.250          35.000
  20955100.845      558506.727      422221.652    20955098.340       -1728.330
        46.250          32.000
  22890961.306       12848.914        5684.699    22890957.951        -127.339
        47.250          30.750
  24706870.116     1168939.453      890266.109    24706867.526       -3704.326
        41.750          26.000
  22983818.453     -236301.594     -185682.766    22983815.937         669.297
        45.500          30.500
  21745876.325     -802615.160     -608133.910    21745872.860        2268.369
        46.000          32.750
  20904588.000     -258920.098     -202486.121    20904583.618         801.372
        46.500          34.250
  24025140.356    -1165692.816     -882765.191    24025136.768        3359.790
        46.750          30.250
  22328211.063     -426855.156     -324845.965    22328208.851        1136.299
        46.250          29.750
  25056938.383     1216767.258      928569.918    25056938.787       -3612.339
        39.500          20.000
  7  3 30 18  6  8.0000000  0 11 24  7  6 29 10 16 18 21 22 26 30
  21452495.203      508563.797      383812.641    21452492.889       -1522.392
        48.000          34.250
  20441144.745      218772.629      162927.184    20441142.044        -730.478
        47.500          35.000
  20955429.935      560235.133      423568.453    20955427.778       -1728.594
        46.250          32.500
  22890985.641       12976.387        5784.027    22890982.270        -127.783
        47.250          31.500
  24707575.183     1172643.691      893152.523    24707572.358       -3704.272
        42.500          23.500
  22983691.218     -236970.684     -186204.141    22983688.847         668.853
        45.500          30.250
  21745444.433     -804883.434     -609901.402    21745441.189        2268.174
        45.750          32.750
  20904434.871     -259721.445     -203110.559    20904430.832         801.343
        46.750          33.750
  24024500.963    -1169052.637     -885383.234    24024497.500        3359.844
        46.500          29.500
  22327995.005     -427991.238     -325731.219    22327992.785        1135.864
        46.250          29.750
  25057625.669     1220379.520      931384.668    25057626.243       -3612.134
        39.500          20.000
  7  3 30 18  6  9.0000000  0 11 24  7  6 29 10 16 18 21 22 26 30
  21452785.014      510086.172      384998.906    21452782.748       -1522.354
        48.000          34.500
  20441283.895      219503.297      163496.531    20441280.727        -730.830
        47.500          34.750
  20955759.110      561963.828      424915.496    20955756.741       -1728.852
        46.250          32.500
  22891009.990       13104.348        5883.738    22891006.609        -128.179
        47.000          31.000
  24708280.305     1176347.836      896038.875    24708276.859       -3704.111
        42.750          25.250
  22983564.439     -237639.336     -186725.168    22983561.198         668.457
        45.750          30.250
  21745013.054     -807151.449     -611668.688    21745009.964        2267.939
        46.000          33.000
  20904283.021     -260522.742     -203734.949    20904278.967         801.304
        47.000          34.250
  24023861.282    -1172412.449     -888001.266    24023858.515        3359.917
        46.500          30.500
  22327778.681     -429126.785     -326616.059    22327776.377        1135.400
        46.500          29.500
  25058312.961     1223991.520      934199.215    25058313.388       -3611.875
        39.000          20.500
  7  3 30 18  6 10.0000000  0 11 24  7  6 29 10 16 18 21 22 26 30
  21453074.396      511608.563      386185.180    21453072.597       -1522.461
        48.000          33.750
  20441422.786      220234.301      164066.145    20441420.334        -731.221
        47.500          35.000
  20956087.632      563692.867      426262.805    20956085.315       -1729.214
        46.000          32.500
  22891034.764       13232.773        5983.809    22891031.536        -128.687
        47.250          31.000
  24708984.982     1180051.875      898925.141    24708981.988       -3703.989
        43.000          25.500
  22983436.973     -238307.551     -187245.859    22983434.709         667.969
        46.000          29.750
  21744581.639     -809419.215     -613435.773    21744578.263        2267.632
        46.000          33.000
  20904130.208     -261323.988     -204359.293    20904126.048         801.250
        46.750          34.500
  24023222.213    -1175772.199     -890619.254    24023218.590        3359.722
        46.750          29.750
  22327562.580     -430261.789     -327500.480    22327560.906        1134.795
        46.250          30.000
  25059000.041     1227603.207      937013.508    25059000.328       -3611.577
        39.000          20.500
  7  3 30 18  6 11.0000000  0 11 24  7  6 29 10 16 18 21 22 26 30
  21453364.396      513130.930      387371.438    21453362.228       -1522.354
        48.250          34.250
  20441562.184      220965.680      164636.051    20441559.496        -731.597
        47.250          34.750
  20956416.809      565422.199      427610.328    20956414.715       -1729.438
        46.250          32.250
  22891059.077       13361.680        6084.258    22891055.316        -129.072
        47.500          30.750
  24709689.741     1183755.813      901811.328    24709686.427       -3703.828
        42.500          25.750
  22983309.872     -238975.313     -187766.188    22983307.291         667.563
        46.250          29.750
  21744150.236     -811686.773     -615202.703    21744146.766        2267.485
        45.750          32.500
  20903977.813     -262125.145     -204983.570    20903973.174         801.147
        46.750          34.750
  24022582.972    -1179131.969     -893237.250    24022579.353        3359.741
        46.750          30.500
  22327347.073     -431396.305     -328384.520    22327345.212        1134.263
        46.500          30.250
  25059687.231     1231214.609      939827.566    25059687.608       -3611.231
        39.250          20.500
  7  3 30 18  6 12.0000000  0 11 24  7  6 29 10 16 18 21 22 26 30
  21453654.045      514653.340      388557.730    21453652.129       -1522.495
        48.500          34.250
  20441701.294      221697.406      165206.230    20441698.652        -731.997
        47.000          35.000
  20956746.414      567151.887      428958.137    20956743.953       -1729.878
        46.250          32.500
  22891083.562       13491.102        6185.105    22891080.412        -129.707
        46.500          31.000
  24710394.646     1187459.656      904697.430    24710391.296       -3703.945
        42.000          26.000
  22983182.986     -239642.590     -188286.141    22983180.164         666.973
        46.500          30.250
  21743718.947     -813954.031     -616969.395    21743715.173        2267.021
        45.750          32.500
  20903825.583     -262926.238     -205607.797    20903821.036         800.982
        46.500          34.500
  24021943.911    -1182491.699     -895855.215    24021940.077        3359.668
        46.750          29.750
  22327131.296     -432530.234     -329268.105    22327129.249        1133.594
        46.500          30.250
  25060374.893     1234825.754      942641.438    25060374.309       -3610.962
        39.500          21.000
  7  3 30 18  6 13.0000000  0 11 24  7  6 29 10 16 18 21 22 26 30
  21453943.831      516175.836      389744.094    21453941.609       -1522.603
        48.250          34.000
  20441840.540      222429.613      165776.777    20441838.200        -732.593
        46.750          34.250
  20957075.849      568881.961      430306.250    20957073.209       -1730.366
        46.250          32.500
  22891108.535       13621.090        6286.395    22891105.141        -130.264
        46.750          30.750
  24711099.274     1191163.496      907583.551    24711096.231       -3703.818
        42.000          26.000
  22983055.942     -240309.332     -188805.688    22983053.477         666.445
        46.250          28.750
  21743287.424     -816220.926     -618735.805    21743283.608        2266.680
        46.250          32.250
  20903672.973     -263727.172     -206231.902    20903668.591         800.908
        46.500          34.000
  24021304.381    -1185851.281     -898473.063    24021300.761        3359.424
        46.500          29.750
  22326915.917     -433663.594     -330151.242    22326913.693        1132.988
        46.500          30.250
  25061061.735     1238436.746      945455.188    25061062.080       -3610.933
        40.000          20.500
  7  3 30 18  6 14.0000000  0 11 24  7  6 29 10 16 18 21 22 26 30
  21454233.633      517698.539      390930.609    21454231.254       -1522.749
        48.500          33.500
  20441980.270      223162.391      166347.773    20441977.725        -733.061
        46.500          34.500
  20957405.174      570612.586      431654.789    20957402.303       -1730.928
        46.250          32.000
  22891133.152       13751.789        6388.242    22891129.940        -130.981
        46.750          31.500
  24711804.047     1194867.441      910469.730    24711801.172       -3703.862
        41.750          25.250
  22982929.071     -240975.414     -189324.711    22982926.845         665.703
        46.250          29.000
  21742855.900     -818487.398     -620501.883    21742852.608        2266.294
        46.500          31.750
  20903520.872     -264527.828     -206855.789    20903516.429         800.586
        46.750          34.000
  24020664.879    -1189210.648     -901090.754    24020661.659        3359.224
        46.250          29.750
  22326700.090     -434796.188     -331033.785    22326697.844        1132.227
        46.750          29.750
  25061748.935     1242047.680      948268.902    25061749.273       -3610.938
        40.500          20.500
  7  3 30 18  6 15.0000000  0 11 24  7  6 29 10 16 18 21 22 26 30
  21454523.213      519221.383      392117.246    21454520.726       -1522.886
        48.250          33.750
  20442119.491      223895.637      166919.137    20442116.986        -733.486
        46.500          34.000
  20957733.966      572343.629      433003.656    20957731.667       -1731.323
        46.500          31.750
  22891157.878       13883.059        6490.531    22891155.212        -131.553
        47.000          30.750
  24712508.872     1198571.438      913355.957    24712505.779       -3703.950
        41.500          25.500
  22982802.374     -241640.930     -189843.293    22982799.722         665.146
        45.750          29.000
  21742424.831     -820753.469     -622267.656    21742421.306        2265.815
        46.750          31.500
  20903368.569     -265328.297     -207479.531    20903364.088         800.342
        47.000          34.000
  24020025.972    -1192569.855     -903708.320    24020022.197        3359.072
        46.500          30.250
  22326484.751     -435928.160     -331915.844    22326482.582        1131.577
        47.000          29.750
  25062436.465     1245658.406      951082.457    25062436.292       -3610.767
        40.500          20.000
  7  3 30 18  6 16.0000000  0 11 24  7  6 29 10 16 18 21 22 26 30
  21454813.212      520744.332      393303.965    21454810.705       -1523.081
        48.250          33.000
  20442259.274      224629.363      167490.871    20442256.511        -734.033
        46.500          34.000
  20958063.821      574075.078      434352.836    20958060.790       -1731.689
        46.000          32.000
  22891182.963       14014.961        6593.305    22891179.886        -132.275
        47.250          30.000
  24713213.910     1202275.418      916242.176    24713210.679       -3704.067
        40.750          24.500
  22982676.335     -242305.895     -190361.441    22982673.454         664.736
        45.500          28.500
  21741993.658     -823019.188     -624033.152    21741990.304        2265.464
        47.000          31.500
  20903216.350     -266128.609     -208103.152    20903212.075         800.181
        47.250          33.500
  24019386.703    -1195928.934     -906325.777    24019383.040        3358.921
        47.000          29.500
  22326269.873     -437059.484     -332797.395    22326267.071        1130.894
        47.000          30.000
  25063123.653     1249269.004      953895.898    25063123.406       -3610.591
        40.500          20.000
  7  3 30 18  6 17.0000000  0 11 24  7  6 29 10 16 18 21 22 26 30
  21455102.901      522267.387      394490.754    21455100.699       -1523.047
        48.750          33.000
  20442398.968      225363.547      168062.953    20442396.029        -734.448
        46.500          34.000
  20958392.855      575806.961      435702.352    20958390.606       -1732.095
        46.000          32.500
  22891208.339       14147.434        6696.531    22891204.840        -132.744
        47.250          30.500
  24713918.835     1205979.398      919128.391    24713915.844       -3703.945
        41.250          24.500
  22982550.069     -242970.273     -190879.148    22982547.017         664.126
        45.750          29.000
  21741562.483     -825284.578     -625798.391    21741559.330        2265.288
        46.500          32.250
  20903064.232     -266928.738     -208726.625    20903059.767         800.112
        47.250          33.500
  24018747.320    -1199287.891     -908943.148    24018743.729        3358.955
        47.000          30.000
  22326054.491     -438190.168     -333678.445    22326052.334        1130.361
        46.750          30.500
  25063810.258     1252879.430      956709.199    25063810.314       -3610.303
        40.500          20.000
  7  3 30 18  6 18.0000000  0 11 24  7  6 29 10 16 18 21 22 26 30
  21455392.951      523790.633      395677.703    21455390.176       -1523.359
        49.000          32.750
  20442539.123      226098.277      168635.465    20442536.021        -734.985
        46.750          34.000
  20958722.844      577539.367      437052.273    20958720.572       -1732.627
        46.000          32.500
  22891233.613       14280.578        6800.281    22891230.331        -133.438
        47.250          29.750
  24714623.590     1209683.473      922014.680    24714620.613       -3704.131
        41.000          25.500
  22982423.821     -243634.027     -191396.359    22982420.690         663.433
        45.750          29.000
  21741131.310     -827549.512     -627563.277    21741127.918        2264.727
        46.500          32.000
  20902911.787     -267728.621     -209349.914    20902907.387         799.805
        47.500          33.500
  24018107.775    -1202646.613     -911560.340    24018104.069        3358.599
        46.500          30.000
  22325839.763     -439320.152     -334558.953    22325837.226        1129.653
        47.000          30.750
  25064497.428     1256489.750      959522.434    25064497.412       -3610.234
        40.250          20.000
  7  3 30 18  6 19.0000000  0 11 24  7  6 29 10 16 18 21 22 26 30
  21455682.586      525314.035      396864.773    21455680.381       -1523.359
        49.000          33.250
  20442678.590      226833.523      169208.383    20442676.012        -735.371
        46.500          34.000
  20959052.463      579272.238      438402.563    20959050.403       -1733.105
        46.250          32.000
  22891259.034       14414.391        6904.555    22891255.784        -134.106
        47.000          30.250
  24715328.009     1213387.629      924901.035    24715325.577       -3704.111
        41.250          24.000
  22982297.800     -244297.180     -191913.102    22982294.664         663.022
        46.000          29.750
  21740700.483     -829814.066     -629327.859    21740696.794        2264.409
        46.500          32.250
  20902759.543     -268528.270     -209973.020    20902755.066         799.600
        47.000          33.250
  24017469.040    -1206005.184     -914177.398    24017465.615        3358.613
        46.500          29.500
  22325624.280     -440449.516     -335438.973    22325622.285        1129.209
        47.250          30.500
  25065184.479     1260099.992      962335.598    25065184.471       -3610.190
        40.000          20.000
  7  3 30 18  6 20.0000000  0 11 24  7  6 29 10 16 18 21 22 26 30
  21455972.368      526837.418      398051.820    21455970.447       -1523.374
        48.750          33.250
  20442818.549      227569.102      169781.555    20442815.926        -735.737
        46.500          34.250
  20959382.264      581005.395      439753.074    20959380.304       -1733.320
        46.500          32.500
  22891284.866       14548.637        7009.160    22891281.401        -134.443
        47.250          30.000
  24716033.282     1217091.605      927787.250    24716030.371       -3703.843
        40.750          24.500
  22982171.209     -244959.887     -192429.496    22982168.202         662.480
        46.000          28.250
  21740269.288     -832078.379     -631092.258    21740266.132        2264.102
        46.500          32.500
  20902607.261     -269327.898     -210596.109    20902602.856         799.560
        46.750          33.500
  24016829.899    -1209363.730     -916794.453    24016826.372        3358.447
        46.500          30.250
  22325409.764     -441578.328     -336318.566    22325407.086        1128.525
        47.000          30.500
  25065872.049     1263709.895      965148.500    25065871.652       -3609.893
        39.750          20.000
  7  3 30 18  6 21.0000000  0 11 24  7  6 29 10 16 18 21 22 26 30
  21456262.680      528360.844      399238.898    21456260.266       -1523.467
        48.750          33.250
  20442958.602      228305.105      170355.066    20442955.920        -736.196
        46.500          34.250
  20959712.162      582738.922      441103.871    20959709.809       -1733.794
        46.250          32.750
  22891310.345       14683.449        7114.195    22891307.503        -135.020
        47.250          29.500
  24716737.943     1220795.547      930673.441    24716735.081       -3703.799
        41.250          25.250
  22982045.439     -245622.117     -192945.523    22982042.169         662.017
        46.000          29.250
  21739838.745     -834342.395     -632856.430    21739835.545        2263.877
        46.000          32.500
  20902455.103     -270127.406     -211219.105    20902450.926         799.468
        46.000          34.000
  24016190.890    -1212722.223     -919411.457    24016187.115        3358.423
        47.000          29.750
  22325194.847     -442706.598     -337197.742    22325192.719        1128.008
        46.750          30.000
  25066558.726     1267319.586      967961.238    25066558.031       -3609.609
        39.750          20.500
  7  3 30 18  6 22.0000000  0 11 24  7  6 29 10 16 18 21 22 26 30
  21456552.265      529884.379      400426.070    21456550.167       -1523.555
        48.250          33.000
  20443099.151      229041.527      170928.895    20443095.982        -736.665
        46.250          34.000
  20960042.204      584472.832      442454.965    20960039.942       -1734.106
        46.500          32.500
  22891336.252       14818.844        7219.703    22891333.317        -135.713
        47.500          28.750
  24717443.090     1224499.523      933559.656    24717440.298       -3704.004
        41.750          24.500
  22981919.501     -246283.797     -193461.129    22981916.714         661.479
        45.750          29.500
  21739408.525     -836606.070     -634620.332    21739404.641        2263.447
        46.000          32.750
  20902303.002     -270926.758     -211841.973    20902298.935         799.316
        46.250          33.250
  24015551.688    -1216080.598     -922028.371    24015547.839        3358.345
        46.750          29.750
  22324981.060     -443834.203     -338076.398    22324978.359        1127.314
        47.000          30.250
  25067245.004     1270929.094      970773.848    25067244.812       -3609.380
        40.000          20.500
  7  3 30 18  6 23.0000000  0 11 24  7  6 29 10 16 18 21 22 26 30
  21456841.800      531407.922      401613.246    21456839.791       -1523.584
        48.500          33.500
  20443239.746      229778.375      171503.066    20443236.479        -737.036
        46.250          34.000
  20960371.795      586207.102      443806.344    20960369.766       -1734.316
        46.000          32.500
  22891361.992       14954.770        7325.625    22891358.788        -136.172
        47.500          30.000
  24718147.279     1228203.402      936445.789    24718145.137       -3703.857
        41.500          24.750
  22981793.586     -246944.984     -193976.340    22981790.516         660.913
        45.750          30.000
  21738977.664     -838869.441     -636383.996    21738973.637        2263.130
        46.250          32.750
  20902150.777     -271726.000     -212464.754    20902146.844         799.092
        46.500          33.500
  24014912.891    -1219438.887     -924645.215    24014908.839        3358.198
        47.000          30.000
  22324765.581     -444961.281     -338954.645    22324763.728        1126.641
        47.000          30.500
  25067932.480     1274538.375      973586.266    25067931.890       -3609.185
        40.250          21.000
  7  3 30 18  6 24.0000000  0 11 24  7  6 29 10 16 18 21 22 26 30
  21457132.149      532931.602      402800.531    21457130.079       -1523.696
        48.500          33.500
  20443379.731      230515.660      172077.570    20443376.501        -737.480
        47.000          34.500
  20960701.975      587941.820      445158.070    20960699.592       -1734.863
        46.250          33.000
  22891388.054       15091.266        7431.980    22891384.939        -136.699
        47.250          29.250
  24718852.227     1231907.262      939331.910    24718849.822       -3703.848
        41.750          25.750
  22981667.790     -247605.609     -194491.109    22981664.938         660.391
        45.750          29.500
  21738546.206     -841132.488     -638147.418    21738543.397        2262.935
        46.250          32.500
  20901999.322     -272525.090     -213087.426    20901995.024         798.989
        46.750          34.000
  24014273.970    -1222797.074     -927261.980    24014270.021        3358.203
        47.000          30.500
  22324551.427     -446087.754     -339832.414    22324549.606        1126.265
        46.750          30.750
  25068618.690     1278147.457      976398.527    25068618.880       -3608.823
        40.000          21.000
  7  3 30 18  6 25.0000000  0 11 24  7  6 29 10 16 18 21 22 26 30
  21457422.156      534455.313      403987.836    21457420.021       -1523.862
        48.500          34.000
  20443519.920      231253.375      172652.414    20443516.765        -737.905
        47.250          34.500
  20961032.813      589676.840      446510.035    20961029.646       -1735.283
        46.500          33.000
  22891414.002       15228.285        7538.750    22891410.914        -137.305
        47.250          30.000
  24719557.296     1235611.094      942218.008    24719554.568       -3703.823
        41.750          25.500
  22981541.925     -248265.762     -195005.512    22981539.129         659.829
        46.000          29.750
  21738115.821     -843395.250     -639910.605    21738113.097        2262.671
        46.500          32.250
  20901846.886     -273324.070     -213710.012    20901842.481         798.887
        46.500          33.500
  24013634.641    -1226155.180     -929878.684    24013631.062        3358.037
        46.750          30.750
  22324336.723     -447213.609     -340709.707    22324335.172        1125.522
        46.250          31.000
  25069305.204     1281756.309      979210.605    25069305.316       -3608.633
        39.750          21.000
  7  3 30 18  6 26.0000000  0 11 24  7  6 29 10 16 18 21 22 26 30
  21457712.074      535979.078      405175.184    21457709.916       -1523.794
        48.000          33.750
  20443660.432      231991.504      173227.582    20443657.430        -738.340
        47.250          34.000
  20961363.069      591412.293      447862.336    20961359.889       -1735.698
        46.250          32.500
  22891439.912       15365.863        7645.953    22891436.948        -137.866
        47.000          30.000
  24720261.941     1239314.852      945104.051    24720259.464       -3703.701
        41.500          25.750
  22981416.489     -248925.387     -195519.504    22981413.539         659.385
        46.000          29.500
  21737685.436     -845657.672     -641673.527    21737682.115        2262.236
        46.500          32.500
  20901694.975     -274122.910     -214332.484    20901691.087         798.750
        46.250          33.500
  24012995.899    -1229513.199     -932495.328    24012991.869        3357.988
        47.250          31.000
  22324122.822     -448338.891     -341586.551    22324121.188        1124.990
        46.500          30.500
  25069992.918     1285364.965      982022.535    25069992.598       -3608.511
        39.500          21.000
  7  3 30 18  6 27.0000000  0 11 24  7  6 29 10 16 18 21 22 26 30
  21458002.154      537502.945      406362.613    21457999.727       -1523.862
        48.250          33.500
  20443801.161      232730.094      173803.102    20443798.449        -738.794
        46.750          34.250
  20961692.498      593148.098      449214.906    20961690.129       -1736.055
        46.250          32.750
  22891466.123       15504.027        7753.613    22891463.159        -138.457
        46.750          30.000
  24720966.351     1243018.629      947990.109    24720964.327       -3703.755
        41.500          25.500
  22981290.982     -249584.453     -196033.063    22981288.513         658.750
        46.000          29.750
  21737255.198     -847919.758     -643436.195    21737251.377        2261.953
        46.500          32.500
  20901543.035     -274921.598     -214954.844    20901538.731         798.647
        45.750          33.500
  24012357.050    -1232871.125     -935111.891    24012352.836        3357.930
        47.000          30.500
  22323909.087     -449463.563     -342462.918    22323906.855        1124.331
        46.500          31.000
  25070679.423     1288973.426      984834.316    25070679.519       -3608.296
        39.500          21.750
  7  3 30 18  6 28.0000000  0 11 24  7  6 29 10 16 18 21 22 26 30
  21458292.178      539026.848      407550.063    21458289.757       -1523.901
        48.250          34.250
  20443941.931      233469.086      174378.938    20443938.527        -739.175
        46.500          34.250
  20962023.237      594884.305      450567.789    20962020.637       -1736.406
        46.250          32.750
  22891492.817       15642.699        7861.668    22891489.976        -138.853
        46.500          29.750
  24721671.191     1246722.332      950876.109    24721669.087       -3703.677
        41.500          25.500
  22981165.735     -250243.086     -196546.285    22981162.686         658.472
        46.000          29.500
  21736824.830     -850181.582     -645198.648    21736821.679        2261.748
        46.250          32.500
  20901390.766     -275720.176     -215577.109    20901386.804         798.452
        46.250          34.000
  24011718.113    -1236228.969     -937728.395    24011713.903        3357.939
        47.250          30.750
  22323694.826     -450587.660     -343338.836    22323692.764        1123.823
        46.500          31.250
  25071365.864     1292581.652      987645.914    25071365.646       -3608.062
        40.250          21.750
  7  3 30 18  6 29.0000000  0 11 24  7  6 29 10 16 18 21 22 26 30
  21458581.962      540550.781      408737.539    21458580.034       -1523.945
        48.500          34.000
  20444082.214      234208.414      174955.031    20444079.335        -739.512
        46.500          34.500
  20962353.693      596620.840      451920.930    20962351.020       -1736.724
        46.000          32.750
  22891519.501       15781.867        7970.109    22891516.613        -139.458
        46.750          30.250
  24722376.510     1250425.961      953762.047    24722373.806       -3703.623
        41.500          24.750
  22981040.445     -250901.188     -197059.094    22981037.978         657.871
        45.750          29.500
  21736394.532     -852443.098     -646960.871    21736390.668        2261.387
        46.500          32.750
  20901238.802     -276518.695     -216199.332    20901234.599         798.486
        46.000          34.000
  24011078.977    -1239586.746     -940344.836    24011074.831        3357.778
        47.250          30.500
  22323480.964     -451711.219     -344214.340    22323479.081        1123.247
        47.000          30.500
  25072052.328     1296189.629      990457.313    25072052.728       -3607.929
        40.000          22.000
  7  3 30 18  6 30.0000000  0 11 24  7  6 29 10 16 18 21 22 26 30
  21458872.060      542074.750      409925.051    21458870.197       -1523.877
        48.750          34.000
  20444222.650      234948.172      175531.469    20444219.848        -739.819
        47.000          33.750
  20962684.441      598357.711      453274.336    20962681.974       -1737.061
        45.750          32.000
  22891545.750       15921.574        8078.973    22891543.003        -139.897
        47.250          29.750
  24723080.898     1254129.520      956647.930    24723078.837       -3703.442
        41.000          25.500
  22980915.599     -251558.813     -197571.523    22980912.502         657.495
        46.000          29.500
  21735964.633     -854704.348     -648722.883    21735960.935        2261.196
        47.000          32.750
  20901087.069     -277317.086     -216821.457    20901082.631         798.438
        46.000          33.500
  24010440.377    -1242944.473     -942961.250    24010435.965        3357.681
        47.250          31.250
  22323267.356     -452834.215     -345089.402    22323265.413        1122.725
        46.000          31.000
  25072739.344     1299797.383      993268.547    25072738.722       -3607.593
        40.000          21.750
  7  3 30 18  6 31.0000000  0 11 24  7  6 29 10 16 18 21 22 26 30
  21459161.895      543598.633      411112.492    21459159.783       -1523.838
        48.500          34.000
  20444364.079      235688.176      176108.098    20444361.081        -740.083
        46.750          34.250
  20963014.996      600094.805      454627.918    20963012.671       -1737.285
        45.250          32.000
  22891572.486       16061.652        8188.133    22891569.562        -140.303
        47.250          29.750
  24723785.928     1257832.879      959533.664    24723783.451       -3703.242
        41.250          26.750
  22980790.504     -252216.066     -198083.672    22980787.809         657.061
        46.000          29.750
  21735534.116     -856965.441     -650484.773    21735530.599        2261.001
        46.500          32.750
  20900935.315     -278115.504     -217443.602    20900931.157         798.423
        46.000          34.000
  24009801.040    -1246302.281     -945577.715    24009797.018        3357.856
        47.250          31.000
  22323053.794     -453956.793     -345964.141    22323051.700        1122.285
        46.250          31.000
  25073425.328     1303404.734      996079.480    25073425.281       -3607.197
        39.500          22.000
  7  3 30 18  6 32.0000000  0 11 24  7  6 29 10 16 18 21 22 26 30
  21459452.057      545122.531      412299.949    21459449.648       -1523.877
        48.250          34.250
  20444504.942      236428.563      176685.016    20444502.057        -740.562
        47.000          34.250
  20963345.281      601832.246      455981.770    20963342.961       -1737.598
        45.250          31.750
  22891599.637       16202.211        8297.656    22891596.222        -140.840
        46.750          29.250
  24724490.682     1261536.148      962419.332    24724488.000       -3703.125
        40.500          26.500
  22980665.604     -252872.863     -198595.465    22980662.580         656.445
        46.500          30.000
  21735103.664     -859226.258     -652246.453    21735100.308        2260.669
        46.500          32.500
  20900782.935     -278913.852     -218065.699    20900779.099         798.262
        46.250          33.750
  24009162.298    -1249660.047     -948194.156    24009158.077        3357.729
        47.000          30.500
  22322840.607     -455078.824     -346838.449    22322838.515        1121.714
        46.000          31.250
  25074112.010     1307011.824      998890.188    25074111.739       -3606.924
        39.500          21.500
  7  3 30 18  6 33.0000000  0 11 24  7  6 29 10 16 18 21 22 26 30
  21459741.784      546646.473      413487.430    21459739.559       -1523.984
        48.250          34.000
  20444645.805      237169.379      177262.277    20444643.086        -740.981
        46.250          34.250
  20963676.618      603570.039      457335.895    20963673.403       -1737.959
        45.250          32.250
  22891626.012       16343.332        8407.617    22891623.667        -141.401
        46.500          29.750
  24725195.542     1265239.383      965304.953    24725192.571       -3703.183
        41.000          26.500
  22980540.832     -253529.168     -199106.879    22980537.651         656.089
        46.500          29.500
  21734673.011     -861486.785     -654007.902    21734669.882        2260.391
        46.500          32.500
  20900631.372     -279712.102     -218687.703    20900626.972         798.174
        46.250          34.000
  24008522.591    -1253017.723     -950810.527    24008518.950        3357.637
        47.000          29.750
  22322626.878     -456200.313     -347712.336    22322624.982        1121.235
        46.000          30.750
  25074798.528     1310618.719     1001700.746    25074798.149       -3606.802
        39.250          21.750
  7  3 30 18  6 34.0000000  0 11 24  7  6 29 10 16 18 21 22 26 30
  21460032.236      548170.516      414674.996    21460030.157       -1524.067
        48.500          34.000
  20444786.992      237910.629      177839.875    20444783.816        -741.445
        46.750          34.250
  20964007.013      605308.258      458690.340    20964004.060       -1738.398
        45.750          32.500
  22891652.877       16485.012        8518.016    22891650.586        -142.002
        46.250          30.000
  24725900.274     1268942.578      968190.563    24725897.846       -3703.193
        41.500          26.000
  22980416.195     -254184.930     -199617.863    22980412.991         655.527
        46.500          30.500
  21734243.744     -863746.977     -655769.090    21734239.546        2260.020
        47.000          32.500
  20900479.481     -280510.172     -219309.574    20900474.875         797.944
        46.500          34.000
  24007884.321    -1256375.293     -953426.816    24007880.589        3357.500
        47.000          30.250
  22322413.630     -457321.141     -348585.707    22322411.590        1120.566
        46.500          30.750
  25075484.550     1314225.406     1004511.145    25075484.706       -3606.587
        39.500          21.500
  7  3 30 18  6 35.0000000  0 11 24  7  6 29 10 16 18 21 22 26 30
  21460322.012      549694.613      415862.602    21460319.823       -1524.106
        48.000          34.000
  20444928.227      238652.305      178417.801    20444924.918        -741.860
        46.750          34.000
  20964337.874      607046.836      460045.070    20964335.140       -1738.657
        45.750          32.250
  22891680.242       16627.258        8628.859    22891677.032        -142.500
        46.500          29.000
  24726604.903     1272645.762      971076.156    24726602.206       -3703.130
        41.500          27.250
  22980291.090     -254840.180     -200128.445    22980288.066         655.063
        46.250          30.500
  21733813.154     -866006.836     -657530.023    21733810.050        2259.854
        46.750          32.500
  20900327.622     -281308.125     -219931.359    20900323.246         797.944
        47.000          34.250
  24007245.186    -1259732.777     -956043.031    24007241.108        3357.466
        47.250          29.750
  22322200.588     -458441.391     -349458.637    22322197.842        1119.917
        46.500          30.500
  25076170.746     1317831.891     1007321.387    25076170.719       -3606.406
        39.750          21.500
  7  3 30 18  6 36.0000000  0 11 24  7  6 29 10 16 18 21 22 26 30
  21460611.941      551218.742      417050.230    21460609.798       -1524.067
        48.000          34.000
  20445069.022      239394.363      178996.031    20445066.148        -742.168
        46.500          34.000
  20964669.012      608785.746      461400.070    20964666.168       -1739.068
        46.000          32.250
  22891707.367       16770.008        8740.090    22891704.559        -143.018
        46.750          30.250
  24727309.921     1276348.832      973961.672    24727306.889       -3703.057
        40.500          26.000
  22980166.449     -255494.945     -200638.656    22980163.552         654.521
        46.000          30.750
  21733383.472     -868266.434     -659290.754    21733379.719        2259.487
        46.750          32.750
  20900175.683     -282105.980     -220553.066    20900171.376         797.842
        47.250          34.500
  24006606.217    -1263090.195     -958659.203    24006602.068        3357.393
        47.500          30.500
  22321987.472     -459561.094     -350331.133    22321985.065        1119.521
        46.250          30.500
  25076857.194     1321438.129     1010131.434    25076856.718       -3606.230
        39.750          21.750
  7  3 30 18  6 37.0000000  0 11 24  7  6 29 10 16 18 21 22 26 30
  21460901.873      552743.016      418237.973    21460900.057       -1524.302
        48.250          34.250
  20445210.462      240136.949      179574.656    20445207.569        -742.803
        46.500          34.000
  20964999.857      610525.105      462755.402    20964996.869       -1739.487
        45.750          32.500
  22891734.330       16913.371        8851.805    22891731.631        -143.638
        47.000          30.750
  24728014.634     1280051.961      976847.215    24728011.770       -3703.149
        40.500          26.000
  22980042.099     -256149.121     -201148.402    22980039.291         653.901
        46.000          30.500
  21732953.598     -870525.625     -661051.156    21732949.741        2259.043
        46.500          32.500
  20900023.875     -282903.648     -221174.633    20900019.270         797.666
        47.250          34.500
  24005967.346    -1266447.461     -961275.246    24005963.249        3357.290
        47.250          30.500
  22321774.359     -460680.137     -351203.117    22321772.402        1118.799
        46.250          31.000
  25077543.422     1325044.195     1012941.340    25077543.607       -3605.874
        40.000          21.750
  7  3 30 18  6 38.0000000  0 11 24  7  6 29 10 16 18 21 22 26 30
  21461192.249      554267.348      419425.770    21461190.140       -1524.336
        48.250          34.250
  20445352.314      240879.910      180153.590    20445348.859        -743.140
        46.750          34.500
  20965330.960      612264.871      464111.063    20965328.404       -1739.922
        46.500          32.000
  22891762.220       17057.305        8963.961    22891759.261        -144.263
        47.250          29.500
  24728719.489     1283755.063      979732.746    24728716.309       -3703.076
        40.500          25.250
  22979918.108     -256802.797     -201657.762    22979914.878         653.481
        45.750          29.750
  21732523.498     -872784.523     -662811.336    21732520.095        2258.750
        46.750          33.500
  20899872.273     -283701.188     -221796.094    20899867.420         797.529
        47.000          34.500
  24005328.629    -1269804.645     -963891.230    24005324.273        3357.085
        47.250          30.750
  22321561.722     -461798.590     -352074.633    22321559.418        1118.174
        46.500          30.250
  25078229.772     1328650.086     1015751.121    25078229.707       -3605.781
        39.750          22.000
  7  3 30 18  6 39.0000000  0 11 24  7  6 29 10 16 18 21 22 26 30
  21461482.285      555791.652      420613.535    21461479.908       -1524.317
        48.000          34.500
  20445494.035      241623.199      180732.781    20445490.191        -743.379
        47.250          34.500
  20965661.990      614004.895      465466.926    20965659.044       -1740.239
        46.500          32.250
  22891789.493       17201.695        9076.473    22891786.370        -144.717
        47.000          29.750
  24729423.666     1287458.004      982618.152    24729420.973       -3702.910
        41.000          26.250
  22979793.060     -257456.043     -202166.789    22979790.502         652.998
        46.000          30.250
  21732093.977     -875043.199     -664571.344    21732090.160        2258.496
        46.500          32.500
  20899720.435     -284498.688     -222417.512    20899715.911         797.407
        47.000          34.500
  24004690.010    -1273161.824     -966507.211    24004685.697        3357.222
        47.250          30.250
  22321348.936     -462916.555     -352945.770    22321346.830        1117.627
        46.000          31.250
  25078915.507     1332255.645     1018560.633    25078915.851       -3605.439
        40.000          21.750
  7  3 30 18  6 40.0000000  0 11 24  7  6 29 10 16 18 21 22 26 30
  21461772.047      557315.996      421801.332    21461769.973       -1524.277
        48.000          34.750
  20445635.038      242366.934      181312.309    20445631.614        -743.882
        47.000          34.500
  20965992.759      615745.297      466823.086    20965990.797       -1740.513
        46.500          32.250
  22891817.213       17346.613        9189.391    22891814.073        -144.990
        47.000          30.250
  24730128.943     1291160.914      985503.531    24730125.613       -3702.744
        40.750          26.000
  22979668.514     -258108.770     -202675.410    22979666.256         652.588
        46.000          30.500
  21731663.525     -877301.566     -666331.113    21731660.622        2258.325
        46.500          32.250
  20899568.516     -285296.078     -223038.863    20899564.100         797.373
        47.000          34.750
  24004051.025    -1276518.918     -969123.129    24004046.377        3357.090
        47.250          30.500
  22321136.123     -464033.949     -353816.473    22321134.038        1117.153
        46.250          31.500
  25079601.419     1335860.977     1021369.973    25079601.879       -3605.103
        39.500          21.750
  7  3 30 18  6 41.0000000  0 11 24  7  6 29 10 16 18 21 22 26 30
  21462062.573      558840.273      422989.074    21462060.179       -1524.238
        48.250          34.500
  20445776.222      243110.898      181892.020    20445773.379        -744.175
        47.000          34.500
  20966324.397      617485.922      468179.418    20966321.969       -1740.708
        46.500          32.500
  22891844.883       17491.965        9302.652    22891842.013        -145.601
        47.000          30.500
  24730832.911     1294863.602      988388.738    24730830.571       -3702.598
        41.500          27.000
  22979544.794     -258761.160     -203183.766    22979542.022         652.144
        45.500          30.500
  21731234.437     -879559.801     -668090.777    21731230.762        2258.179
        46.500          33.000
  20899416.885     -286093.488     -223660.219    20899412.638         797.402
        46.750          34.750
  24003412.130    -1279876.090     -971739.109    24003408.094        3357.197
        47.250          31.500
  22320923.327     -465150.898     -354686.820    22320921.530        1116.660
        46.250          30.750
  25080288.113     1339465.965     1024179.047    25080287.865       -3604.819
        40.000          21.750
  7  3 30 18  6 42.0000000  0 11 24  7  6 29 10 16 18 21 22 26 30
  21462352.562      560364.645      424176.902    21462350.235       -1524.482
        48.250          34.500
  20445918.118      243855.340      182472.109    20445914.867        -744.692
        47.250          34.250
  20966656.059      619226.941      469536.063    20966652.893       -1741.275
        46.000          32.500
  22891872.358       17637.895        9416.363    22891869.365        -146.289
        47.000          31.000
  24731538.063     1298566.316      991273.969    24731535.059       -3702.817
        41.750          27.000
  22979420.661     -259412.992     -203691.691    22979417.978         651.567
        45.250          30.500
  21730804.211     -881817.637     -669850.133    21730800.788        2257.549
        46.750          33.000
  20899264.913     -286890.730     -224281.441    20899260.702         797.080
        46.250          34.500
  24002773.202    -1283233.121     -974354.977    24002769.224        3356.909
        47.000          30.500
  22320711.087     -466267.215     -355556.680    22320708.812        1115.977
        46.000          31.750
  25080973.337     1343070.742     1026987.969    25080973.748       -3604.819
        40.000          22.000
  7  3 30 18  6 43.0000000  0 11 24  7  6 29 10 16 18 21 22 26 30
  21462642.890      561889.164      425364.844    21462640.442       -1524.663
        48.250          34.250
  20446059.706      244600.320      183052.609    20446056.940        -745.171
        47.000          34.750
  20966987.402      620968.465      470893.086    20966984.417       -1741.821
        46.500          32.500
  22891900.324       17784.449        9530.566    22891897.610        -146.973
        46.250          30.000
  24732242.588     1302269.078      994159.230    24732239.581       -3702.871
        41.500          27.250
  22979296.875     -260064.203     -204199.129    22979294.118         650.825
        45.000          30.500
  21730374.764     -884075.113     -671609.203    21730371.329        2257.246
        46.500          32.750
  20899113.428     -287687.766     -224902.516    20899108.560         796.934
        46.250          34.000
  24002134.484    -1286589.988     -976970.715    24002130.244        3356.723
        47.500          30.000
  22320499.146     -467382.863     -356426.016    22320496.456        1115.327
        46.000          31.000
  25081659.627     1346675.379     1029796.773    25081659.529       -3604.477
        40.000          22.000
  7  3 30 18  6 44.0000000  0 11 24  7  6 29 10 16 18 21 22 26 30
  21462932.760      563413.871      426552.922    21462930.632       -1524.858
        48.500          34.500
  20446201.339      245345.809      183633.508    20446198.693        -745.771
        46.500          34.000
  20967318.450      622710.453      472250.484    20967315.878       -1742.178
        46.000          32.500
  22891928.736       17931.688        9645.293    22891925.742        -147.534
        46.250          30.500
  24732946.657     1305971.891      997044.535    24732944.370       -3702.925
        41.250          27.000
  22979173.362     -260714.801     -204706.082    22979170.057         650.234
        45.250          30.750
  21729945.948     -886332.133     -673367.922    21729941.580        2256.851
        46.500          32.250
  20898961.951     -288484.547     -225523.383    20898957.395         796.582
        46.000          34.500
  24001495.565    -1289946.637     -979586.281    24001491.410        3356.602
        47.250          30.000
  22320286.940     -468497.797     -357294.797    22320284.791        1114.570
        46.000          30.750
  25082345.337     1350279.957     1032605.531    25082345.772       -3604.429
        39.500          21.750
  7  3 30 18  6 45.0000000  0 11 24  7  6 29 10 16 18 21 22 26 30
  21463222.936      564938.668      427741.070    21463221.052       -1524.756
        48.250          34.000
  20446343.791      246091.770      184214.781    20446340.427        -746.021
        46.500          34.000
  20967650.371      624452.867      473608.203    20967647.897       -1742.544
        46.250          32.250
  22891956.471       18079.500        9760.473    22891953.927        -148.062
        46.750          30.250
  24733651.862     1309674.711      999929.844    24733648.828       -3702.832
        41.500          27.000
  22979049.255     -261364.836     -205212.598    22979046.503         649.834
        45.500          30.250
  21729516.310     -888588.828     -675126.387    21729512.192        2256.587
        46.000          32.500
  20898810.382     -289281.195     -226144.152    20898806.024         796.753
        46.500          34.500
  24000856.822    -1293303.168     -982201.762    24000852.895        3356.514
        47.250          30.000
  22320074.846     -469612.117     -358163.094    22320072.892        1114.082
        46.750          31.000
  25083031.602     1353884.363     1035414.145    25083031.638       -3604.209
        39.000          22.250
  7  3 30 18  6 46.0000000  0 11 24  7  6 29 10 16 18 21 22 26 30
  21463513.211      566463.391      428929.160    21463510.877       -1524.702
        48.250          35.000
  20446485.758      246837.988      184796.242    20446482.252        -746.426
        46.750          34.500
  20967981.853      626195.504      474966.098    20967979.265       -1742.847
        46.500          32.500
  22891984.867       18227.691        9875.941    22891981.998        -148.462
        46.500          30.500
  24734355.918     1313377.313     1002814.980    24734353.542       -3702.480
        41.750          26.750
  22978925.308     -262014.527     -205718.855    22978922.971         649.458
        46.000          30.500
  21729086.445     -890845.336     -676884.703    21729082.960        2256.406
        46.000          33.000
  20898658.713     -290077.836     -226764.914    20898654.503         796.607
        46.750          34.500
  24000218.286    -1296659.777     -984817.301    24000214.222        3356.606
        47.000          30.500
  22319863.027     -470726.027     -359031.074    22319860.854        1113.652
        46.750          31.250
  25083717.489     1357488.359     1038222.430    25083717.566       -3603.809
        38.750          22.500
  7  3 30 18  6 47.0000000  0 11 24  7  6 29 10 16 18 21 22 26 30
  21463802.929      567988.082      430117.230    21463800.957       -1524.624
        48.250          35.000
  20446627.909      247584.570      185377.992    20446624.660        -746.729
        46.500          34.500
  20968313.474      627938.430      476324.227    20968310.394       -1742.974
        46.750          32.500
  22892013.116       18376.359        9991.785    22892010.148        -148.838
        46.250          30.500
  24735060.707     1317079.844     1005700.078    24735058.196       -3702.417
        42.500          27.250
  22978802.133     -262663.770     -206224.762    22978799.503         649.028
        45.750          30.500
  21728657.282     -893101.621     -678642.844    21728653.575        2256.274
        45.750          33.000
  20898507.270     -290874.430     -227385.637    20898503.092         796.592
        46.750          34.500
  23999579.765    -1300016.359     -987432.820    23999575.577        3356.660
        47.250          30.750
  22319651.132     -471839.410     -359898.652    22319649.267        1113.169
        46.500          31.500
  25084402.536     1361092.098     1041030.539    25084403.466       -3603.628
        39.500          22.250
  7  3 30 18  6 48.0000000  0 11 24  7  6 29 10 16 18 21 22 26 30
  21464092.894      569512.664      431305.215    21464091.375       -1524.507
        48.000          34.250
  20446769.810      248331.363      185959.910    20446766.793        -746.836
        46.500          34.250
  20968645.223      629681.566      477682.520    20968642.599       -1743.232
        46.500          32.500
  22892041.575       18525.371       10107.891    22892038.554        -149.067
        45.000          29.500
  24735765.491     1320782.074     1008584.930    24735762.689       -3701.900
        42.000          26.750
  22978679.270     -263312.727     -206730.453    22978675.743         648.867
        45.500          29.750
  21728227.736     -895357.797     -680400.902    21728224.236        2256.099
        45.750          33.000
  20898355.960     -291671.117     -228006.438    20898350.778         796.792
        46.250          34.500
  23998940.708    -1303373.039     -990048.410    23998936.941        3356.743
        47.000          31.000
  22319439.388     -472952.406     -360765.918    22319437.698        1112.886
        46.500          31.000
  25085088.620     1364695.379     1043838.281    25085088.859       -3603.012
        39.500          22.250
  7  3 30 18  6 49.0000000  0 11 24  7  6 29 10 16 18 21 22 26 30
  21464383.491      571037.156      432493.129    21464381.440       -1524.536
        48.250          34.500
  20446911.930      249078.453      186542.059    20446909.156        -747.266
        46.500          34.500
  20968977.261      631424.934      479040.980    20968974.616       -1743.726
        46.500          33.000
  22892069.803       18674.809       10224.344    22892066.757        -149.663
        46.000          30.250
  24736469.445     1324484.199     1011469.695    24736467.215       -3701.997
        41.500          27.250
  22978555.611     -263961.254     -207235.801    22978552.441         648.335
        45.500          30.250
  21727798.687     -897613.785     -682158.813    21727795.253        2255.928
        46.000          34.000
  20898204.298     -292467.801     -228627.227    20898199.618         796.636
        46.500          34.250
  23998302.018    -1306729.770     -992664.043    23998298.415        3356.694
        47.500          31.000
  22319227.312     -474064.898     -361632.797    22319225.839        1112.227
        46.500          31.500
  25085774.211     1368298.379     1046645.809    25085774.857       -3602.881
        39.250          22.500
  7  3 30 18  6 50.0000000  0 11 24  7  6 29 10 16 18 21 22 26 30
  21464673.383      572561.727      433681.113    21464671.636       -1524.561
        48.250          34.500
  20447053.816      249825.977      187124.547    20447050.843        -747.661
        46.500          34.750
  20969309.059      633168.672      480399.734    20969306.457       -1743.833
        46.000          33.250
  22892098.836       18824.785       10341.211    22892095.469        -150.122
        46.250          30.500
  24737174.277     1328186.266     1014354.426    24737171.613       -3702.017
        42.000          27.500
  22978432.093     -264609.281     -207740.750    22978429.136         647.759
        45.500          31.500
  21727368.793     -899869.469     -683916.488    21727365.923        2255.542
        45.750          33.250
  20898052.392     -293264.344     -229247.906    20898047.930         796.475
        46.500          34.250
  23997663.088    -1310086.395     -995279.586    23997659.437        3356.636
        47.750          31.500
  22319015.634     -475176.809     -362499.223    22319014.258        1111.641
        46.500          31.500
  25086460.022     1371901.117     1049453.141    25086460.302       -3602.641
        39.500          22.250
  7  3 30 18  6 51.0000000  0 11 24  7  6 29 10 16 18 21 22 26 30
  21464963.571      574086.273      434869.070    21464961.599       -1524.438
        48.500          34.500
  20447196.497      250573.813      187707.270    20447193.699        -747.920
        47.250          34.500
  20969640.905      634912.727      481758.734    20969637.949       -1744.194
        45.500          33.250
  22892126.962       18975.250       10458.461    22892123.755        -150.635
        46.000          30.000
  24737878.632     1331888.152     1017239.016    24737876.065       -3701.729
        42.500          27.750
  22978309.032     -265256.887     -208245.383    22978305.850         647.393
        45.500          30.750
  21726940.351     -902124.918     -685673.984    21726937.097        2255.327
        46.000          33.750
  20897900.907     -294060.859     -229868.566    20897896.236         796.548
        46.000          34.250
  23997024.400    -1313443.039     -997895.152    23997020.611        3356.714
        47.500          30.500
  22318804.093     -476288.238     -363365.273    22318802.366        1111.216
        46.500          31.250
  25087145.360     1375503.566     1052260.230    25087145.586       -3602.236
        39.750          22.250
  7  3 30 18  6 52.0000000  0 11 24  7  6 29 10 16 18 21 22 26 30
  21465253.709      575610.734      436056.957    21465251.664       -1524.541
        48.000          34.250
  20447338.821      251321.945      188290.238    20447335.962        -748.296
        46.750          34.000
  20969972.696      636656.965      483117.879    20969969.803       -1744.448
        45.750          32.500
  22892155.675       19126.094       10576.000    22892152.529        -151.104
        46.000          30.000
  24738583.321     1335589.895     1020123.480    24738580.519       -3701.606
        42.500          26.500
  22978185.538     -265904.133     -208749.727    22978182.704         647.041
        45.500          30.000
  21726511.073     -904380.211     -687431.348    21726507.861        2255.122
        45.750          33.000
  20897749.220     -294857.402     -230489.246    20897744.623         796.479
        46.250          34.000
  23996385.664    -1316799.738    -1000510.762    23996382.206        3356.655
        46.750          30.500
  22318592.538     -477399.203     -364230.957    22318591.131        1110.757
        46.500          30.750
  25087830.645     1379105.629     1055067.035    25087831.062       -3601.909
        39.750          22.250
  7  3 30 18  6 53.0000000  0 11 24  7  6 29 10 16 18 21 22 26 30
  21465543.736      577135.121      437244.797    21465541.664       -1524.317
        48.000          34.250
  20447481.325      252070.348      188873.402    20447478.223        -748.555
        47.000          34.000
  20970304.466      638401.473      484477.238    20970301.930       -1744.712
        46.500          32.000
  22892184.517       19277.391       10693.895    22892181.105        -151.523
        46.500          29.500
  24739287.163     1339291.488     1023007.836    24739284.409       -3701.558
        42.500          27.500
  22978061.876     -266550.957     -209253.742    22978059.495         646.611
        45.500          30.000
  21726081.959     -906635.301     -689188.570    21726078.750        2255.020
        46.000          33.250
  20897597.280     -295653.914     -231109.910    20897593.211         796.465
        46.500          33.500
  23995747.093    -1320156.473    -1003126.398    23995743.438        3356.870
        46.750          31.000
  22318381.821     -478509.723     -365096.293    22318379.884        1110.298
        46.750          30.250
  25088516.147     1382707.359     1057873.566    25088516.074       -3601.528
        39.250          22.250
  7  3 30 18  6 54.0000000  0 11 24  7  6 29 10 16 18 21 22 26 30
  21465833.982      578659.359      438432.516    21465831.892       -1524.160
        48.000          33.750
  20447624.110      252818.980      189456.750    20447620.672        -748.740
        46.750          34.250
  20970636.325      640146.133      485836.715    20970634.092       -1744.863
        46.500          32.250
  22892213.651       19428.992       10812.031    22892209.988        -151.807
        47.000          29.500
  24739991.697     1342992.801     1025891.973    24739989.371       -3701.226
        43.000          27.250
  22977939.590     -267197.516     -209757.555    22977936.390         646.313
        45.500          30.000
  21725652.701     -908890.313     -690945.715    21725649.914        2255.024
        46.000          33.000
  20897446.103     -296450.547     -231730.656    20897441.736         796.680
        47.000          33.750
  23995108.269    -1323513.336    -1005742.129    23995104.444        3356.924
        46.500          30.500
  22318170.265     -479619.902     -365961.371    22318168.492        1110.005
        46.250          31.250
  25089201.304     1386308.672     1060679.785    25089201.269       -3601.108
        39.500          22.250
  7  3 30 18  6 55.0000000  0 11 24  7  6 29 10 16 18 21 22 26 30
  21466124.044      580183.559      439620.199    21466121.862       -1524.199
        48.000          33.500
  20447766.128      253567.910      190040.332    20447763.531        -749.229
        47.000          34.250
  20970968.507      641891.078      487196.406    20970965.812       -1745.054
        45.750          32.000
  22892242.493       19581.043       10930.508    22892238.589        -152.319
        46.750          29.750
  24740696.353     1346693.957     1028775.988    24740693.343       -3701.143
        43.000          27.250
  22977816.893     -267843.652     -210261.043    22977813.189         645.903
        45.750          30.500
  21725223.679     -911145.098     -692702.691    21725220.405        2254.756
        45.250          33.250
  20897294.417     -297247.145     -232351.387    20897290.113         796.563
        46.750          34.000
  23994469.224    -1326870.184    -1008357.855    23994465.601        3356.729
        46.750          31.000
  22317959.289     -480729.543     -366826.027    22317957.286        1109.370
        46.000          30.500
  25089886.693     1389909.668     1063485.750    25089886.752       -3600.801
        39.500          21.750
  7  3 30 18  6 56.0000000  0 11 24  7  6 29 10 16 18 21 22 26 30
  21466413.846      581707.859      440807.965    21466411.780       -1524.351
        48.250          34.250
  20447909.209      254317.297      190624.270    20447905.996        -749.697
        46.750          34.500
  20971300.489      643636.441      488556.434    20971297.817       -1745.630
        46.250          32.000
  22892271.424       19733.684       11049.441    22892267.922        -152.983
        46.750          29.500
  24741400.500     1350395.133     1031660.023    24741398.042       -3701.191
        43.000          27.000
  22977693.605     -268489.227     -210764.090    22977690.698         645.229
        46.000          30.500
  21724795.246     -913399.520     -694459.379    21724791.852        2254.292
        45.250          32.500
  20897142.658     -298043.582     -232971.984    20897138.293         796.357
        46.500          34.250
  23993830.437    -1330226.945    -1010973.508    23993827.068        3356.631
        47.000          30.500
  22317748.279     -481838.594     -367690.227    22317746.244        1108.691
        46.000          30.250
  25090571.949     1393510.492     1066291.590    25090571.798       -3600.732
        39.500          21.750
  7  3 30 18  6 57.0000000  0 11 24  7  6 29 10 16 18 21 22 26 30
  21466703.885      583232.176      441995.742    21466701.830       -1524.336
        48.250          33.500
  20448051.249      255067.090      191208.520    20448048.681        -750.044
        47.000          34.250
  20971632.952      645382.113      489916.691    20971630.418       -1745.849
        46.000          32.500
  22892300.471       19886.832       11168.770    22892297.108        -153.506
        45.750          30.000
  24742104.687     1354096.203     1034543.973    24742102.344       -3701.016
        43.250          26.750
  22977570.749     -269134.352     -211266.781    22977568.053         644.824
        46.000          30.000
  21724366.066     -915653.691     -696215.879    21724362.699        2253.950
        45.000          32.500
  20896991.553     -298839.926     -233592.523    20896986.995         796.294
        46.500          34.000
  23993191.337    -1333583.641    -1013589.121    23993188.487        3356.587
        47.000          30.750
  22317537.232     -482947.094     -368553.992    22317535.063        1108.135
        46.250          30.250
  25091257.450     1397111.020     1069097.172    25091256.921       -3600.434
        39.250          21.250
  7  3 30 18  6 58.0000000  0 11 24  7  6 29 10 16 18 21 22 26 30
  21466994.250      584756.578      443183.586    21466991.827       -1524.448
        47.750          33.750
  20448194.609      255817.297      191793.090    20448191.561        -750.454
        47.000          34.750
  20971965.028      647128.176      491277.254    20971962.384       -1746.367
        46.250          32.000
  22892329.784       20040.516       11288.520    22892326.397        -154.004
        46.000          30.000
  24742808.680     1357797.227     1037427.887    24742806.501       -3700.982
        43.250          27.000
  22977448.436     -269778.938     -211769.063    22977445.415         644.268
        46.250          29.750
  21723936.396     -917907.516     -697972.102    21723933.412        2253.594
        45.000          32.250
  20896839.443     -299636.148     -234212.949    20896835.434         796.230
        46.500          33.750
  23992553.525    -1336940.254    -1016204.656    23992549.646        3356.523
        47.250          30.250
  22317326.546     -484055.023     -369417.309    22317324.404        1107.607
        46.250          30.250
  25091942.497     1400711.355     1071902.625    25091942.094       -3600.356
        39.750          21.750
  7  3 30 18  6 59.0000000  0 11 24  7  6 29 10 16 18 21 22 26 30
  21467284.273      586280.930      444371.395    21467282.202       -1524.263
        48.000          33.750
  20448337.203      256567.852      192377.938    20448334.257        -750.630
        47.250          34.500
  20972297.500      648874.523      492638.043    20972295.036       -1746.455
        46.250          32.000
  22892359.058       20194.652       11408.629    22892355.684        -154.229
        45.500          29.500
  24743513.203     1361498.137     1040311.707    24743510.557       -3700.815
        43.000          27.500
  22977325.758     -270423.117     -212271.020    22977322.736         643.960
        46.000          30.000
  21723507.928     -920161.168     -699728.195    21723504.839        2253.628
        45.500          32.750
  20896688.371     -300432.340     -234833.367    20896684.238         796.230
        46.250          34.250
  23991914.475    -1340296.863    -1018820.195    23991910.554        3356.699
        47.250          30.500
  22317115.378     -485162.441     -370280.230    22317113.694        1107.197
        46.500          30.500
  25092627.691     1404311.355     1074707.809    25092627.036       -3599.805
        39.500          22.000
  7  3 30 18  7  0.0000000  0 11 24  7  6 29 10 16 18 21 22 26 30
  21467574.306      587805.277      445559.199    21467572.324       -1524.297
        48.250          34.250
  20448480.052      257318.734      192963.039    20448477.145        -750.991
        47.250          34.500
  20972629.590      650621.176      493999.066    20972627.430       -1746.870
        46.250          32.000
  22892388.732       20349.281       11529.121    22892384.742        -154.834
        46.000          30.000
  24744217.571     1365198.910     1043195.426    24744214.741       -3700.635
        43.000          27.500
  22977203.443     -271066.863     -212772.641    22977200.180         643.604
        46.250          30.000
  21723079.117     -922414.527     -701484.063    21723075.957        2253.306
        45.750          32.500
  20896536.797     -301228.488     -235453.742    20896532.644         796.191
        46.250          34.500
  23991275.894    -1343653.461    -1021435.719    23991271.692        3356.670
        47.250          31.000
  22316904.853     -486269.352     -371142.758    22316903.338        1106.699
        46.750          29.750
  25093313.168     1407911.113     1077512.813    25093312.198       -3599.556
        40.000          22.250
  7  3 30 18  7  1.0000000  0 11 24  7  6 29 10 16 18 21 22 26 30
  21467864.275      589329.547      446746.941    21467862.193       -1524.302
        48.000          34.500
  20448623.018      258069.879      193548.348    20448619.665        -751.362
        47.500          34.500
  20972962.037      652368.051      495360.273    20972959.987       -1747.061
        46.000          31.500
  22892417.931       20504.324       11649.938    22892414.787        -155.376
        46.500          30.500
  24744921.806     1368899.504     1046079.004    24744918.671       -3700.552
        43.500          28.000
  22977081.087     -271710.211     -213273.949    22977077.839         643.062
        46.000          30.750
  21722650.630     -924667.770     -703239.840    21722647.217        2253.081
        45.500          32.750
  20896385.209     -302024.637     -236074.117    20896381.148         796.016
        46.000          34.250
  23990637.196    -1347010.113    -1024051.289    23990632.793        3356.602
        47.500          30.750
  22316694.170     -487375.797     -372004.922    22316692.361        1106.138
        46.500          29.750
  25093997.396     1411510.449     1080317.469    25093996.837       -3599.229
        39.750          22.750
  7  3 30 18  7  2.0000000  0 11 24  7  6 29 10 16 18 21 22 26 30
  21468154.591      590853.875      447934.727    21468152.264       -1524.468
        48.000          34.000
  20448766.311      258821.461      194134.000    20448762.962        -751.894
        47.250          34.250
  20973294.786      654115.320      496721.773    20973292.119       -1747.393
        46.000          31.500
  22892447.613       20659.887       11771.145    22892444.117        -155.928
        46.250          30.000
  24745625.968     1372600.070     1048962.563    24745622.921       -3700.630
        43.250          27.000
  22976958.460     -272353.066     -213774.883    22976955.733         642.554
        46.500          30.000
  21722221.718     -926920.680     -704995.352    21722218.259        2252.671
        46.000          32.500
  20896233.460     -302820.691     -236694.418    20896229.420         795.938
        46.000          34.000
  23989998.175    -1350366.684    -1026666.801    23989994.218        3356.611
        47.750          30.750
  22316483.443     -488481.645     -372866.621    22316482.090        1105.483
        46.000          29.750
  25094682.734     1415109.609     1083122.012    25094681.701       -3599.013
        39.500          22.500
  7  3 30 18  7  3.0000000  0 11 24  7  6 29 10 16 18 21 22 26 30
  21468444.175      592378.230      449122.539    21468442.650       -1524.326
        48.500          34.000
  20448909.028      259573.426      194719.941    20448906.304        -752.080
        47.500          33.500
  20973627.185      655862.930      498083.543    20973624.587       -1747.656
        46.250          32.000
  22892477.597       20815.965       11892.766    22892474.072        -156.274
        46.250          30.500
  24746330.171     1376300.527     1051846.035    24746326.955       -3700.303
        43.250          27.000
  22976835.871     -272995.434     -214275.430    22976833.300         642.178
        46.000          29.750
  21721793.287     -929173.320     -706750.652    21721789.602        2252.671
        45.750          31.750
  20896082.399     -303616.629     -237314.633    20896077.975         795.991
        46.500          34.000
  23989359.520    -1353723.172    -1029282.250    23989355.639        3356.499
        47.500          31.000
  22316273.729     -489586.969     -373727.914    22316272.418        1105.161
        46.250          29.500
  25095366.740     1418708.492     1085926.328    25095366.285       -3598.642
        40.000          22.500
  7  3 30 18  7  4.0000000  0 11 24  7  6 29 10 16 18 21 22 26 30
  21468734.310      593902.359      450310.172    21468732.209       -1524.028
        48.000          33.750
  20449052.007      260325.527      195305.996    20449049.611        -752.251
        47.000          34.000
  20973959.886      657610.633      499445.391    20973957.490       -1747.730
        46.500          31.500
  22892507.005       20972.316       12014.598    22892503.426        -156.489
        46.250          29.750
  24747034.417     1380000.676     1054729.270    24747030.896       -3700.015
        43.500          27.500
  22976713.760     -273637.594     -214775.816    22976711.289         642.100
        46.250          29.750
  21721364.496     -931425.938     -708505.938    21721361.088        2252.534
        45.500          32.500
  20895931.118     -304412.734     -237934.973    20895926.755         796.118
        46.500          33.750
  23988721.040    -1357079.887    -1031897.871    23988716.722        3356.807
        47.250          30.500
  22316063.176     -490691.980     -374588.965    22316061.411        1104.771
        46.500          29.750
  25096052.108     1422306.902     1088730.281    25096051.521       -3598.237
        40.000          22.500
  7  3 30 18  7  5.0000000  0 11 24  7  6 29 10 16 18 21 22 26 30
  21469024.239      595426.445      451497.762    21469022.451       -1524.063
        48.000          34.000
  20449195.517      261077.926      195892.273    20449192.446        -752.568
        46.500          34.250
  20974292.105      659358.559      500807.406    20974289.847       -1748.125
        46.500          31.750
  22892537.130       21129.094       12136.762    22892534.020        -157.070
        46.250          29.750
  24747738.090     1383700.629     1057612.348    24747735.104       -3699.956
        43.250          27.250
  22976591.854     -274279.336     -215275.883    22976589.209         641.460
        46.250          30.000
  21720935.862     -933678.348     -710261.063    21720932.817        2252.266
        46.000          32.000
  20895779.371     -305208.859     -238555.328    20895774.796         796.108
        46.250          34.000
  23988082.323    -1360436.602    -1034513.492    23988077.779        3356.631
        47.500          30.250
  22315852.967     -491796.551     -375449.668    22315851.485        1104.463
        46.250          29.500
  25096736.250     1425904.945     1091533.945    25096736.153       -3597.998
        40.000          22.500
  7  3 30 18  7  6.0000000  0 11 24  7  6 29 10 16 18 21 22 26 30
  21469314.266      596950.582      452685.398    21469312.233       -1524.106
        48.500          34.000
  20449339.134      261830.738      196478.879    20449335.794        -753.018
        46.250          34.500
  20974625.353      661106.879      502169.738    20974622.666       -1748.574
        46.500          32.250
  22892566.426       21286.406       12259.344    22892563.557        -157.515
        46.500          30.000
  24748442.567     1387400.551     1060495.398    24748439.235       -3699.814
        43.000          28.000
  22976470.172     -274920.594     -215775.563    22976467.064         640.991
        46.000          30.000
  21720506.558     -935930.445     -712015.945    21720503.698        2252.012
        45.750          32.500
  20895627.856     -306004.828     -239175.570    20895623.485         795.869
        47.000          34.750
  23987443.469    -1363793.262    -1037129.066    23987439.085        3356.650
        47.750          31.000
  22315643.402     -492900.492     -376309.879    22315641.249        1103.608
        46.250          29.500
  25097421.263     1429502.770     1094337.426    25097420.928       -3597.676
        40.250          22.500
  7  3 30 18  7  7.0000000  0 11 24  7  6 29 10 16 18 21 22 26 30
  21469604.988      598474.660      453872.988    21469602.489       -1524.092
        48.000          34.500
  20449482.104      262583.855      197065.723    20449479.075        -753.188
        46.500          35.000
  20974957.872      662855.453      503532.262    20974955.743       -1748.687
        45.750          32.250
  22892596.948       21444.164       12382.273    22892593.291        -158.052
        46.500          30.750
  24749146.644     1391100.340     1063378.344    24749143.494       -3699.629
        42.750          28.000
  22976348.589     -275561.434     -216274.918    22976345.165         640.615
        46.500          30.500
  21720078.751     -938182.355     -713770.680    21720075.298        2251.768
        46.000          32.500
  20895476.212     -306800.785     -239795.797    20895471.941         795.903
        46.750          34.500
  23986804.279    -1367149.922    -1039744.648    23986800.069        3356.592
        47.750          32.000
  22315432.796     -494003.965     -377169.730    22315431.010        1103.262
        45.500          30.000
  25098105.239     1433100.270     1097140.664    25098105.608       -3597.246
        40.250          22.750
  7  3 30 18  7  8.0000000  0 11 24  7  6 29 10 16 18 21 22 26 30
  21469894.730      599998.730      455060.578    21469892.721       -1524.063
        48.000          34.000
  20449625.466      263337.340      197652.848    20449622.184        -753.623
        46.000          35.000
  20975290.609      664604.344      504895.035    20975288.082       -1749.126
        45.750          32.500
  22892626.968       21602.383       12505.563    22892623.141        -158.438
        46.250          31.250
  24749850.368     1394800.016     1066261.211    24749847.575       -3699.775
        42.500          27.000
  22976226.153     -276201.844     -216773.938    22976223.490         640.181
        46.250          30.500
  21719650.740     -940434.008     -715525.207    21719646.794        2251.494
        46.000          33.000
  20895325.117     -307596.715     -240416.004    20895320.223         795.889
        46.000          34.000
  23986165.685    -1370506.602    -1042360.242    23986161.872        3356.714
        47.250          31.250
  22315222.701     -495106.930     -378029.180    22315220.796        1102.681
        46.000          30.250
  25098790.147     1436697.438     1099943.656    25098790.300       -3596.812
        39.500          22.500
  7  3 30 18  7  9.0000000  0 11 24  7  6 29 10 16 18 21 22 26 30
  21470184.436      601522.848      456248.199    21470182.628       -1524.146
        48.250          34.250
  20449769.044      264091.195      198240.266    20449766.138        -754.053
        46.500          34.500
  20975623.725      666353.570      506258.074    20975620.973       -1749.316
        46.250          32.250
  22892657.218       21761.133       12629.258    22892653.963        -158.975
        46.500          30.250
  24750554.560     1398499.563     1069143.973    24750551.598       -3699.463
        42.500          27.750
  22976104.327     -276841.770     -217272.574    22976101.402         639.727
        46.000          30.000
  21719221.631     -942685.398     -717279.535    21719218.656        2251.343
        46.000          32.500
  20895173.311     -308392.539     -241036.125    20895168.997         795.859
        46.500          33.750
  23985526.988    -1373863.188    -1044975.758    23985523.086        3356.655
        47.000          30.500
  22315013.312     -496209.355     -378888.207    22315010.847        1102.163
        46.500          30.500
  25099474.558     1440294.414     1102746.492    25099474.451       -3596.675
        39.250          22.500
  7  3 30 18  7 10.0000000  0 11 24  7  6 29 10 16 18 21 22 26 30
  21470474.963      603046.973      457435.836    21470472.718       -1524.175
        48.250          34.000
  20449912.583      264845.430      198827.980    20449909.768        -754.502
        47.000          35.000
  20975956.329      668103.137      507621.371    20975953.662       -1749.819
        46.250          32.000
  22892687.573       21920.375       12753.344    22892684.229        -159.585
        46.750          30.000
  24751258.266     1402199.086     1072026.719    24751255.617       -3699.536
        43.000          27.750
  22975982.679     -277481.215     -217770.844    22975979.605         639.126
        46.000          29.750
  21718793.340     -944936.508     -719033.656    21718790.056        2250.850
        46.250          32.250
  20895021.846     -309188.262     -241656.164    20895017.851         795.601
        46.500          34.000
  23984888.150    -1377219.719    -1047591.234    23984884.181        3356.426
        47.000          31.250
  22314803.431     -497311.203     -379746.785    22314801.408        1101.504
        45.750          30.500
  25100159.250     1443891.117     1105549.109    25100158.995       -3596.528
        39.500          22.750
  7  3 30 18  7 11.0000000  0 11 24  7  6 29 10 16 18 21 22 26 30
  21470764.530      604571.258      458623.590    21470762.505       -1524.326
        48.250          33.750
  20450055.952      265600.180      199416.098    20450053.206        -754.961
        47.000          34.750
  20976289.648      669853.188      508985.051    20976286.722       -1750.278
        46.250          31.500
  22892718.060       22080.246       12877.914    22892714.642        -160.146
        46.000          30.250
  24751962.812     1405898.613     1074909.465    24751959.917       -3699.526
        43.000          27.250
  22975861.394     -278120.055     -218268.645    22975858.502         638.530
        46.250          30.000
  21718364.792     -947187.215     -720787.453    21718362.024        2250.474
        46.250          33.000
  20894870.622     -309983.805     -242276.070    20894866.328         795.537
        46.000          34.500
  23984249.470    -1380576.090    -1050206.586    23984245.271        3356.299
        46.750          31.000
  22314594.090     -498412.375     -380604.836    22314591.585        1100.845
        45.750          30.500
  25100843.717     1447487.680     1108351.613    25100843.289       -3596.475
        39.500          22.500
  7  3 30 18  7 12.0000000  0 11 24  7  6 29 10 16 18 21 22 26 30
  21471054.585      606095.574      459811.367    21471052.546       -1524.287
        47.750          34.000
  20450199.722      266355.359      200004.551    20450196.785        -755.439
        46.500          34.500
  20976622.339      671603.574      510348.980    20976620.276       -1750.527
        46.500          31.500
  22892748.101       22240.664       13002.910    22892745.147        -160.571
        46.000          30.000
  24752666.311     1409598.102     1077792.188    24752663.420       -3699.443
        43.000          27.500
  22975740.075     -278758.422     -218766.070    22975736.848         638.242
        46.250          29.500
  21717936.889     -949437.621     -722541.016    21717933.504        2250.308
        46.000          33.000
  20894719.277     -310779.188     -242895.848    20894714.886         795.400
        46.000          34.000
  23983610.661    -1383932.383    -1052821.875    23983606.708        3356.274
        46.500          31.500
  22314384.519     -499512.992     -381462.469    22314382.450        1100.415
        45.500          29.750
  25101527.885     1451084.027     1111153.961    25101527.779       -3596.304
        39.750          22.500
  7  3 30 18  7 13.0000000  0 11 24  7  6 29 10 16 18 21 22 26 30
  21471344.314      607619.934      460999.176    21471342.709       -1524.355
        48.000          34.000
  20450343.444      267110.906      200593.297    20450340.769        -755.820
        46.750          34.250
  20976955.584      673354.316      511713.195    20976953.215       -1750.996
        46.500          31.750
  22892779.263       22401.563       13128.285    22892776.073        -161.187
        46.250          30.750
  24753370.246     1413297.496     1080674.828    24753367.328       -3699.390
        43.000          27.500
  22975618.725     -279396.270     -219263.094    22975615.381         637.515
        46.250          29.750
  21717509.005     -951687.766     -724294.375    21717505.343        2250.054
        46.250          32.500
  20894567.820     -311574.508     -243515.582    20894563.328         795.254
        46.500          34.000
  23982972.246    -1387288.633    -1055437.133    23982968.129        3356.235
        47.000          31.250
  22314175.526     -500613.039     -382319.652    22314173.344        1099.849
        46.000          29.750
  25102212.632     1454680.098     1113956.094    25102211.718       -3595.991
        39.500          22.500
  7  3 30 18  7 14.0000000  0 11 24  7  6 29 10 16 18 21 22 26 30
  21471635.186      609144.414      462187.086    21471632.888       -1524.580
        47.500          33.750
  20450487.665      267866.918      201182.391    20450484.471        -756.289
        47.000          34.000
  20977288.845      675105.477      513077.730    20977286.280       -1751.348
        46.500          32.000
  22892809.697       22563.074       13254.141    22892806.259        -161.709
        46.250          30.500
  24754074.037     1416996.902     1083557.484    24754071.361       -3699.438
        43.250          27.250
  22975496.888     -280033.590     -219759.711    22975493.871         637.061
        45.750          29.750
  21717080.652     -953937.531     -726047.438    21717076.912        2249.531
        46.500          33.000
  20894416.395     -312369.652     -244135.180    20894412.210         795.024
        46.250          34.000
  23982333.827    -1390644.711    -1058052.258    23982329.664        3356.001
        47.000          31.750
  22313966.097     -501712.473     -383176.359    22313964.027        1099.038
        46.250          30.000
  25102896.550     1458275.992     1116758.066    25102896.118       -3595.723
        40.000          22.750
  7  3 30 18  7 15.0000000  0 11 24  7  6 29 10 16 18 21 22 26 30
  21471924.758      610669.078      463375.133    21471923.273       -1524.839
        47.500          33.500
  20450631.404      268623.492      201771.930    20450628.433        -756.953
        47.000          34.500
  20977622.018      676857.172      514442.680    20977619.640       -1752.051
        46.500          31.750
  22892840.925       22725.262       13380.523    22892837.511        -162.524
        46.500          30.750
  24754777.811     1420696.406     1086440.219    24754775.502       -3699.697
        43.500          28.750
  22975375.912     -280670.223     -220255.785    22975372.792         636.191
        45.500          30.000
  21716652.774     -956186.852     -727800.156    21716648.890        2249.058
        45.750          32.750
  20894265.445     -313164.520     -244754.555    20894261.070         794.609
        45.500          33.750
  23981695.089    -1394000.582    -1060667.223    23981690.749        3355.698
        46.750          31.250
  22313757.190     -502811.164     -384032.484    22313754.379        1098.267
        46.250          29.000
  25103580.868     1461871.828     1119560.004    25103580.343       -3595.825
        40.000          22.750
  7  3 30 18  7 16.0000000  0 11 24  7  6 29 10 16 18 21 22 26 30
  21472214.989      612193.891      464563.289    21472213.060       -1524.893
        47.000          33.750
  20450775.780      269380.574      202361.867    20450772.919        -757.388
        47.000          34.000
  20977955.872      678609.293      515807.977    20977953.107       -1752.363
        46.500          31.500
  22892871.498       22888.113       13507.418    22892868.086        -163.232
        46.750          30.250
  24755482.302     1424395.949     1089322.973    24755479.875       -3699.634
        43.500          28.500
  22975254.791     -281306.273     -220751.414    22975251.436         635.718
        45.500          30.000
  21716224.245     -958435.789     -729552.574    21716221.160        2248.662
        46.000          32.750
  20894114.365     -313959.176     -245373.770    20894109.743         794.458
        46.000          34.000
  23981056.608    -1397356.262    -1063282.035    23981052.361        3355.596
        47.000          31.500
  22313548.500     -503909.152     -384888.055    22313545.868        1097.544
        46.250          29.250
  25104265.157     1465467.523     1122361.844    25104264.843       -3595.703
        40.250          22.750
  7  3 30 18  7 17.0000000  0 11 24  7  6 29 10 16 18 21 22 26 30
  21472505.213      613718.738      465751.484    21472503.286       -1524.775
        47.000          34.000
  20450919.431      270138.059      202952.113    20450916.344        -757.651
        46.500          34.000
  20978289.124      680361.766      517173.531    20978286.529       -1752.593
        46.500          31.500
  22892902.460       23051.473       13634.719    22892899.477        -163.623
        47.000          30.750
  24756186.177     1428095.418     1092205.668    24756183.320       -3699.287
        43.750          28.000
  22975133.764     -281941.832     -221246.664    22975131.232         635.342
        45.500          30.000
  21715796.391     -960684.422     -731304.754    21715793.709        2248.511
        46.000          33.000
  20893962.857     -314753.762     -245992.926    20893958.734         794.541
        46.000          34.500
  23980417.733    -1400711.898    -1065896.816    23980413.623        3355.605
        47.250          31.250
  22313339.501     -505006.602     -385743.211    22313336.755        1097.178
        46.500          30.000
  25104949.207     1469062.996     1125163.508    25104948.983       -3595.356
        40.250          23.750
  7  3 30 18  7 18.0000000  0 11 24  7  6 29 10 16 18 21 22 26 30
  21472795.522      615243.641      466939.719    21472793.568       -1524.849
        47.250          34.000
  20451063.728      270895.969      203542.691    20451060.375        -758.159
        46.750          33.500
  20978623.071      682114.637      518539.406    20978620.243       -1753.169
        46.500          31.750
  22892933.734       23215.383       13762.445    22892930.771        -164.209
        47.250          30.250
  24756890.273     1431794.852     1095088.340    24756887.452       -3699.424
        43.500          28.500
  22975013.029     -282576.879     -221741.504    22975010.078         634.810
        45.500          30.750
  21715368.714     -962932.746     -733056.691    21715365.269        2248.164
        45.500          33.000
  20893811.671     -315548.211     -246611.984    20893807.454         794.409
        46.500          34.500
  23979779.423    -1404067.434    -1068511.512    23979775.246        3355.503
        47.000          30.750
  22313130.562     -506103.457     -386597.910    22313127.973        1096.514
        46.750          29.750
  25105633.635     1472658.250     1127964.996    25105632.917       -3595.220
        40.250          23.500
  7  3 30 18  7 19.0000000  0 11 24  7  6 29 10 16 18 21 22 26 30
  21473085.601      616768.637      468128.023    21473083.957       -1525.117
        47.500          34.000
  20451208.075      271654.309      204133.602    20451205.188        -758.662
        46.750          34.250
  20978956.681      683867.859      519905.551    20978954.049       -1753.525
        46.250          32.250
  22892965.215       23379.844       13890.586    22892961.760        -164.790
        47.250          31.000
  24757594.111     1435494.250     1097970.984    24757591.615       -3699.521
        43.500          28.000
  22974892.054     -283211.402     -222235.934    22974889.505         634.214
        45.500          30.500
  21714941.330     -965180.742     -734808.375    21714937.708        2247.803
        46.000          33.000
  20893660.753     -316342.504     -247230.910    20893656.519         794.048
        46.250          34.500
  23979140.680    -1407422.883    -1071126.148    23979136.205        3355.356
        47.500          31.750
  22312922.358     -507199.715     -387452.133    22312919.909        1095.942
        46.500          30.000
  25106317.367     1476253.270     1130766.301    25106316.777       -3595.010
        40.000          22.500
  7  3 30 18  7 20.0000000  0 11 24  7  6 29 10 16 18 21 22 26 30
  21473375.976      618293.844      469316.492    21473373.878       -1525.215
        47.250          34.000
  20451352.514      272413.238      204724.969    20451349.566        -759.165
        46.750          34.000
  20979290.182      685621.637      521272.129    20979287.511       -1753.848
        46.250          32.500
  22892996.530       23545.027       14019.297    22892993.509        -165.405
        47.000          30.500
  24758298.352     1439193.730     1100853.699    24758295.912       -3699.448
        43.500          28.500
  22974771.449     -283845.262     -222729.852    22974768.986         633.608
        45.000          29.750
  21714513.591     -967428.277     -736559.707    21714509.824        2247.354
        46.250          32.750
  20893509.517     -317136.535     -247849.641    20893505.414         793.940
        46.250          34.000
  23978502.265    -1410778.059    -1073740.566    23978497.746        3355.117
        47.250          31.500
  22312713.355     -508295.227     -388305.781    22312711.268        1095.239
        46.750          30.250
  25107001.282     1479848.200     1133567.566    25107001.014       -3594.854
        40.000          22.750
  7  3 30 18  7 21.0000000  0 11 24  7  6 29 10 16 18 21 22 26 30
  21473665.962      619819.086      470504.992    21473664.079       -1525.181
        47.500          33.500
  20451496.916      273172.563      205316.656    20451494.035        -759.546
        47.000          34.000
  20979624.195      687375.754      522638.973    20979621.234       -1754.297
        46.500          32.000
  22893027.614       23710.734       14148.426    22893024.646        -165.874
        46.750          30.500
  24759002.314     1442893.160     1103736.379    24758999.129       -3699.341
        43.750          29.000
  22974650.802     -284478.602     -223223.367    22974648.150         633.066
        45.000          30.500
  21714085.383     -969675.523     -738310.809    21714082.298        2247.100
        46.500          33.000
  20893358.739     -317930.457     -248468.285    20893353.919         793.950
        45.750          34.250
  23977863.843    -1414133.176    -1076354.941    23977859.589        3355.078
        47.750          31.000
  22312505.376     -509390.188     -389158.992    22312502.749        1094.858
        47.000          30.500
  25107685.870     1483442.957     1136368.621    25107685.312       -3594.556
        40.000          22.500
  7  3 30 18  7 22.0000000  0 11 24  7  6 29 10 16 18 21 22 26 30
  21473956.745      621344.414      471693.551    21473954.583       -1525.376
        47.500          33.750
  20451640.989      273932.289      205908.648    20451638.758        -759.946
        46.750          33.750
  20979958.155      689130.273      524006.129    20979955.317       -1754.639
        46.750          32.000
  22893059.977       23876.992       14277.973    22893056.548        -166.523
        46.750          30.250
  24759705.935     1446592.578     1106619.043    24759703.340       -3699.316
        43.750          28.750
  22974530.378     -285111.438     -223716.484    22974528.121         632.539
        45.000          30.750
  21713658.373     -971922.414     -740061.629    21713654.715        2246.719
        46.500          33.250
  20893207.904     -318724.246     -249086.820    20893203.004         793.730
        46.000          33.750
  23977225.192    -1417488.188    -1078969.230    23977221.181        3354.912
        47.500          31.000
  22312297.048     -510484.496     -390011.707    22312294.564        1094.019
        47.000          30.250
  25108369.335     1487037.508     1139169.570    25108369.382       -3594.434
        40.500          22.750
  7  3 30 18  7 23.0000000  0 11 24  7  6 29 10 16 18 21 22 26 30
  21474246.646      622869.723      472882.105    21474244.746       -1525.317
        47.500          34.000
  20451785.852      274692.410      206500.945    20451783.401        -760.396
        46.750          33.750
  20980291.977      690885.078      525373.512    20980289.267       -1754.956
        47.000          32.250
  22893091.373       24043.727       14407.898    22893088.347        -166.934
        47.000          29.500
  24760409.974     1450291.883     1109501.609    24760407.086       -3699.302
        44.500          28.750
  22974409.954     -285743.816     -224209.242    22974407.789         632.173
        45.250          31.000
  21713230.616     -974169.066     -741812.270    21713226.931        2246.460
        46.500          33.000
  20893056.218     -319517.957     -249705.293    20893051.942         793.701
        45.750          34.250
  23976587.409    -1420843.191    -1081583.520    23976582.900        3355.034
        47.750          31.250
  22312089.284     -511578.316     -390864.035    22312086.491        1093.550
        47.000          30.500
  25109053.463     1490631.723     1141970.246    25109053.237       -3593.989
        40.500          22.250
